[[{"header":{"parameterUnit":"m.s-1","parameterCategory":1,"la1":31.0,"la2":29.5877,"lo1":-88.7671,"lo2":-86.6584,"dy":0.0162,"dx":0.0185,"nx":115,"ny":88,"refTime":"2026-04-08T12:00:00:Z","depth":0,"parameterNumber":2,"parameterNumberName":"U-component_of_WINDS"},"data":[0.0,0.0,0.0,0.0,0.0,0.0,0.0,0.0,0.0,0.0,0.0,0.0,0.0,0.0,0.0,0.0,0.0,0.0,0.0,0.0,0.0,0.0,0.0,0.0,0.0,0.0,0.0,0.0,0.0,0.0,0.0,0.0,0.0,0.0,0.0,0.0,0.0,0.0,0.0,0.0,0.0,0.0,0.0,0.0,0.0,0.0,0.0,0.0,0.0,0.0,0.0,0.0,0.0,0.0,0.0,0.0,0.0,0.0,0.0,0.0,0.0,0.0,0.0,0.0,0.0,0.0,0.0,0.0,0.0,0.0,0.0,0.0,0.0,0.0,0.0,0.0,0.0,0.0,0.0,0.0,0.0,0.0,0.0,0.0,0.0,0.0,0.0,0.0,0.0,0.0,0.0,0.0,0.0,0.0,0.0,0.0,0.0,0.0,0.0,0.0,0.0,0.0,0.0,0.0,0.0,0.0,0.0,0.0,0.0,0.0,0.0,0.0,0.0,0.0,0.0,0.0,0.0,0.0,0.0,0.0,0.0,0.0,0.0,0.0,0.0,0.0,0.0,0.0,0.0,0.0,0.0,0.0,0.0,0.0,0.0,0.0,0.0,0.0,0.0,0.0,0.0,0.0,0.0,0.0,0.0,0.0,0.0,0.0,0.0,0.0,0.0,0.0,0.0,0.0,0.0,0.0,0.0,0.0,0.0,0.0,0.0,0.0,0.0,0.0,0.0,0.0,0.0,0.0,0.0,0.0,0.0,0.0,0.0,0.0,0.0,0.0,0.0,0.0,0.0,0.0,0.0,0.0,0.0,0.0,0.0,0.0,0.0,0.0,0.0,0.0,0.0,0.0,0.0,0.0,0.0,0.0,0.0,0.0,0.0,0.0,0.0,0.0,0.0,0.0,0.0,0.0,0.0,0.0,0.0,0.0,0.0,0.0,0.0,0.0,0.0,0.0,0.0,0.0,0.0,0.0,0.0,0.0,0.0,0.0,0.0,0.0,0.0,0.0,0.0,0.0,0.0,0.0,0.0,0.0,0.0,0.0,0.0,0.0,0.0,0.0,0.0,0.0,0.0,0.0,0.0,0.0,0.0,0.0,0.0,0.0,0.0,0.0,0.0,0.0,0.0,0.0,0.0,0.0,0.0,0.0,0.0,0.0,0.0,0.0,0.0,0.0,0.0,0.0,0.0,0.0,0.0,0.0,0.0,0.0,0.0,0.0,0.0,0.0,0.0,0.0,0.0,0.0,0.0,0.0,0.0,0.0,0.0,0.0,0.0,0.0,0.0,0.0,0.0,0.0,0.0,0.0,0.0,0.0,0.0,0.0,0.0,0.0,0.0,0.0,0.0,0.0,0.0,0.0,0.0,0.0,0.0,0.0,0.0,0.0,0.0,0.0,0.0,0.0,0.0,0.0,0.0,0.0,0.0,0.0,0.0,0.0,0.0,0.0,0.0,0.0,0.0,0.0,0.0,0.0,0.0,0.0,0.0,0.0,0.0,0.0,0.0,0.0,0.0,0.0,0.0,0.0,0.0,0.0,0.0,0.0,0.0,0.0,0.0,0.0,0.0,0.0,0.0,0.0,0.0,0.0,0.0,0.0,0.0,0.0,0.0,0.0,0.0,0.0,0.0,0.0,0.0,0.0,0.0,0.0,0.0,0.0,0.0,0.0,0.0,0.0,0.0,0.0,0.0,0.0,0.0,0.0,0.0,0.0,0.0,0.0,0.0,0.0,0.0,0.0,0.0,0.0,0.0,0.0,0.0,0.0,0.0,0.0,0.0,0.0,0.0,0.0,0.0,0.0,0.0,0.0,0.0,0.0,0.0,0.0,0.0,0.0,0.0,0.0,0.0,0.0,0.0,0.0,0.0,0.0,0.0,0.0,0.0,0.0,0.0,0.0,0.0,0.0,0.0,0.0,0.0,0.0,0.0,0.0,0.0,0.0,0.0,0.0,0.0,0.0,0.0,0.0,0.0,0.0,0.0,0.0,0.0,0.0,0.0,0.0,0.0,0.0,0.0,0.0,0.0,0.0,0.0,0.0,0.0,0.0,0.0,0.0,0.0,0.0,0.0,0.0,0.0,0.0,0.0,0.0,0.0,0.0,0.0,0.0,0.0,0.0,0.0,0.0,0.0,0.0,0.0,0.0,0.0,0.0,0.0,0.0,0.0,0.0,0.0,0.0,0.0,0.0,0.0,0.0,0.0,0.0,0.0,0.0,0.0,0.0,0.0,0.0,0.0,0.0,0.0,0.0,0.0,0.0,0.0,0.0,0.0,0.0,0.0,0.0,0.0,0.0,0.0,0.0,0.0,0.0,0.0,0.0,0.0,0.0,0.0,0.0,0.0,0.0,0.0,0.0,0.0,0.0,0.0,0.0,0.0,0.0,0.0,0.0,0.0,0.0,0.0,0.0,0.0,0.0,0.0,0.0,0.0,0.0,0.0,0.0,0.0,0.0,0.0,0.0,0.0,0.0,0.0,0.0,0.0,0.0,0.0,0.0,0.0,0.0,0.0,0.0,0.0,0.0,0.0,0.0,0.0,0.0,0.0,0.0,0.0,0.0,0.0,0.0,0.0,0.0,0.0,0.0,0.0,0.0,0.0,0.0,0.0,0.0,0.0,0.0,0.0,0.0,0.0,0.0,0.0,0.0,0.0,0.0,0.0,0.0,0.0,0.0,0.0,0.0,0.0,0.0,0.0,0.0,0.0,0.0,0.0,0.0,0.0,0.0,0.0,0.0,0.0,0.0,0.0,0.0,0.0,0.0,0.0,0.0,0.0,0.0,0.0,0.0,0.0,0.0,0.0,0.0,0.0,0.0,0.0,0.0,0.0,0.0,0.0,0.0,0.0,0.0,0.0,0.0,0.0,0.0,0.0,0.0,0.0,0.0,0.0,0.0,0.0,0.0,0.0,0.0,0.0,0.0,0.0,0.0,0.0,0.0,0.0,0.0,0.0,0.0,0.0,0.0,0.0,0.0,0.0,0.0,0.0,0.0,0.0,0.0,0.0,0.0,0.0,0.0,0.0,0.0,0.0,0.0,0.0,0.0,0.0,0.0,0.0,0.0,0.0,0.0,0.0,0.0,0.0,0.0,0.0,0.0,0.0,0.0,0.0,0.0,0.0,0.0,0.0,0.0,0.0,0.0,0.0,0.0,0.0,0.0,0.0,0.0,0.0,0.0,0.0,0.0,0.0,0.0,0.0,0.0,0.0,0.0,0.0,0.0,0.0,0.0,0.0,0.0,0.0,0.0,0.0,0.0,0.0,0.0,0.0,0.0,0.0,0.0,0.0,0.0,0.0,0.0,0.0,0.0,0.0,0.0,0.0,0.0,0.0,0.0,0.0,0.0,0.0,0.0,0.0,0.0,0.0,0.0,0.0,0.0,0.0,0.0,0.0,0.0,0.0,0.0,0.0,0.0,0.0,0.0,0.0,0.0,0.0,0.0,0.0,0.0,0.0,0.0,0.0,0.0,0.0,0.0,0.0,0.0,0.0,0.0,0.0,0.0,0.0,0.0,0.0,0.0,0.0,0.0,0.0,0.0,0.0,0.0,0.0,0.0,0.0,0.0,0.0,0.0,0.0,0.0,0.0,0.0,0.0,0.0,0.0,0.0,0.0,0.0,0.0,0.0,0.0,0.0,0.0,0.0,0.0,0.0,0.0,0.0,0.0,0.0,0.0,0.0,0.0,0.0,0.0,0.0,0.0,0.0,0.0,0.0,0.0,0.0,0.0,0.0,0.0,0.0,0.0,0.0,0.0,0.0,0.0,0.0,0.0,0.0,0.0,0.0,0.0,0.0,0.0,0.0,0.0,0.0,0.0,0.0,0.0,0.0,0.0,0.0,0.0,0.0,0.0,0.0,0.0,0.0,0.0,0.0,0.0,0.0,0.0,0.0,0.0,0.0,0.0,0.0,0.0,0.0,0.0,0.0,0.0,0.0,0.0,0.0,0.0,0.0,0.0,0.0,0.0,0.0,0.0,0.0,0.0,0.0,0.0,0.0,0.0,0.0,0.0,0.0,0.0,0.0,0.0,0.0,0.0,0.0,0.0,0.0,0.0,0.0,0.0,0.0,0.0,0.0,0.0,0.0,0.0,0.0,0.0,0.0,0.0,0.0,0.0,0.0,0.0,0.0,0.0,0.0,0.0,0.0,0.0,0.0,0.0,0.0,0.0,0.0,0.0,0.0,0.0,0.0,0.0,0.0,0.0,0.0,0.0,0.0,0.0,0.0,0.0,0.0,0.0,0.0,0.0,0.0,0.0,0.0,0.0684,0.0,0.0,0.0,0.0,0.0,0.0,0.0,0.0,0.0,0.0,0.0,0.0,0.0,0.0,0.0,0.0,0.0,0.0,0.0,0.0,0.0,0.0,0.0,0.0,0.0,0.0,0.0,0.0,0.0,0.0,0.0,0.0,0.0,0.0,0.0,0.0,0.0,0.0,0.0,0.0,0.0,0.0,0.0,0.0,0.0,0.0,0.0,0.0,0.0,0.0,0.0,0.0,0.0,0.0,0.0,0.0,0.0,0.0,0.0,0.0,0.0,0.0,0.0,0.0,0.0,0.0,0.0,0.0,0.0,0.0,0.0,0.0,0.0,0.0,0.0,0.0,0.0,0.0,0.0,0.0,0.0,0.0,0.0,0.0,0.0,0.0,0.0,0.0,0.0,0.0,0.0,0.0,0.0,0.0,0.0,0.0,0.0,0.0,0.0,0.0,0.0,0.0,0.0,0.0,0.0,0.0,0.0,0.0,0.0,0.0,0.0723,0.0613,0.0684,0.0729,0.0762,0.0,0.0,0.0,0.0,0.0,0.0,0.0,0.0,0.0,0.0,0.0,0.0,0.0,0.0,0.0,0.0,0.0,0.0,0.0,0.0,0.0,0.0,0.0,0.0,0.0,0.0,0.0,0.0,0.0,0.0,0.0,0.0,0.0,0.0,0.0,0.0,0.0,0.0,0.0,0.0,0.0,0.0,0.0,0.0,0.0,0.0,0.0,0.0,0.0,0.0,0.0,0.0,0.0,0.0,0.0,0.0,0.0,0.0,0.0,0.0,0.0,0.0,0.0,0.0,0.0,0.0,0.0,0.0,0.0,0.0,0.0,0.0,0.0,0.0,0.0,0.0,0.0,0.0,0.0,0.0,0.0,0.0,0.0,0.0,0.0,0.0,0.0,0.0,0.0,0.0,0.0,0.0,0.0,0.0,0.0,0.0,0.0,0.0,0.0,0.0,0.0,0.0,0.0,0.0,0.0,0.0,0.0,0.0,0.0,0.0,0.0,0.0,0.0695,0.0762,0.0773,0.0,0.0,0.0,0.0,0.0,0.0,0.0,0.0,0.0,0.0,0.0,0.0,0.0,0.0,0.0,0.0,0.0,0.0,0.0,0.0,0.0,0.0,0.0,0.0,0.0,0.0,0.0,0.0,0.0,0.0,0.0,0.0,0.0,0.0,0.0,0.0,0.0,0.0,0.0,0.0,0.0,0.0,0.0,0.0,0.0,0.0,0.0,0.0,0.0,0.0,0.0,0.0,0.0,0.0,0.0,0.0,0.0,0.0,0.0,0.0,0.0,0.0,0.0,0.0,0.0,0.0,0.0,0.0,0.0,0.0,0.0,0.0,0.0,0.0,0.0,0.0,0.0,0.0,0.0,0.0,0.0,0.0,0.0,0.0,0.0,0.0,0.0,0.0,0.0,0.0,0.0,0.0,0.0,0.0,0.0,0.0,0.0,0.0,0.0,0.0,0.0,0.0,0.0,0.0,0.0,0.0,0.0,0.0,0.0,0.0,0.0502,0.0601,0.0613,0.0,0.0718,0.0,0.0,0.0,0.0,0.0,0.0,0.0,0.0,0.0,0.0,0.0,0.0,0.0,0.0,0.0,0.0,0.0,0.0,0.0,0.0,0.0,0.0,0.0,0.0,0.0,0.0,0.0,0.0,0.0,0.0,0.0,0.0,0.0,0.0,0.0,0.0,0.0,0.0,0.0,0.0,0.0,0.0,0.0,0.0,0.0,0.0,0.0,0.0,0.0,0.0,0.0,0.0,0.0,0.0,0.0,0.0,0.0,0.0,0.0,0.0,0.0,0.0,0.0,0.0,0.0,0.0,0.0,0.0,0.0,0.0,0.0,0.0,0.0,0.0,0.0,0.0,0.0,0.0,0.0,0.0,0.0,0.0,0.0,0.0,0.0,0.0,0.0,0.0,0.0,0.0,0.0,0.0,0.0,0.0,0.0,0.0,0.0,0.0,0.0,0.0,0.0,0.0,0.0,0.0,0.0,0.0,0.0,0.0,0.0,0.0,0.0468,0.0601,0.0613,0.0635,0.0,0.0,0.0,0.0,0.0,0.0,0.0,0.0,0.0,0.0,0.0,0.0,0.0,0.0,0.0,0.0,0.0,0.0,0.0,0.0,0.0,0.0,0.0,0.0,0.0,0.0,0.0,0.0,0.0,0.0,0.0,0.0,0.0,0.0,0.0,0.0,0.0,0.0,0.0,0.0,0.0,0.0,0.0,0.0,0.0,0.0,0.0,0.0,0.0,0.0,0.0,0.0,0.0,0.0,0.0,0.0,0.0,0.0,0.0,0.0,0.0,0.0,0.0,0.0,0.0,0.0,0.0,0.0,0.0,0.0,0.0,0.0,0.0,0.0,0.0,0.0,0.0,0.0,0.0,0.0,0.0,0.0,0.0,0.0,0.0,0.0,0.0,0.0,0.0,0.0,0.0,0.0,0.0,0.0,0.0,0.0,0.0,0.0,0.0,0.0,0.0,0.0,0.0,0.0,0.0,0.0,0.0,0.0,0.0,0.0,0.0346,0.039,0.049,0.0513,0.0557,0.0601,0.0,0.0,0.0,0.0,0.0,0.0,0.0,0.0,0.0,0.0,0.0,0.0,0.0,0.0,0.0,0.0,0.0,0.0,0.0,0.0,0.0,0.0,0.0,0.0,0.0,0.0,0.0,0.0,0.0,0.0,0.0,0.0,0.0,0.0,0.0,0.0,0.0,0.0,0.0,0.0,0.0,0.0,0.0,0.0,0.0,0.0,0.0,0.0,0.0,0.0,0.0,0.0,0.0,0.0,0.0,0.0,0.0,0.0,0.0,0.0,0.0,0.0,0.0,0.0,0.0,0.0,0.0,0.0,0.0,0.0,0.0,0.0,0.0,0.0,0.0,0.0,0.0,0.0,0.0,0.0,0.0,0.0,0.0,0.0,0.0,0.0,0.0,0.0,0.0,0.0,0.0,0.0,0.0,0.0,0.0,0.0,0.0,0.0,0.0,0.0,0.0,0.0,0.0,0.0,0.0,0.0,0.0,0.0,0.0,0.0201,0.0223,0.0234,0.0335,0.039,0.0,0.0,0.0,0.0,0.0,0.0,0.0,0.0,0.0,0.0,0.0,0.0,0.0,0.0,0.0,0.0,0.0,0.0,0.0,0.0,0.0,0.0,0.0,0.0,0.0,0.0,0.0,0.0,0.0,0.0,0.0,0.0,0.0,0.0,0.0,0.0,0.0,0.0,0.0,0.0,0.0,0.0,0.0,0.0,0.0,0.0,0.0,0.0,0.0,0.0,0.0,0.0,0.0,0.0,0.0,0.0,0.0,0.0,0.0,0.0,0.0,0.0,0.0,0.0,0.0,0.0,0.0,0.0,0.0,0.0,0.0,0.0,0.0,0.0,0.0,0.0,0.0,0.0,0.0,0.0,0.0,0.0,0.0,0.0,0.0,0.0,0.0,0.0,0.0,0.0,0.0,0.0,0.0,0.0,0.0,0.0,0.0,0.0,0.0,0.0,0.0,0.0,0.0,0.0,0.0,0.0,0.0,0.0,0.0,0.0066,0.0156,0.0167,0.0089,0.0201,0.0268,0.0,0.0,0.0,0.0,0.0,0.0,0.0,0.0,0.0,0.0,0.0,0.0,0.0,0.0,0.0,0.0,0.0,0.0,0.0,0.0,0.0,0.0,0.0,0.0,0.0,0.0,0.0,0.0,0.0,0.0,0.0,0.0,0.0,0.0,0.0,0.0,0.0,0.0,0.0,0.0,0.0,0.0,0.0,0.0,0.0,0.0,0.0,0.0,0.0,0.0,0.0,0.0,0.0,0.0,0.0,0.0,0.0,0.0,0.0,0.0,0.0,0.0,0.0,0.0,0.0,0.0,0.0,0.0,0.0,0.0,0.0,0.0,0.0,0.0,0.0,0.0,0.0,0.0,0.0,0.0,0.0,0.0,0.0,0.0,0.0,0.0,0.0,0.0,0.0,0.0,0.0,0.0,0.0,0.0,0.0,0.0,0.0,0.0,0.0,0.0,0.0,0.0,0.0,0.0,0.0,0.0,0.0,0.0,0.0,0.0,0.0,0.0123,0.0,0.0145,0.0212,0.0,0.0,0.0,0.0,0.0,0.0,0.0,0.0,0.0,0.0,0.0,0.0,0.0,0.0,0.0,0.0,0.0,0.0,0.0,0.0,0.0,0.0,0.0,0.0,0.0,0.0,0.0,0.0,0.0,0.0,0.0,0.0,0.0,0.0,0.0,0.0,0.0,0.0,0.0,0.0,0.0,0.0,0.0,0.0,0.0,0.0,0.0,0.0,0.0,0.0,0.0,0.0,0.0,0.0,0.0,0.0,0.0,0.0,0.0,0.0,0.0,0.0,0.0,0.0,0.0,0.0,0.0,0.0,0.0,0.0,0.0,0.0,0.0,0.0,0.0,0.0,0.0,0.0,0.0,0.0,0.0,0.0,0.0,0.0,0.0,0.0,0.0,0.0,0.0,0.0,0.0,0.0,0.0,0.0,0.0,0.0,0.0,0.0,0.0,0.0,0.0,0.0,0.0,0.0,0.0,0.0,0.0,0.0,-0.0089,-0.0011,0.0,0.0045,0.0179,0.018,0.0201,0.0,0.0,0.0,0.0,0.0,0.0,0.0,0.0,0.0,0.0,0.0,0.0,0.0,0.0,0.0,0.0,0.0,0.0,0.0,0.0,0.0,0.0,0.0,0.0,0.0,0.0,0.0,0.0,0.0,0.0,0.0,0.0,0.0,0.0,0.0,0.0,0.0,0.0,0.0,0.0,0.0,0.0,0.0,0.0,0.0,0.0,0.0,0.0,0.0,0.0,0.0,0.0,0.0,0.0,0.0,0.0,0.0,0.0,0.0,0.0,0.0,0.0,0.0,0.0,0.0,0.0,0.0,0.0,0.0,0.0,0.0,0.0,0.0,0.0,0.0,0.0,0.0,0.0,0.0,0.0,0.0,0.0,0.0,0.0,0.0,0.0,0.0,0.0,0.0,0.0,0.0,0.0,0.0,0.0,0.0,0.0,0.0,0.0,0.0,0.0,0.0,0.0,0.0,0.0,0.0,0.0,0.0,0.0,0.0,-0.0212,-0.0206,-0.0158,-0.0079,0.0013,0.0066,0.0,0.0,0.0,0.0,0.0,0.0,0.0,0.0,0.0,0.0,0.0,0.0,0.0,0.0,0.0,0.0,0.0,0.0,0.0,0.0,0.0,0.0,0.0,0.0,0.0,0.0,0.0,0.0,0.0,0.0,0.0,0.0,0.0,0.0,0.0,0.0,0.0,0.0,0.0,0.0,0.0,0.0,0.0,0.0,0.0,0.0,0.0,0.0,0.0,0.0,0.0,0.0,0.0,0.0,0.0,0.0,0.0,0.0,0.0,0.0,0.0,0.0,0.0,0.0,0.0,0.0,0.0,0.0,0.0,0.0,0.0,0.0,0.0,0.0,0.0,0.0,0.0,0.0,0.0,0.0,0.0,0.0,0.0,0.0,0.0,0.0,0.0,0.0,0.0,0.0,0.0,0.0,0.0,0.0,0.0,0.0,0.0,0.0,0.0,0.0,0.0,0.0,0.0,0.0,0.0,0.0,0.0,0.0,0.0,-0.0405,-0.0317,-0.0226,-0.0155,-0.0065,0.0,0.0039,0.0,0.0,0.0,0.0,0.0,0.0,0.0,0.0,0.0,0.0,0.0,0.0,0.0,0.0,0.0,0.0,0.0,0.0,0.0,0.0,0.0,0.0,0.0,0.0,0.0,0.0,0.0,0.0,0.0,0.0,0.0,0.0,0.0,0.0,0.0,0.0,0.0,0.0,0.0,0.0,0.0,0.0,0.0,0.0,0.0,0.0,0.0,0.0,0.0,0.0,0.0,0.0,0.0,0.0,0.0,0.0,0.0,0.0,0.0,0.0,0.0,0.0,0.0,0.0,0.0,0.0,0.0,0.0,0.0,0.0,0.0,0.0,0.0,0.0,0.0,0.0,0.0,0.0,0.0,0.0,0.0,0.0,0.0,0.0,0.0,0.0,0.0,0.0,0.0,0.0,0.0,0.0,0.0,0.0,0.0,0.0,0.0,0.0,0.0,0.0,0.0,0.0,0.0,0.0,0.0,0.0,0.0,0.0,-0.0611,-0.037,-0.0209,-0.0127,-0.0046,0.0023,0.0,0.0,0.0,0.0,0.0,0.0,0.0,0.0,0.0,0.0,0.0,0.0,0.0,0.0,0.0,0.0,0.0,0.0,0.0,0.0,0.0,0.0,0.0,0.0,0.0,0.0,0.0,0.0,0.0,0.0,0.0,0.0,0.0,0.0,0.0,0.0,0.0,0.0,0.0,0.0,0.0,0.0,0.0,0.0,0.0,0.0,0.0,0.0,0.0,0.0,0.0,0.0,0.0,0.0,0.0,0.0,0.0,0.0,0.0,0.0,0.0,0.0,0.0,0.0,0.0,0.0,0.0,0.0,0.0,0.0,0.0,0.0,0.0,0.0,0.0,0.0,0.0,0.0,0.0,0.0,0.0,0.0,0.0,0.0,0.0,0.0,0.0,0.0,0.0,0.0,0.0,0.0,0.0,0.0,0.0,0.0,0.0,0.0,0.0,0.0,0.0,0.0,0.0,0.0,0.0,0.0,0.0,0.0,0.0,-0.0736,-0.0673,-0.0567,-0.0399,-0.0199,-0.0029,0.0,0.0,0.0,0.0,0.0,0.0,0.0,0.0,0.0,0.0,0.0,0.0,0.0,0.0,0.0,0.0,0.0,0.0,0.0,0.0,0.0,0.0,0.0,0.0,0.0,0.0,0.0,0.0,0.0,0.0,0.0,0.0,0.0,0.0,0.0,0.0,0.0,0.0,0.0,0.0,0.0,0.0,0.0,0.0,0.0,0.0,0.0,0.0,0.0,0.0,0.0,0.0,0.0,0.0,0.0,0.0,0.0,0.0,0.0,0.0,0.0,0.0,0.0,0.0,0.0,0.0,0.0,0.0,0.0,0.0,0.0,0.0,0.0,0.0,0.0,0.0,0.0,0.0,0.0,0.0,0.0,0.0,0.0,0.0,0.0,0.0,0.0,0.0,0.0,0.0,0.0,0.0,0.0,0.0,0.0,0.0,0.0,0.0,0.0,0.0,0.0,0.0,0.0,0.0,0.0,0.0,0.0,0.0,-0.076,-0.0794,-0.076,-0.0674,-0.0453,-0.0218,-0.0047,0.0,0.0,0.0,0.0,0.0,0.0,0.0,0.0,0.0,0.0,0.0,0.0,0.0,0.0,0.0,0.0,0.0,0.0,0.0,0.0,0.0,0.0,0.0,0.0,0.0,0.0,0.0,0.0,0.0,0.0,0.0,0.0,0.0,0.0,0.0,0.0,0.0,0.0,0.0,0.0,0.0,0.0,0.0,0.0,0.0,0.0,0.0,0.0,0.0,0.0,0.0,0.0,0.0,0.0,0.0,0.0,0.0,0.0,0.0,0.0,0.0,0.0,0.0,0.0,0.0,0.0,0.0,0.0,0.0,0.0,0.0,0.0,0.0,0.0,0.0,0.0,0.0,0.0,0.0,0.0,0.0,0.0,0.0,0.0,0.0,0.0,0.0,0.0,0.0,0.0,0.0,0.0,0.0,0.0,0.0,0.0,0.0,0.0,0.0,0.0,0.0,0.0,0.0,0.0,0.0,0.0,0.0,0.0,-0.0761,-0.0773,-0.0725,-0.0622,-0.0405,-0.0201,0.0,0.0,0.0,0.0,0.0,0.0,0.0,0.0,0.0,0.0,0.0,0.0,0.0,0.0,0.0,0.0,0.0,0.0,0.0,0.0,0.0,0.0,0.0,0.0,0.0,0.0,0.0,0.0,0.0,0.0,0.0,0.0,0.0,0.0,0.0,0.0,0.0,0.0,0.0,0.0,0.0,0.0,0.0,0.0,0.0,0.0,0.0,0.0,0.0,0.0,0.0,0.0,0.0,0.0,0.0,0.0,0.0,0.0,0.0,0.0,0.0,0.0,0.0,0.0,0.0,0.0,0.0,0.0,0.0,0.0,0.0,0.0,0.0,0.0,0.0,0.0,0.0,0.0,0.0,0.0,0.0,0.0,0.0,0.0,0.0,0.0,0.0,0.0,0.0,0.0,0.0,0.0,0.0,0.0,0.0,0.0,0.0,0.0,0.0,0.0,0.0,0.0,0.0,0.0,0.0,0.0,0.0,0.0,0.0,-0.0613,-0.0559,-0.066,-0.0595,-0.0405,-0.0151,0.0063,0.0,0.0,0.0,0.0,0.0,0.0,0.0,0.0,0.0,0.0,0.0,0.0,0.0,0.0,0.0,0.0,0.0,0.0,0.0,0.0,0.0,0.0,0.0,0.0,0.0,0.0,0.0,0.0,0.0,0.0,0.0,0.0,0.0,0.0,0.0,0.0,0.0,0.0,0.0,0.0,0.0,0.0,0.0,0.0,0.0,0.0,0.0,0.0,0.3296,0.0,0.0,0.0,0.0,0.0,0.0,0.0,0.0,0.0,0.0,0.0,0.0,0.0,0.0,0.0,0.0,0.0,0.0,0.0,0.0,0.0,0.0,0.0,0.0,0.0,0.0,0.0,0.0,0.0,0.0,0.0,0.0,0.0,0.0,0.0,0.0,0.0,0.0,0.0,0.0,0.0,0.0,0.0,0.0,0.0,0.0,0.0,0.0,0.0,0.0,0.0,0.0,0.0,0.0,0.0,0.0,0.0,0.0,0.0,-0.0594,-0.0488,-0.0558,-0.0442,-0.0219,-0.0017,0.014,0.0,0.0,0.0,0.0,0.0,0.0,0.0,0.0,0.0,0.0,0.0,0.0,0.0,0.0,0.0,0.0,0.0,0.0,0.0,0.0,0.0,0.0,0.0,0.0,0.0,0.0,0.0,0.0,0.0,0.0,0.0,0.0,0.0,0.0,0.0,0.0,0.0,0.0,0.0,0.0,0.0,0.0,0.0,0.0,0.0,0.0,0.0,0.0,0.0,0.0,0.0,0.0,0.0,0.0,0.0,0.0,0.0,0.0,0.0,0.0,0.0,0.0,0.0,0.0,0.0,0.0,0.0,0.0,0.0,0.0,0.0,0.0,0.0,0.0,0.0,0.0,0.0,0.0,0.0,0.0,0.0,0.0,0.0,0.0,0.0,0.0,0.0,0.0,0.0,0.0,0.0,0.0,0.0,0.0,0.0,0.0,0.0,0.0,0.0,0.0,0.0,0.0,0.0,0.0,0.0,0.0,0.0,-0.0583,-0.0605,-0.0484,-0.0424,-0.028,-0.0059,0.0107,0.0184,0.0183,0.0,0.0,0.0,0.0,0.0,0.0,0.0,0.0,0.0,0.0,0.0,0.0,0.0,0.0,0.0,0.0,0.0,0.0,0.0,0.0,0.0,0.0,0.0,0.0,0.0,0.0,0.0,0.0,0.0,0.0,0.0,0.0,0.0,0.0,0.0,0.0,0.0,0.0,0.3584,0.3993,0.0,0.0,0.0,0.0,0.0,0.0,0.0,0.0,0.3796,0.0,0.0,0.0,0.0,0.0,0.0,0.0,0.0,0.0,0.0,0.0,0.0,0.0,0.0,0.0,0.0,0.0,0.0,0.0,0.0,0.0,0.0,0.0,0.0,0.0,0.0,0.0,0.0,0.0,0.0,0.0,0.0,0.0,0.0,0.0,0.0,0.0,0.0,0.0,0.0,0.0,0.0,0.0,0.0,0.0,0.0,0.0,0.0,0.0,0.0,0.0,0.0,0.0,0.0,0.0,0.0,-0.0333,-0.0409,-0.0419,-0.034,-0.0369,-0.0345,-0.0236,-0.0071,0.0066,0.0126,0.0,0.0,0.0,0.0,0.0,0.0,0.0,0.0,0.0,0.0,0.0,0.0,0.0,0.0,0.0,0.0,0.0,0.0,0.0,0.0,0.0,0.0,0.0,0.0,0.0,0.0,0.0,0.0,0.0,0.0,0.0,0.0,0.0,0.0,0.0,0.0,0.0,0.0,0.0,0.4499,0.4954,0.0,0.0,0.0,0.0,0.0,0.0,0.0,0.0,0.3422,0.0,0.0,0.0,0.0,0.0,0.0,0.0,0.0,0.0,0.0,0.0,0.0,0.0,0.0,0.0,0.0,0.0,0.0,0.0,0.0,0.0,0.0,0.0,0.0,0.0,0.0,0.0,0.0,0.0,0.0,0.0,0.0,0.0,0.0,0.0,0.0,0.0,0.0,0.0,0.0,0.0,0.0,0.0,0.0,0.0,0.0,0.0,0.0,0.0,0.0,0.0,0.0,0.0,0.0,0.0,-0.0307,-0.0343,-0.0346,-0.0358,-0.0286,-0.0199,-0.0042,0.011,0.0252,0.0,0.0,0.0,0.0,0.0,0.0,0.0,0.0,0.0,0.0,0.0,0.0,0.0,0.0,0.0,0.0,0.0,0.0,0.0,0.0,0.0,0.0,0.0,0.0,0.0,0.0,0.0,0.0,0.0,0.0,0.0,0.0,0.0,0.0,0.0,0.0,0.0,0.0,0.0,0.0,0.4807,0.5345,0.4522,0.0,0.0,0.0,0.0,0.0,0.0,0.3706,0.4092,0.0,0.0,0.0,0.0,0.0,0.0,0.0,0.0,0.0,0.0,0.0,0.0,0.0,0.0,0.0,0.0,0.0,0.0,0.0,0.0,0.0,0.0,0.0,0.0,0.0,0.0,0.0,0.0,0.0,0.0,0.0,0.0,0.0,0.0,0.0,0.0,0.0,0.0,0.0,0.0,0.0,0.0,0.0,0.0,0.0,0.0,0.0,0.0,0.0,0.0,0.0,0.0,0.0,0.0,0.0,-0.0299,-0.0302,-0.0336,-0.0357,-0.0225,-0.0045,0.0134,0.0245,0.039,0.0,0.0,0.0,0.0,0.0,0.0,0.0,0.0,0.0,0.0,0.0,0.0,0.0,0.0,0.0,0.0,0.0,0.0,0.0,0.0,0.0,0.0,0.0,0.0,0.0,0.0,0.0,0.0,0.0,0.0,0.0,0.0,0.0,0.0,0.0,0.0,0.0,0.0,0.0,0.0,0.0,0.5695,0.503,0.5369,0.0,0.0,0.0,0.0,0.3968,0.4545,0.0,0.0,0.0,0.0,0.0,0.0,0.0,0.0,0.0,0.0,0.0,0.0,0.0,0.0,0.0,0.0,0.0,0.0,0.0,0.0,0.0,0.0,0.0,0.0,0.0,0.0,0.0,0.0,0.0,0.0,0.0,0.0,0.0,0.0,0.0,0.0,0.0,0.0,0.0,0.0,0.0,0.0,0.0,0.0,0.0,0.0,0.0,0.0,0.0,0.0,0.0,0.0,0.0,0.0,0.0,0.0,-0.0299,-0.0302,-0.0299,-0.0311,-0.027,-0.0247,-0.0157,-0.0037,0.0123,0.0,0.0,0.0,0.0,0.0,0.0,0.0,0.0,0.0,0.0,0.0,0.0,0.0,0.0,0.0,0.0,0.0,0.0,0.0,0.0,0.0,0.0,0.0,0.0,0.0,0.0,0.0,0.0,0.0,0.0,0.0,0.0,0.0,0.0,0.0,0.0,0.0,0.0,0.0,0.0,0.0,0.6178,0.5531,0.5575,0.5949,0.0,0.0,0.5444,0.5876,0.6043,0.0,0.0,0.0,0.0,0.0,0.0,0.0,0.0,0.0,0.0,0.0,0.0,0.0,0.0,0.0,0.0,0.0,0.0,0.0,0.0,0.0,0.0,0.0,0.0,0.0,0.0,0.0,0.0,0.0,0.0,0.0,0.0,0.0,0.0,0.0,0.0,0.0,0.0,0.0,0.0,0.0,0.0,0.0,0.0,0.0,0.0,0.0,0.0,0.0,0.0,0.0,0.0,0.0,0.0,0.0,-0.0156,-0.0183,-0.0185,-0.0205,-0.0246,-0.0247,-0.018,-0.0045,0.0094,0.0241,0.0,0.0,0.0,0.0,0.0,0.0,0.0,0.0,0.0,0.0,0.0,0.0,0.0,0.0,0.0,0.0,0.0,0.0,0.0,0.0,0.0,0.0,0.0,0.0,0.0,0.0,0.0,0.0,0.0,0.0,0.0,0.0,0.0,0.0,0.0,0.0,0.0,0.0,0.0,0.0,0.0,0.0,0.6113,0.634,0.0,0.0,0.0,0.6337,0.629,0.0,0.0,0.0,0.0,0.0,0.0,0.0,0.0,0.0,0.0,0.0,0.0,0.0,0.0,0.0,0.0,0.0,0.0,0.0,0.0,0.0,0.0,0.0,0.0,0.0,0.0,0.0,0.0,0.0,0.0,0.0,0.0,0.0,0.0,0.0,0.0,0.0,0.0,0.0,0.0,0.0,0.0,0.0,0.0,0.0,0.0,0.0,0.0,0.0,0.0,0.0,0.0,0.0,0.0,0.0,0.0,0.0,-0.0084,-0.0084,-0.0131,-0.0179,-0.018,-0.009,0.0067,0.0206,0.0,0.0,0.0,0.0,0.0,0.0,0.0,0.0,0.0,0.0,0.0,0.0,0.0,0.0,0.0,0.0,0.0,0.0,0.0,0.0,0.0,0.0,0.0,0.0,0.0,0.0,0.0,0.2291,0.0,0.0,0.0,0.0,0.0,0.0,0.0,0.0,0.0,0.0,0.0,0.0,0.0,0.0,0.6592,0.659,0.6955,0.7062,0.0,0.0,0.7141,0.6844,0.6523,0.6325,0.0,0.0,0.0,0.0,0.0,0.0,0.0,0.0,0.0,0.0,0.0,0.0,0.0,0.0,0.0,0.0,0.0,0.0,0.0,0.0,0.0,0.0,0.0,0.0,0.0,0.0,0.0,0.0,0.0,0.0,0.0,0.0,0.0,0.0,0.0,0.0,0.0,0.0,0.0,0.0,0.0,0.0,0.0,0.0,0.0,0.0,0.0,0.0,0.0,0.0,0.0,0.0,0.0,0.0,0.0,-0.01,-0.0084,-0.0093,-0.0112,-0.0112,-0.0067,0.0,0.0151,0.0269,0.0,0.0,0.0,0.0,0.0,0.0,0.0,0.0,0.0,0.0,0.0,0.0,0.0,0.0,0.0,0.0,0.0,0.0,0.0,0.0,0.0,0.0,0.0,0.0,0.0,0.0,0.0,0.0,0.0,0.0,0.0,0.0,0.0,0.0,0.0,0.0,0.0,0.0,0.0,0.0,0.0,0.659,0.6845,0.7134,0.7364,0.0,0.0,0.7557,0.8086,0.7106,0.6283,0.6325,0.0,0.0,0.0,0.0,0.0,0.0,0.0,0.0,0.0,0.0,0.0,0.0,0.0,0.0,0.0,0.0,0.0,0.0,0.0,0.0,0.0,0.0,0.0,0.0,0.0,0.0,0.0,0.0,0.0,0.0,0.0,0.0,0.0,0.0,0.0,0.0,0.0,0.0,0.0,0.0,0.0,0.0,0.0,0.0,0.0,0.0,0.0,0.0,0.0,0.0,0.0,0.0,0.0,-0.0026,-0.0033,-0.0034,-0.0037,-0.0045,-0.0022,-0.0022,0.0,0.0131,0.0242,0.0,0.0,0.0,0.0,0.0,0.0,0.0,0.0,0.0,0.0,0.0,0.0,0.0,0.0,0.0,0.0,0.0,0.0,0.0,0.0,0.0,0.0,0.0,0.0,0.0,0.0,0.0,0.0,0.3245,0.3262,0.3278,0.0,0.0,0.0,0.0,0.0,0.0,0.0,0.0,0.0,0.0,0.673,0.7524,0.7578,0.0,0.0,0.8181,0.8298,0.7711,0.6872,0.6283,0.6283,0.5938,0.0,0.0,0.0,0.0,0.0,0.0,0.0,0.0,0.0,0.0,0.0,0.0,0.0,0.0,0.0,0.0,0.0,0.0,0.0,0.0,0.0,0.0,0.0,0.0,0.0,0.0,0.0,0.0,0.0,0.0,0.0,0.0,0.0,0.0,0.0,0.0,0.0,0.0,0.0,0.0,0.0,0.0,0.0,0.0,0.0,0.0,0.0,0.0,0.0,0.0,0.0,0.0,0.0,0.0,0.0,0.0,0.0,0.0,0.0,0.0022,0.0155,0.027,0.0,0.0,0.0,0.0,0.0,0.0,0.0,0.0,0.0,0.0,0.0,0.0,0.0,0.0,0.0,0.0,0.0,0.0,0.0,0.0,0.0,0.0,0.0,0.0,0.0,0.0,0.0,0.0,0.3192,0.3207,0.3207,0.0,0.0,0.0,0.0,0.0,0.0,0.0,0.0,0.0,0.0,0.6766,0.7854,0.7868,0.7804,0.7946,0.8534,0.8698,0.7946,0.7514,0.7051,0.6403,0.0,0.0,0.0,0.0,0.0,0.0,0.0,0.0,0.0,0.0,0.0,0.0,0.0,0.0,0.0,0.0,0.0,0.0,0.0,0.0,0.0,0.0,0.0,0.0,0.0,0.0,0.0,0.0,0.0,0.0,-0.0376,0.0,0.0,0.0,0.0,0.0,0.0,0.0,0.0,0.0,0.0,0.0,0.0,0.0,0.0,0.0,0.0,0.0,0.0,0.0,0.0,0.0,0.0,0.0,0.0,0.0,0.0,0.0,0.0,0.0022,0.009,0.0227,0.0375,0.0491,0.0,0.0,0.0,0.0,0.0,0.0,0.0,0.0,0.0,0.0,0.0,0.0,0.0,0.0,0.0,0.0,0.0,0.0,0.0,0.0,0.0,0.0,0.0,0.0,0.0,0.0,0.3271,0.3234,0.3207,0.0,0.0,0.0,0.0,0.0,0.0,0.0,0.0,0.0,0.0,0.6283,0.6672,0.7681,0.7868,0.8082,0.8489,0.849,0.8609,0.91,0.9298,0.8729,0.0,0.0,0.0,0.0,0.0,0.0,0.0,0.0,0.0,0.0,0.0,0.0,0.0,0.0,0.0,0.0,0.0,0.0,0.0,0.0,0.0,0.0,0.0,0.0,0.0,0.0,0.0,-0.0659,-0.0511,0.0,0.0,0.0,0.0,0.0,0.0,0.0,0.0,0.0,0.0,0.0,-0.0726,-0.0801,0.0,0.0,0.0,0.0,0.0,0.0,0.0,0.0,0.0,0.0,0.0,0.0,-0.019,-0.0194,-0.0197,-0.0205,-0.0202,0.0022,0.0135,0.0157,0.0206,0.0327,0.0482,0.0,0.0,0.0,0.0,0.0,0.0,0.0,0.0,0.0,0.0,0.0,0.0,0.0,0.0,0.0,0.0,0.0,0.0,0.0,0.0,0.0,0.0,0.0,0.0,0.0,0.3112,0.0,0.0,0.0,0.0,0.0,0.0,0.0,0.0,0.0,0.0,0.0,0.6205,0.7239,0.7359,0.7624,0.8298,0.8417,0.8489,0.0,0.0,0.0,0.0,0.0,0.0,0.0,0.0,0.0,0.0,0.0,0.0,0.0,0.0,0.7784,0.6207,0.5367,0.5679,0.8264,0.0,0.0,0.0,0.0,0.0,0.0,0.0,0.0,0.0,0.0,0.0,0.0,0.0,0.0,-0.119,0.0,-0.1004,0.0,0.0,0.0,0.0,0.0,0.0,0.0,0.0,-0.1097,-0.1075,-0.1033,-0.1092,-0.0965,0.0,-0.0699,-0.0469,0.0,0.0,0.0,0.0,0.0,0.0,0.0,0.0,-0.0297,-0.0245,-0.0247,-0.0233,-0.0112,0.009,0.0202,0.0247,0.0289,0.037,0.0483,0.066,0.0785,0.0,0.0,0.0,0.0,0.0,0.0,0.0,0.0,0.0,0.0,0.0,0.0,0.0,0.0,0.0,0.0,0.0,0.0,0.0,0.0,0.0,0.0,0.0,0.2967,0.0,0.0,0.0,0.0,0.0,0.0,0.0,0.0,0.0,0.4233,0.5444,0.6758,0.7993,0.8015,0.8058,0.8513,0.0,0.0,0.0,0.0,0.0,0.0,0.0,0.9207,0.8345,0.8347,0.837,0.8133,0.8489,0.8772,0.8484,0.0,0.0,0.7563,0.6792,0.6777,0.8264,0.8694,0.9415,1.1237,1.2127,1.2725,0.0,0.0,0.0,0.0,0.0,0.0,0.0,0.0,-0.1821,-0.1888,0.0,-0.1755,0.0,0.0,0.0,0.0,0.0,0.0,0.0,0.0,-0.1433,-0.1437,-0.1331,-0.1299,-0.1144,-0.0849,-0.09,-0.0777,-0.0528,-0.0377,0.0,0.0,0.0,0.0,0.0,0.0,-0.0331,-0.0158,-0.0205,-0.0091,0.0159,0.0203,0.0248,0.0292,0.0414,0.0494,0.0509,0.0818,0.0927,0.0823,0.1002,0.0,0.0,0.0,0.0,0.0,0.0,0.0,0.0,0.0,0.0,0.0,0.0,0.0,0.0,0.0,0.0,0.0,0.0,0.0,0.0,0.2806,0.0,0.0,0.0,0.0,0.0,0.0,0.0,0.0,0.0,0.0,0.6183,0.6343,0.6878,0.842,0.0,0.0,0.0,0.0,0.8898,0.9401,0.9255,0.9042,0.891,0.9232,0.91,0.8098,0.0,0.0,0.8728,0.8985,0.9098,0.8454,0.8646,0.88,0.8773,0.8186,0.7766,0.7783,0.9554,1.156,1.277,1.3835,1.4806,-0.2885,0.0,0.0,0.0,0.0,-0.2353,-0.2237,-0.2196,-0.2056,-0.1889,-0.1785,-0.1755,0.0,0.0,0.0,0.0,0.0,0.0,-0.1691,-0.171,-0.1561,-0.1499,-0.1499,-0.1499,-0.1424,-0.1315,-0.127,-0.1182,-0.1074,-0.0895,-0.0664,-0.0459,0.0,0.0,0.0,0.0,-0.0834,-0.0682,-0.05,-0.0342,-0.0237,0.0151,0.0334,0.0384,0.0396,0.0463,0.0492,0.0725,0.0906,0.1006,0.1066,0.0,0.0,0.0,0.0,0.0,0.0,0.0,0.0,0.0,0.0,0.0,0.0,0.0,0.0,0.0,0.0,0.0,0.0,0.0,0.2685,0.2693,0.2826,0.0,0.0,0.0,0.0,0.0,0.0,0.0,0.0,0.0,0.7026,0.6922,0.7302,0.0,0.0,0.8858,0.9129,0.9074,0.9042,0.9178,0.0,0.0,0.0,0.8878,0.8815,0.8718,0.9198,0.9478,0.9205,0.9324,0.9372,0.9127,0.9168,0.9155,0.8828,0.8414,0.8018,0.7878,0.9142,1.0859,1.2495,1.3942,1.4927,-0.4081,-0.3211,-0.2976,-0.291,-0.2971,-0.2795,-0.2717,-0.2676,-0.2499,-0.2368,-0.2309,-0.2317,-0.2296,-0.2296,-0.2211,0.0,0.0,0.0,-0.2039,-0.2137,-0.1964,-0.1883,-0.1904,-0.1909,-0.1824,-0.1661,-0.164,-0.1546,-0.139,-0.1288,-0.1131,-0.0877,0.0,0.0,-0.0708,-0.0959,-0.0989,-0.0774,-0.053,-0.0376,-0.0242,0.0181,0.0395,0.0403,0.039,0.0416,0.0459,0.0765,0.0912,0.0943,0.1196,0.121,0.0,0.0,0.0,0.0,0.0,0.0,0.0,0.0,0.0,0.0,0.0,0.221,0.2381,0.0,0.0,0.0,0.3063,0.3403,0.3355,0.3496,0.0,0.0,0.0,0.0,0.0,0.0,0.0,0.4915,0.5068,0.5858,0.7657,0.7561,0.7704,0.8656,0.8878,0.8933,0.896,0.0,0.9097,0.9124,0.912,0.9042,0.8965,0.8767,0.8773,0.9292,0.9289,0.9262,0.9313,0.9205,0.9101,0.9101,0.9101,0.9074,0.9074,0.8712,0.8205,0.7831,0.8386,0.9684,1.1763,1.3235,1.4309,-0.5321,-0.4456,-0.3671,-0.326,-0.3154,-0.3108,-0.3102,-0.3102,-0.3127,-0.3155,-0.3276,-0.3181,-0.305,-0.2927,-0.2689,0.0,0.0,-0.2555,-0.2549,-0.2549,-0.2459,-0.2399,-0.2426,-0.2426,-0.2223,-0.1953,-0.1996,-0.1833,-0.1561,-0.1596,-0.1568,-0.1499,-0.1217,-0.1028,-0.1025,-0.1101,-0.0966,-0.0651,-0.0446,-0.023,0.0025,0.0255,0.0408,0.0405,0.0401,0.0408,0.0405,0.0851,0.0976,0.0754,0.1332,0.1465,0.1041,0.0,0.0,0.0,0.0,0.0,0.0,0.0,0.0,0.0,0.0,0.0,0.0,0.0,0.0,0.0,0.3774,0.0,0.4245,0.4671,0.0,0.0,0.0,0.4487,0.37,0.4368,0.4732,0.4273,0.0,0.0,0.0,0.0,0.8062,0.7793,0.8269,0.8578,0.829,0.8684,0.9042,0.9069,0.9092,0.9015,0.8942,0.8717,0.88,0.9581,0.9235,0.896,0.9178,0.8965,0.869,0.88,0.8739,0.885,0.9417,0.9042,0.8488,0.7918,0.7782,0.8431,1.0638,1.2219,1.3506,-0.6021,-0.5434,-0.5246,-0.4529,-0.3459,-0.3303,-0.3249,-0.3242,-0.3135,-0.3102,-0.3135,-0.3102,-0.3159,-0.3204,-0.3124,-0.3149,-0.3187,-0.299,-0.2876,-0.287,-0.2656,-0.2517,-0.246,-0.2455,-0.2424,-0.2273,-0.2098,-0.1971,-0.1875,-0.1631,-0.1572,-0.1635,-0.1535,-0.1421,-0.1387,-0.1387,-0.1317,-0.1125,-0.0876,-0.0459,0.0137,0.0329,0.0403,0.0406,0.0398,0.0407,0.0406,0.0736,0.0988,0.1071,0.1233,0.1463,0.178,0.148,0.0,0.0,0.0,0.0,0.0,0.0,0.0,0.0,0.0,0.2604,0.2477,0.0,0.2837,0.0,0.3822,0.4383,0.3531,0.375,0.0,0.0,0.4441,0.4828,0.5385,0.5672,0.5629,0.5211,0.6127,0.7162,0.8073,0.8226,0.814,0.7947,0.8262,0.8523,0.8634,0.8544,0.8488,0.8538,0.8566,0.8544,0.8734,0.846,0.8544,0.9259,0.9286,0.9313,0.9473,0.9473,0.9396,0.9339,0.9393,0.9473,0.947,0.9339,0.9097,0.8628,0.8091,0.8182,0.9911,1.1698,1.3124,-0.6784,-0.6287,-0.6287,-0.5635,-0.4554,-0.4183,-0.3832,-0.3534,-0.3453,-0.3385,-0.3324,-0.3324,-0.3365,-0.3454,-0.3454,-0.3454,-0.3488,-0.3296,-0.3222,-0.3222,-0.3037,-0.2927,-0.2893,-0.2887,-0.2779,-0.2568,-0.2436,-0.2162,-0.1842,-0.1629,-0.1489,-0.1438,-0.1398,-0.1387,-0.1415,-0.1515,-0.1527,-0.139,-0.1019,-0.0558,-0.0029,0.0228,0.0303,0.0239,0.0397,0.0454,0.0406,0.0718,0.0935,0.1017,0.1272,0.1486,0.1656,0.1532,0.1434,0.0,0.0,0.0,0.0,0.0,0.0,0.0,0.0,0.0,0.0,0.0,0.3233,0.0,0.3574,0.0,0.3941,0.3954,0.4149,0.4675,0.502,0.5386,0.5807,0.5982,0.6089,0.6086,0.65,0.7162,0.8052,0.8549,0.8705,0.853,0.8724,0.8845,0.8765,0.8812,0.896,0.9021,0.9042,0.9255,0.9741,0.9119,0.8828,0.9498,0.9308,0.9046,0.9074,0.8965,0.8855,0.8878,0.8987,0.9124,0.9178,0.9366,0.9363,0.8987,0.8656,0.8811,0.9654,1.0791,1.1806,-0.7594,-0.7074,-0.7041,-0.6603,-0.5928,-0.5422,-0.471,-0.3961,-0.3913,-0.3844,-0.3636,-0.3636,-0.3636,-0.3636,-0.3615,-0.3609,-0.3595,-0.3538,-0.351,-0.3503,-0.345,-0.3417,-0.3434,-0.3434,-0.3232,-0.2901,-0.2828,-0.246,-0.1764,-0.1726,-0.1524,-0.1186,-0.1165,-0.1203,-0.1307,-0.1544,-0.1566,-0.1455,-0.0955,-0.0574,-0.0303,0.0116,0.0226,0.0057,0.0392,0.0553,0.0439,0.0728,0.0876,0.0848,0.1359,0.1508,0.1251,0.1591,0.1722,0.0,0.1828,0.0,0.0,0.0,0.0,0.0,0.0,0.0,0.0,0.2945,0.355,0.4279,0.3344,0.331,0.4752,0.4677,0.4706,0.5109,0.5704,0.6002,0.5726,0.5983,0.6375,0.6854,0.6899,0.723,0.8094,0.8952,0.9386,0.9253,0.9418,0.9386,0.8908,0.9285,0.9657,0.9819,0.9871,1.0001,1.0806,1.02,0.9643,1.0038,0.9379,0.8616,0.8606,0.8298,0.8062,0.8226,0.8404,0.8572,0.8795,0.9178,0.9339,0.9201,0.9205,0.9364,0.961,0.9906,1.0519,-0.8134,-0.8007,-0.7806,-0.737,-0.685,-0.6733,-0.5929,-0.471,-0.471,-0.4402,-0.3941,-0.3934,-0.3886,-0.3927,-0.3805,-0.3751,-0.3744,-0.3646,-0.3578,-0.3585,-0.355,-0.3517,-0.3481,-0.3474,-0.3396,-0.3284,-0.3041,-0.2819,-0.2579,-0.236,-0.2004,-0.1612,-0.1597,-0.1486,-0.1329,0.0,0.0,0.0,-0.0898,-0.0562,-0.0285,0.0148,0.0303,0.0181,0.0488,0.0,0.0499,0.0701,0.0895,0.1039,0.1262,0.0,0.0,0.0,0.0,0.0,0.0,0.0,0.0,0.0,0.0,0.0,0.2864,0.2957,0.297,0.3253,0.3599,0.3966,0.4203,0.4475,0.4785,0.5097,0.546,0.5848,0.6015,0.6225,0.6578,0.6659,0.6855,0.7329,0.7367,0.7548,0.8111,0.8952,0.9571,0.975,0.9977,0.9881,0.9361,0.9414,0.9489,0.9501,0.9547,0.9872,1.0829,1.1177,1.0707,0.9908,0.9387,0.9072,0.8812,0.88,0.869,0.8662,0.8773,0.8933,0.9151,0.9178,0.9178,0.9366,0.9499,0.9557,0.9288,0.9611,1.0013,-0.8477,0.0,-0.8201,-0.7929,0.0,-0.7572,-0.6945,-0.5948,-0.5581,-0.5081,-0.4412,-0.4115,-0.4022,-0.4016,-0.3941,-0.3907,-0.39,-0.3751,-0.3683,-0.3683,-0.3615,-0.3585,-0.3552,-0.3552,-0.3469,-0.3363,-0.3196,-0.2998,-0.2719,-0.2564,-0.2233,-0.1743,-0.1635,-0.1454,-0.1309,-0.1236,-0.119,-0.1129,-0.094,-0.0722,-0.0533,0.0,0.0206,0.0117,0.0,0.0,0.0,0.0,0.0,0.0,0.0,0.0,0.0,0.0,0.0,0.215,0.2202,0.2267,0.2293,0.2467,0.2669,0.2921,0.3323,0.3481,0.3313,0.3142,0.3341,0.405,0.4524,0.4885,0.5147,0.5842,0.6348,0.6345,0.6275,0.6439,0.6896,0.696,0.6919,0.6981,0.7005,0.7154,0.747,0.8564,0.9214,0.9409,0.9797,0.9899,0.9531,0.9627,0.9784,0.9723,0.9955,1.0143,1.0353,1.0564,1.0575,0.9536,0.9123,0.8854,0.8594,0.8544,0.8544,0.8495,0.8544,0.86,0.8739,0.8905,0.9042,0.9042,0.9178,0.9232,0.8992,0.9168,0.9453,-0.8741,-0.8729,-0.8465,-0.8357,-0.8333,-0.8129,-0.7792,-0.7236,0.0,0.0,0.0,-0.4494,-0.4198,-0.4249,-0.407,-0.4006,-0.3999,-0.39,-0.3812,-0.3785,-0.3715,-0.3602,-0.3581,-0.3581,-0.3514,-0.335,-0.335,-0.3146,-0.2736,-0.2736,-0.2474,-0.196,-0.1621,-0.1362,-0.1192,-0.1045,-0.1009,-0.0973,-0.0931,-0.0821,-0.0742,-0.023,0.0058,0.0,0.0534,0.0823,0.0773,0.0858,0.0896,0.0888,0.1237,0.1529,0.1724,0.2078,0.2347,0.2395,0.2526,0.2621,0.2663,0.2745,0.2932,0.322,0.369,0.3868,0.3599,0.3076,0.3196,0.4285,0.4707,0.5068,0.5532,0.6421,0.6892,0.6572,0.6551,0.6728,0.7058,0.7195,0.7138,0.6808,0.6782,0.688,0.7422,0.828,0.8832,0.8829,0.9347,0.9672,0.9416,0.9681,0.9957,0.9812,1.0102,1.0368,0.9961,0.9551,0.933,0.9332,0.8992,0.8596,0.8311,0.8197,0.8197,0.829,0.8197,0.8254,0.8347,0.8656,0.885,0.8678,0.8822,0.896,0.8855,0.895,0.9153,-0.9077,-0.9053,-0.8729,-0.8621,-0.8621,-0.8585,-0.8384,-0.8046,-0.6747,-0.6098,-0.6016,-0.5362,-0.5093,-0.5093,-0.4425,-0.4167,-0.4153,-0.4006,-0.3921,0.0,-0.3771,-0.3697,-0.3581,-0.3581,-0.3568,-0.3548,-0.3548,-0.3423,-0.3248,-0.3276,-0.3001,-0.249,-0.2055,-0.1474,-0.0757,-0.062,-0.0572,-0.0571,-0.0733,-0.0743,-0.0547,-0.0224,-0.0032,0.003,0.0378,0.0605,0.0697,0.0792,0.0813,0.0807,0.1138,0.134,0.139,0.1756,0.1975,0.1982,0.2118,0.2186,0.2215,0.2575,0.2963,0.3346,0.3704,0.3892,0.3928,0.3607,0.3726,0.4567,0.4984,0.5326,0.5651,0.6142,0.6445,0.6411,0.6907,0.7256,0.7226,0.7683,0.7908,0.7729,0.7535,0.7927,0.8873,0.8803,0.8495,0.8401,0.8936,0.934,0.9161,0.9368,0.9481,0.9359,0.9534,0.9601,0.9434,0.8939,0.8808,0.9094,0.906,0.8795,0.8418,0.8326,0.8347,0.8354,0.8375,0.8439,0.8634,0.8523,0.8684,0.8933,0.9174,0.9224,0.895,0.9385,0.9704,-0.9292,-0.9256,-0.9004,-0.8945,-0.8884,-0.8741,-0.8609,-0.8489,-0.7858,-0.72,-0.6652,-0.6046,-0.5609,-0.5273,-0.4931,-0.4631,-0.4362,-0.4212,-0.4104,-0.3986,-0.3955,-0.3832,-0.3704,-0.3697,-0.3656,-0.3581,-0.3581,-0.3541,-0.348,-0.3516,-0.3314,-0.2967,-0.2263,-0.1588,-0.1021,-0.0721,-0.0563,-0.0562,-0.0615,-0.0589,-0.0493,-0.0285,-0.0126,-0.0062,0.0329,0.0593,0.0686,0.0871,0.0918,0.0853,0.1155,0.1275,0.1206,0.1658,0.2016,0.2121,0.2365,0.2542,0.254,0.2768,0.2979,0.3191,0.3605,0.3934,0.4169,0.4043,0.418,0.4665,0.5057,0.5349,0.5469,0.5935,0.6301,0.6513,0.7165,0.7586,0.7603,0.7999,0.835,0.8403,0.812,0.8353,0.9554,0.8767,0.8205,0.8296,0.8608,0.8656,0.8489,0.8521,0.8603,0.8731,0.8845,0.8896,0.8859,0.8682,0.8596,0.8709,0.8701,0.8616,0.8404,0.8382,0.8382,0.841,0.8439,0.8523,0.8712,0.8739,0.8822,0.8905,0.9401,0.9488,0.9391,0.9909,1.0573,-0.9484,-0.946,-0.9256,-0.916,-0.9198,-0.8944,-0.8825,-0.8765,-0.8705,-0.8213,-0.7378,-0.6743,-0.622,-0.578,-0.5462,-0.5062,-0.4663,-0.4402,-0.422,-0.4187,-0.4124,-0.3988,-0.3846,-0.3812,-0.3737,-0.3629,-0.3595,-0.3581,-0.3581,-0.3581,-0.3477,-0.3182,-0.2483,-0.1832,-0.1312,-0.095,-0.0701,-0.0618,-0.056,-0.0533,-0.0504,-0.0346,-0.025,-0.0092,0.0277,0.0563,0.0674,0.0894,0.0989,0.0922,0.1098,0.118,0.1116,0.1579,0.1939,0.2136,0.2635,0.2905,0.2886,0.2954,0.3007,0.3051,0.3511,0.3872,0.415,0.4445,0.4691,0.4836,0.5104,0.5336,0.5484,0.5908,0.6305,0.6582,0.7249,0.7637,0.7726,0.8155,0.8549,0.8709,0.8567,0.8765,0.9078,0.8585,0.8169,0.8465,0.838,0.8213,0.8049,0.794,0.8038,0.8176,0.8354,0.8425,0.8382,0.86,0.8656,0.8523,0.8544,0.8594,0.8578,0.8572,0.8551,0.8628,0.8794,0.8916,0.8916,0.9221,0.9374,0.942,0.984,1.0184,1.0377,1.0813,1.1565,-0.9408,-0.9472,-0.9448,-0.9448,-0.9424,-0.94,-0.9194,-0.893,-0.8857,-0.8704,-0.8317,-0.7665,-0.7351,-0.714,-0.5908,-0.5289,-0.5179,-0.4718,-0.4375,-0.4214,-0.418,-0.4144,-0.3946,-0.386,-0.3785,-0.3751,-0.3694,-0.3633,-0.3581,-0.3581,-0.3391,-0.2959,-0.2766,-0.2291,-0.1493,-0.1273,-0.1028,-0.0621,-0.0581,-0.0564,-0.0502,-0.0466,-0.039,-0.0185,0.0092,0.033,0.0523,0.0762,0.0905,0.093,0.1007,0.1033,0.1045,0.1274,0.1495,0.1594,0.2413,0.2905,0.2894,0.2886,0.3011,0.3199,0.3515,0.3718,0.3814,0.4621,0.5197,0.5219,0.5264,0.5457,0.5806,0.6075,0.626,0.6329,0.698,0.7348,0.7456,0.7913,0.8318,0.8318,0.8941,0.9354,0.8857,0.8583,0.8542,0.8696,0.8711,0.8622,0.8422,0.8355,0.8217,0.8097,0.8184,0.8326,0.8347,0.8739,0.8795,0.8745,0.8872,0.8945,0.8968,0.9018,0.8978,0.9249,0.9477,0.9729,0.985,1.011,1.0394,1.034,1.0657,1.1104,1.176,1.2053,1.2475,-0.9344,-0.9344,-0.928,-0.928,-0.9344,-0.9408,-0.9348,-0.9253,-0.919,-0.9056,-0.8939,-0.8391,-0.8021,-0.7681,-0.6936,-0.622,-0.5538,-0.5163,-0.4703,-0.4219,-0.4219,-0.4134,-0.3997,-0.3938,-0.387,-0.3799,-0.3731,-0.3663,-0.364,-0.3581,-0.3486,-0.3303,-0.3029,-0.2654,-0.2255,-0.1668,-0.1254,-0.1072,-0.0774,-0.0596,-0.0567,-0.0513,-0.0465,-0.0358,-0.013,0.0129,0.0377,0.0637,0.0846,0.0927,0.0969,0.0986,0.0927,0.1071,0.1265,0.1509,0.2298,0.2786,0.284,0.2999,0.3127,0.3208,0.3407,0.3638,0.3835,0.3998,0.4317,0.4935,0.5181,0.5551,0.6169,0.648,0.66,0.6571,0.7104,0.7558,0.7533,0.7977,0.8316,0.8341,0.8537,0.8882,0.9112,0.9225,0.9041,0.8798,0.8814,0.8849,0.8575,0.8532,0.8373,0.804,0.7841,0.786,0.8148,0.8283,0.8481,0.87,0.9011,0.9247,0.935,0.9716,0.9965,1.0061,1.0307,1.0539,1.0599,1.0748,1.0994,1.1096,1.1479,1.194,1.268,1.2814,1.3088,-0.9388,-0.936,-0.9225,-0.9144,-0.9204,-0.9204,-0.928,-0.9291,-0.9215,-0.9151,-0.9128,-0.8828,-0.846,-0.8138,-0.7666,-0.6922,-0.6094,-0.5737,-0.5156,-0.447,-0.4408,-0.4293,-0.4094,-0.3996,-0.3926,-0.3795,-0.3777,-0.3685,-0.3611,-0.3636,-0.3615,-0.3544,-0.3258,-0.3031,-0.2799,-0.2031,-0.1529,-0.1382,-0.0894,-0.0627,-0.0597,-0.0574,-0.052,-0.0472,-0.0236,0.0,0.0202,0.0538,0.076,0.0887,0.0989,0.1006,0.0954,0.1006,0.1212,0.1578,0.2126,0.2605,0.2808,0.3056,0.3251,0.3328,0.3484,0.3658,0.3814,0.3533,0.377,0.4658,0.4962,0.5395,0.6506,0.6854,0.6921,0.6801,0.7278,0.7558,0.7558,0.7863,0.7987,0.7957,0.7824,0.8154,0.9121,0.935,0.9157,0.8875,0.8967,0.9078,0.8836,0.8795,0.8699,0.8286,0.7828,0.7711,0.8056,0.8299,0.8338,0.8647,0.9111,0.9555,0.9669,1.0253,1.0665,1.0555,1.0931,1.1272,1.1415,1.1502,1.1655,1.1881,1.2192,1.2631,1.315,1.3285,1.3522,-0.9544,-0.9638,-0.9491,-0.9262,-0.9022,-0.9022,-0.8958,-0.8905,-0.8829,-0.8829,-0.8829,-0.8818,-0.8871,-0.8792,-0.7928,-0.7247,-0.6882,-0.6463,-0.5741,-0.4879,-0.4959,-0.4732,-0.4174,-0.3934,-0.3807,-0.381,-0.3711,-0.3593,-0.361,-0.3731,-0.371,-0.3595,-0.3537,-0.3353,-0.2898,-0.2357,-0.1834,-0.1439,-0.0968,-0.0657,-0.0592,-0.0624,-0.0559,-0.0481,-0.0236,-0.0135,-0.0034,0.0438,0.0705,0.0737,0.094,0.1071,0.1099,0.1101,0.1305,0.1747,0.1971,0.2316,0.2789,0.3035,0.3308,0.3589,0.3627,0.369,0.3766,0.372,0.4009,0.4734,0.455,0.5112,0.6504,0.689,0.7027,0.7085,0.7182,0.7251,0.7251,0.7419,0.7321,0.7196,0.7183,0.7568,0.8586,0.8765,0.8893,0.9046,0.9257,0.9211,0.9226,0.9263,0.9111,0.8806,0.8465,0.8201,0.8059,0.8434,0.8822,0.9152,0.955,0.9896,1.0188,1.0521,1.079,1.1097,1.1462,1.1799,1.2127,1.239,1.2577,1.2778,1.2931,1.3319,1.3412,1.3641,1.3841,-0.9499,-0.9416,-0.9408,-0.9298,-0.9064,-0.9053,-0.904,-0.8894,-0.8829,-0.8776,-0.8765,-0.8646,-0.87,-0.8818,-0.8334,-0.7613,-0.6908,-0.6904,-0.6271,-0.5086,-0.4991,-0.489,-0.4542,-0.4064,-0.3785,-0.3819,-0.377,-0.3679,-0.3605,-0.356,-0.3538,-0.3481,-0.3488,-0.3398,-0.317,-0.2726,-0.226,-0.1841,-0.1269,-0.0859,-0.066,-0.0576,-0.0557,-0.056,-0.0469,-0.0314,-0.0101,0.0101,0.0269,0.0438,0.0707,0.0841,0.0877,0.1181,0.1448,0.1738,0.2039,0.2339,0.267,0.2832,0.3088,0.3513,0.3573,0.3618,0.373,0.3947,0.427,0.4524,0.4466,0.484,0.5577,0.6477,0.6985,0.6999,0.7125,0.7209,0.7293,0.7377,0.7335,0.7209,0.707,0.7266,0.7739,0.8002,0.8275,0.8805,0.8926,0.8939,0.9011,0.9232,0.9299,0.906,0.9242,0.9323,0.8665,0.8892,0.9242,0.9655,1.0026,1.0089,1.0302,1.0886,1.1239,1.1388,1.1803,1.1931,1.2141,1.2327,1.2685,1.2861,1.3104,1.331,1.3514,1.3674,1.3815,-0.955,-0.9346,-0.9477,-0.9405,-0.9116,-0.9105,-0.9074,-0.9053,-0.892,-0.8821,-0.881,-0.8614,-0.8582,-0.8711,-0.8582,-0.797,-0.703,-0.7215,-0.6596,-0.5261,-0.5033,-0.4845,-0.4507,-0.4017,-0.3793,-0.3743,-0.3773,-0.3714,-0.3595,-0.3544,-0.3526,-0.3483,-0.3447,-0.3372,-0.3327,-0.2881,-0.246,-0.2144,-0.1475,-0.1015,-0.0819,-0.0559,-0.0464,-0.0484,-0.0506,-0.0449,-0.0249,-0.0177,-0.0071,0.0142,0.039,0.0638,0.0853,0.1278,0.1603,0.1797,0.2069,0.2376,0.26,0.2714,0.2986,0.3343,0.3482,0.3616,0.3803,0.414,0.4343,0.4535,0.4578,0.4675,0.5067,0.5836,0.6435,0.6647,0.6956,0.7167,0.728,0.7419,0.7461,0.7433,0.7335,0.7363,0.7461,0.7628,0.7919,0.8357,0.848,0.8643,0.8805,0.907,0.9257,0.9009,0.958,0.9791,0.9515,0.9556,0.9727,1.0109,1.0186,1.0287,1.0521,1.111,1.152,1.1726,1.1859,1.1932,1.2077,1.2258,1.2437,1.2615,1.2861,1.3104,1.3344,1.3615,1.3782,-0.9776,-0.9593,-0.9583,-0.9432,-0.9227,-0.9206,-0.9206,-0.9189,-0.9015,-0.8929,-0.8907,-0.8635,-0.856,-0.8538,-0.8528,-0.8107,-0.7584,-0.7419,-0.6688,-0.5632,-0.5222,-0.4717,-0.4142,-0.3926,-0.3732,-0.3622,-0.3732,-0.373,-0.362,-0.3684,-0.3676,-0.3574,-0.3441,-0.3375,-0.3375,-0.289,-0.2558,-0.229,-0.1618,-0.1118,-0.1031,-0.0625,-0.0351,-0.0339,-0.0335,-0.0411,-0.0551,-0.0312,-0.0194,-0.0155,0.0078,0.0469,0.1044,0.1404,0.1726,0.1973,0.2172,0.2369,0.2683,0.2836,0.2947,0.3128,0.3385,0.3635,0.3891,0.4176,0.4403,0.4578,0.4806,0.499,0.499,0.5159,0.5543,0.6167,0.6702,0.6996,0.711,0.7433,0.7685,0.7685,0.7628,0.767,0.767,0.767,0.7753,0.7878,0.8126,0.8455,0.8683,0.8886,0.8967,0.907,0.9451,0.981,0.9983,1.0196,1.0331,1.0427,1.0407,1.0442,1.0702,1.1169,1.1282,1.149,1.1564,1.1638,1.1748,1.1932,1.215,1.2365,1.2615,1.2861,1.3138,1.3412,1.3715,-0.9884,-0.982,-0.9809,-0.968,-0.9475,-0.9464,-0.9378,-0.9206,-0.912,-0.9098,-0.9055,-0.8851,-0.8754,-0.8711,-0.8592,-0.8312,-0.7967,-0.7574,-0.6865,-0.6029,-0.5731,-0.5275,-0.4584,-0.4065,-0.3754,-0.3599,-0.3638,-0.3622,-0.3572,-0.3548,-0.3533,-0.3488,-0.3424,-0.3415,-0.3355,-0.3139,-0.2892,-0.2558,-0.1773,-0.1254,-0.1075,-0.0539,-0.0313,-0.0353,-0.0352,-0.0393,-0.0474,-0.0325,-0.0276,-0.0276,0.0,0.047,0.1102,0.1496,0.1849,0.2227,0.2442,0.2631,0.2794,0.2739,0.2771,0.2954,0.3132,0.3258,0.3524,0.4096,0.4491,0.4613,0.4849,0.499,0.5027,0.5264,0.5585,0.5912,0.6463,0.6849,0.7026,0.7667,0.7961,0.777,0.767,0.767,0.7741,0.7756,0.7785,0.777,0.7881,0.8089,0.8183,0.856,0.8602,0.8643,0.9191,0.9607,0.9607,0.9804,1.0157,1.0312,1.039,1.0544,1.0812,1.0964,1.1115,1.1191,1.1287,1.14,1.1474,1.166,1.1881,1.2041,1.2258,1.2544,1.2896,1.3257,1.3574,-0.9916,-0.9916,-0.9916,-0.9841,-0.9712,-0.9701,-0.9626,-0.9464,-0.9378,-0.9346,-0.9303,-0.9098,-0.899,-0.8947,-0.8743,-0.858,-0.8417,-0.7962,-0.7186,-0.626,-0.5841,-0.531,-0.4601,-0.4096,-0.3757,-0.3721,-0.3648,-0.3626,-0.3583,-0.3512,-0.3468,-0.3452,-0.3401,-0.3391,-0.338,-0.3268,-0.3056,-0.28,-0.2152,-0.1695,-0.1415,-0.0813,-0.0403,-0.0494,-0.0359,-0.0269,-0.0224,-0.0213,-0.0207,-0.0248,-0.0041,0.0455,0.1033,0.1484,0.198,0.2504,0.2685,0.2815,0.2865,0.2771,0.2726,0.2865,0.2948,0.3081,0.3303,0.3832,0.4096,0.4666,0.4893,0.509,0.5226,0.5424,0.5653,0.5748,0.6292,0.6661,0.6997,0.7563,0.8031,0.803,0.8312,0.8385,0.8414,0.8253,0.8165,0.8107,0.8077,0.8077,0.8165,0.8425,0.8493,0.8585,0.8931,0.9072,0.9001,0.9328,0.9883,1.0118,1.0312,1.0544,1.0833,1.0909,1.0985,1.1061,1.1158,1.1212,1.1325,1.1421,1.1586,1.1771,1.2082,1.2361,1.2746,1.3131,1.3541,-0.9916,-0.9916,-0.9916,-0.9916,-0.9906,-0.9906,-0.9884,-0.9863,-0.969,-0.9593,-0.954,-0.9335,-0.9227,-0.9174,-0.899,-0.8883,-0.884,-0.8448,-0.7635,-0.6564,-0.5858,-0.5062,-0.4232,-0.3996,-0.3882,-0.3837,-0.382,-0.3765,-0.3615,-0.3599,-0.3588,-0.3555,-0.3463,-0.3414,-0.3387,-0.3289,-0.3229,-0.3113,-0.2578,-0.2243,-0.2192,-0.1249,-0.068,-0.0681,-0.0274,0.0,0.0,0.0,-0.0134,-0.0314,0.0,0.0355,0.0758,0.1389,0.2006,0.2716,0.2865,0.2865,0.2865,0.2865,0.2876,0.2892,0.2943,0.3021,0.332,0.3281,0.3539,0.4523,0.4987,0.5218,0.5392,0.562,0.5661,0.5701,0.6173,0.6552,0.6952,0.7191,0.7622,0.8338,0.9084,0.9518,0.9293,0.9018,0.8738,0.8827,0.8663,0.85,0.8699,0.8746,0.8746,0.8805,0.8957,0.9007,0.9004,0.8862,0.9399,1.0045,1.0199,1.0328,1.0644,1.0758,1.0909,1.1006,1.1166,1.1162,1.1318,1.1497,1.1757,1.2119,1.2294,1.2363,1.2742,1.3307,1.3728,-0.9916,-0.9916,-0.9916,-0.9916,-0.9916,-0.9916,-0.9916,-0.9916,-0.9863,-0.9809,-0.9776,-0.9583,-0.9486,-0.9453,-0.9227,-0.912,-0.9066,-0.8805,-0.823,-0.7185,-0.6448,-0.5336,-0.433,-0.4088,-0.4007,-0.3903,-0.3882,-0.3827,-0.3776,-0.3765,-0.3727,-0.3583,-0.3561,-0.3534,-0.3517,-0.3414,-0.336,-0.3286,-0.2727,-0.2484,-0.2278,-0.1425,-0.0882,-0.0783,-0.0293,0.0,0.0,0.0,0.0,-0.009,-0.0045,0.0314,0.0807,0.0986,0.1526,0.2483,0.2558,0.2509,0.2826,0.2921,0.2914,0.2944,0.3001,0.3034,0.3217,0.3119,0.3239,0.3894,0.4824,0.5422,0.4892,0.5405,0.5871,0.6048,0.6123,0.634,0.6722,0.707,0.7407,0.7605,0.8423,0.9013,0.9113,0.87,0.831,0.9055,0.8965,0.8547,0.8904,0.9158,0.9174,0.9051,0.9093,0.9091,0.9037,0.8764,0.9015,0.9865,1.0039,0.9974,1.0299,1.0586,1.0835,1.1061,1.139,1.151,1.1737,1.1962,1.225,1.254,1.2771,1.3015,1.343,1.3911,1.4093,-0.9916,-0.9916,-0.9916,-0.9916,-0.9916,-0.9916,-0.9916,-0.9916,-0.9916,-0.9916,-0.9884,-0.9787,-0.9723,-0.9701,-0.9475,-0.9367,-0.9335,-0.9109,-0.859,-0.7725,-0.6603,-0.5372,-0.4415,-0.4191,-0.4132,-0.4023,-0.4012,-0.3941,-0.3849,-0.3827,-0.3789,-0.374,-0.368,-0.3716,-0.3704,-0.3539,-0.3479,-0.3404,-0.3099,-0.2885,-0.2782,-0.1776,-0.1259,-0.1007,0.0,0.0,0.0,0.0,0.0,0.0,0.0,0.018,0.0538,0.0671,0.1044,0.1732,0.1948,0.2355,0.2628,0.2871,0.3034,0.3072,0.3099,0.312,0.3179,0.3152,0.3159,0.3424,0.446,0.4646,0.4556,0.5101,0.5664,0.5864,0.6007,0.6149,0.649,0.674,0.6804,0.6977,0.7557,0.8237,0.8554,0.7997,0.8229,0.8657,0.8866,0.8927,0.9166,0.9448,0.9627,0.9486,0.9377,0.9439,0.939,0.9145,0.9164,0.9922,1.0251,1.009,1.0385,1.07,1.1085,1.1466,1.1686,1.189,1.2122,1.2395,1.2744,1.3062,1.3324,1.3689,1.4052,1.4352,1.4605,-0.9949,-0.9916,-0.9916,-0.9916,-0.9916,-0.9916,-0.9916,-0.9916,-0.9916,-0.9916,-0.9916,-0.9916,-0.9884,-0.9906,-0.969,-0.9615,-0.9593,-0.9357,-0.8816,-0.7873,-0.6696,-0.5467,-0.4698,-0.4361,-0.423,-0.4148,-0.4137,-0.4066,-0.3979,-0.3952,-0.3941,-0.3887,-0.3811,-0.3778,-0.3751,-0.3659,-0.366,-0.3577,-0.3425,-0.3313,-0.3139,-0.2195,-0.1602,-0.1394,0.0,0.0,0.0,0.0,0.0,0.0,0.0,0.0,0.0,0.045,0.0469,0.0443,0.1313,0.2037,0.2339,0.2785,0.3136,0.3164,0.3207,0.3227,0.324,0.327,0.3305,0.3365,0.3501,0.3941,0.434,0.4691,0.5123,0.5575,0.5927,0.6092,0.6256,0.642,0.641,0.6292,0.6879,0.7171,0.73,0.7676,0.8156,0.8277,0.8605,0.9118,0.9445,0.9834,0.9906,0.9847,0.9817,0.9802,0.9724,0.9533,0.9736,1.0117,1.0403,1.0504,1.094,1.1255,1.1614,1.1897,1.1861,1.2111,1.251,1.285,1.3209,1.364,1.3973,1.4278,1.4627,1.4849,1.5066,-1.01,-0.9916,-0.9916,-0.9916,-0.9916,-0.9916,-0.9927,-0.9927,-0.9927,-0.9916,-0.9916,-0.9916,-0.9916,-0.9916,-0.9863,-0.9852,-0.9798,-0.9593,-0.9052,-0.808,-0.7053,-0.6164,-0.544,-0.4819,-0.4295,-0.4262,-0.4262,-0.4197,-0.4105,-0.4072,-0.4028,-0.3947,-0.3931,-0.3892,-0.3882,-0.3784,-0.3776,-0.3754,-0.3604,-0.355,-0.3374,-0.2411,-0.1738,-0.1633,-0.06,0.0,0.0,0.0,0.0,0.0,0.0,0.0,0.0,0.0,0.0,0.0201,0.0654,0.145,0.2112,0.2383,0.2741,0.3249,0.3281,0.3409,0.3517,0.3507,0.3501,0.3534,0.3566,0.3805,0.4082,0.4098,0.4683,0.5515,0.6014,0.6314,0.6736,0.7074,0.6859,0.6653,0.697,0.7289,0.6628,0.7311,0.7676,0.7848,0.8421,0.9197,0.9614,0.9991,1.0054,0.9981,1.0015,0.9987,1.0138,1.0108,1.0351,1.0561,1.0788,1.0902,1.1309,1.1538,1.1779,1.1851,1.1827,1.2246,1.284,1.3192,1.3521,1.4071,1.4539,1.4808,1.5054,1.5301,1.5579,-1.0379,-1.0261,-1.025,-1.025,-1.0239,-1.0143,-1.0089,-1.0067,-0.997,-0.9916,-0.9916,-0.9916,-0.9916,-0.9916,-0.9916,-0.9916,-0.9895,-0.9798,-0.9448,-0.8739,-0.7852,-0.7066,-0.6295,-0.5403,-0.4786,-0.4455,-0.4317,-0.4257,-0.4219,-0.4197,-0.4175,-0.4105,-0.405,-0.4023,-0.3939,-0.3898,-0.3844,-0.3816,-0.3724,-0.3721,-0.3545,-0.2759,-0.179,-0.1343,0.0,0.0,0.0,0.0,0.0,0.0,0.0,0.0,0.0,0.0,0.0,0.0,0.0521,0.0996,0.1529,0.1909,0.2347,0.3013,0.3091,0.3294,0.3511,0.3588,0.3588,0.3588,0.3638,0.3694,0.3971,0.4026,0.4599,0.5216,0.5875,0.6295,0.6832,0.7119,0.7298,0.6997,0.7231,0.7345,0.7236,0.7419,0.7515,0.7848,0.8262,0.8935,0.904,0.942,0.9836,0.9879,1.0049,1.0151,1.0407,1.0629,1.0931,1.1163,1.1393,1.1442,1.1554,1.1682,1.1827,1.1945,1.2142,1.264,1.3181,1.3524,1.3777,1.4202,1.4631,1.5085,1.5384,1.5476,1.5823,-1.067,-1.0557,-1.0557,-1.0557,-1.0525,-1.0423,-1.0347,-1.0315,-1.0121,-1.0056,-0.9981,-0.9981,-0.9992,-0.9927,-0.9916,-0.9916,-0.9916,-0.9916,-0.9702,-0.9456,-0.857,-0.7773,-0.6966,-0.6033,-0.5188,-0.4588,-0.4398,-0.4333,-0.4322,-0.4306,-0.4268,-0.4268,-0.4197,-0.4148,-0.4121,-0.3966,-0.3963,-0.3947,-0.3844,-0.3784,-0.3714,-0.306,-0.2174,-0.1133,0.0,0.0,0.0,0.0,0.0,0.0,0.0,0.0,0.0,0.0,0.0,0.0,0.0435,0.076,0.1046,0.1444,0.189,0.2516,0.2679,0.2927,0.3349,0.3564,0.361,0.3693,0.3767,0.3983,0.4137,0.4299,0.4558,0.4955,0.5578,0.6108,0.6587,0.688,0.7144,0.7742,0.7688,0.7677,0.7649,0.7687,0.7794,0.7889,0.8315,0.8633,0.8685,0.8896,0.9368,0.9629,0.9784,1.0146,1.0419,1.0929,1.1285,1.185,1.2103,1.2034,1.1983,1.2222,1.2414,1.2347,1.2599,1.2938,1.3205,1.3361,1.3731,1.4208,1.4613,1.5023,1.5296,1.5549,1.5962,-1.081,-1.0557,-1.0557,-1.0557,-1.0638,-1.0595,-1.0584,-1.0573,-1.0509,-1.0401,-1.0239,-1.0229,-1.0121,-0.9981,-0.9927,-0.9927,-0.9852,-0.9841,-0.9852,-0.969,-0.9015,-0.8241,-0.7283,-0.6492,-0.5593,-0.4865,-0.4572,-0.4458,-0.442,-0.4355,-0.4338,-0.4306,-0.4284,-0.4268,-0.4224,-0.4159,-0.4088,-0.4072,-0.3969,-0.3909,-0.3772,-0.3195,-0.2436,-0.1286,-0.0991,-0.0577,-0.0113,0.0,0.0,0.0,0.0,0.0,0.0,0.0,0.0,0.0,0.0,0.0389,0.0732,0.0956,0.1345,0.1902,0.2363,0.2715,0.306,0.343,0.3702,0.3966,0.4225,0.4559,0.5125,0.4911,0.5038,0.5392,0.5592,0.5817,0.6262,0.6521,0.687,0.7662,0.7937,0.8078,0.7913,0.7848,0.7848,0.7901,0.8209,0.8421,0.8474,0.8738,0.9106,0.9316,0.942,0.9888,1.0368,1.1013,1.1609,1.2431,1.2766,1.2677,1.2732,1.2985,1.3072,1.2819,1.257,1.2525,1.2783,1.3113,1.3661,1.4205,1.4549,1.4871,1.5164,1.548,1.5924,-1.1112,-1.092,-1.092,-1.092,-1.0982,-1.0864,-1.081,-1.0789,-1.0692,-1.0573,-1.0498,-1.0466,-1.0336,-1.0164,-1.011,-0.998,-0.9797,-0.9625,-0.9625,-0.9614,-0.9311,-0.8542,-0.7617,-0.6912,-0.5993,-0.5179,-0.4746,-0.4616,-0.4637,-0.4518,-0.4442,-0.4398,-0.4387,-0.436,-0.4306,-0.4246,-0.4213,-0.4181,-0.4094,-0.4028,-0.3955,-0.3361,-0.262,-0.2176,-0.1445,-0.0896,-0.0651,-0.0118,0.0,0.0,0.0,0.0,0.0,0.0,0.0,0.0,0.0,0.0113,0.0401,0.0461,0.075,0.145,0.2041,0.2572,0.3053,0.3575,0.398,0.4504,0.4785,0.5067,0.5325,0.5219,0.5155,0.5296,0.5502,0.5767,0.6011,0.6276,0.6779,0.7354,0.7432,0.7533,0.7919,0.7901,0.7901,0.8008,0.818,0.8246,0.8325,0.8564,0.8858,0.9111,0.9284,0.976,1.0498,1.1484,1.2132,1.295,1.3277,1.3222,1.3259,1.3387,1.3259,1.3,1.269,1.2687,1.2475,1.2857,1.3503,1.415,1.458,1.4899,1.5129,1.5454,1.5837,-1.1262,-1.1176,-1.1262,-1.1176,-1.1144,-1.1059,-1.1058,-1.1015,-1.0875,-1.0767,-1.0702,-1.0692,-1.0493,-1.0232,-1.0058,-0.9798,-0.9459,-0.9286,-0.9246,-0.9311,-0.9311,-0.8694,-0.7846,-0.7165,-0.6458,-0.536,-0.4915,-0.4806,-0.4697,-0.4709,-0.4654,-0.4534,-0.4507,-0.4447,-0.436,-0.4338,-0.4333,-0.4273,-0.4213,-0.4159,-0.3998,-0.3619,-0.3184,-0.2981,-0.1986,-0.1363,-0.0918,-0.0428,-0.0061,0.0,0.0,0.0,0.0,0.0,0.0,0.0175,0.0115,0.0058,0.0118,0.0119,0.0478,0.1027,0.171,0.243,0.3113,0.3751,0.4463,0.5173,0.5345,0.5332,0.5404,0.5223,0.5128,0.5116,0.5439,0.5677,0.5738,0.5856,0.602,0.646,0.666,0.7225,0.7804,0.8177,0.8237,0.8237,0.8416,0.8348,0.8416,0.8367,0.8588,0.8921,0.9234,0.9667,1.0601,1.213,1.28,1.3568,1.3662,1.3552,1.3589,1.3662,1.3516,1.3479,1.3589,1.3515,1.3072,1.288,1.3781,1.4441,1.4727,1.4956,1.5219,1.5426,1.5695,-1.1089,-1.0722,-1.0916,-1.0916,-1.0722,-1.0875,-1.1047,-1.1198,-1.1155,-1.1133,-1.0856,-1.0845,-1.0563,-0.9948,-0.9428,-0.9183,-0.9027,-0.8923,-0.8846,-0.8904,-0.8894,-0.8493,-0.7702,-0.7165,-0.6472,-0.5628,-0.5146,-0.4925,-0.4747,-0.4724,-0.4659,-0.4637,-0.4621,-0.4572,-0.4469,-0.4383,-0.4398,-0.4322,-0.4295,-0.4278,-0.4207,-0.4048,-0.3726,-0.3219,-0.2621,-0.1903,-0.1062,-0.0499,-0.0125,0.0249,0.0372,0.0308,0.0122,0.024,0.0562,0.0632,0.05,0.012,0.0367,0.0307,0.0372,0.0877,0.1688,0.2413,0.3249,0.4093,0.4891,0.5266,0.5425,0.5425,0.5425,0.5397,0.5311,0.525,0.529,0.5311,0.5283,0.5505,0.574,0.6067,0.6437,0.7255,0.7956,0.8348,0.8597,0.8597,0.8573,0.8607,0.8558,0.8555,0.8649,0.9066,0.921,0.9603,1.0294,1.1863,1.2779,1.3731,1.374,1.3654,1.3784,1.3816,1.4212,1.4194,1.4329,1.4201,1.3737,1.3808,1.4352,1.4731,1.5059,1.5215,1.539,1.5525,1.5601,-1.0472,-1.0299,-1.0396,-1.0386,-1.0289,-1.0386,-1.0472,-1.0569,-1.0646,-1.0768,-1.0761,-1.0665,-1.0299,-0.9663,-0.9045,-0.8873,-0.8845,-0.8684,-0.8672,-0.8737,-0.8718,-0.8431,-0.765,-0.6934,-0.6318,-0.5628,-0.5007,-0.4603,-0.4609,-0.473,-0.4833,-0.4609,-0.4599,-0.4473,-0.4375,-0.4364,-0.448,-0.4426,-0.4378,-0.4198,-0.411,-0.3996,-0.3875,-0.3497,-0.2967,-0.222,-0.136,-0.0648,-0.013,0.026,0.0455,0.039,0.0324,0.0452,0.0654,0.0994,0.0654,0.0448,0.0444,0.0444,0.0513,0.0782,0.1627,0.2494,0.3671,0.4622,0.516,0.5359,0.5425,0.5432,0.5439,0.5425,0.5425,0.5338,0.5318,0.5291,0.525,0.523,0.5446,0.5807,0.6337,0.736,0.8224,0.8633,0.8933,0.9053,0.898,0.8869,0.8891,0.8945,0.9136,0.944,0.946,0.9551,1.0214,1.125,1.1873,1.2696,1.3057,1.3093,1.3672,1.3914,1.4141,1.4501,1.465,1.4484,1.4241,1.445,1.4792,1.5119,1.541,1.5527,1.5625,1.5527,1.5742,-0.9777,-0.9689,-0.9864,-0.9864,-0.9873,-0.9864,-0.9951,-1.0038,-1.0212,-1.0289,-1.0299,-1.0193,-0.9856,-0.945,-0.8849,-0.8578,-0.8743,-0.8535,-0.8521,-0.8586,-0.8595,-0.8269,-0.7618,-0.6932,-0.6126,-0.5473,-0.4774,-0.4457,-0.4535,-0.4603,-0.4635,-0.4498,-0.4493,-0.4433,-0.4294,-0.4259,-0.4312,-0.44,-0.4273,-0.4101,-0.3942,-0.3889,-0.3837,-0.3605,-0.3187,-0.2433,-0.1611,-0.0938,-0.0268,0.047,0.0603,0.0601,0.0468,0.0601,0.0811,0.1028,0.082,0.0746,0.0736,0.0664,0.0729,0.1002,0.1752,0.3013,0.4754,0.5346,0.5425,0.5425,0.5425,0.5466,0.5447,0.5467,0.5481,0.5488,0.5454,0.5433,0.5406,0.5359,0.545,0.5726,0.6488,0.7886,0.859,0.9004,0.9223,0.9391,0.9321,0.9209,0.9266,0.9373,0.9594,0.9823,0.9945,0.9932,1.0327,1.0933,1.1435,1.1777,1.2212,1.2739,1.3314,1.3689,1.3819,1.424,1.475,1.5068,1.5072,1.5115,1.5195,1.5584,1.5859,1.5859,1.584,1.5723,1.596,-0.9087,-0.8744,-0.9349,-0.9515,-0.9349,-0.9524,-0.9777,-0.9864,-0.9951,-0.9951,-0.9951,-0.9602,-0.9419,-0.9183,-0.87,-0.8353,-0.8344,-0.8097,-0.8123,-0.818,-0.8065,-0.8129,-0.7621,-0.6907,-0.6152,-0.5827,-0.4899,-0.4423,-0.4399,-0.4363,-0.4408,-0.4375,-0.4361,-0.4304,-0.4256,-0.4223,-0.4184,-0.4206,-0.4085,-0.3993,-0.3989,-0.3884,-0.3918,-0.3783,-0.3483,-0.2761,-0.1412,-0.1012,-0.0272,0.0681,0.0886,0.0815,0.0682,0.0821,0.1045,0.1067,0.1065,0.1061,0.0985,0.0896,0.0878,0.1413,0.2304,0.3505,0.4896,0.5325,0.5393,0.5494,0.5562,0.5658,0.5677,0.5711,0.5677,0.5644,0.561,0.5583,0.5542,0.5467,0.5554,0.5704,0.6408,0.7391,0.8788,0.9134,0.9506,0.9703,0.9767,0.9667,0.9842,0.9978,1.0043,1.0197,1.0398,1.0501,1.0595,1.0971,1.1274,1.1546,1.1853,1.2472,1.3187,1.3347,1.3523,1.4149,1.4674,1.5232,1.5775,1.5609,1.5674,1.615,1.6367,1.6465,1.6569,1.6552,1.6817,-0.8744,-0.8648,-0.892,-0.8911,-0.8911,-0.8911,-0.9087,-0.9174,-0.9262,-0.934,-0.9349,-0.9262,-0.9174,-0.8886,-0.8694,-0.8463,-0.8455,-0.8398,-0.8284,-0.8211,-0.8162,-0.8156,-0.764,-0.6926,-0.6084,-0.5791,-0.4814,-0.4172,-0.4181,-0.4155,-0.4172,-0.4151,-0.4227,-0.4229,-0.4183,-0.4169,-0.4213,-0.4033,-0.3979,-0.3874,-0.3786,-0.3739,-0.37,-0.3669,-0.3589,-0.2643,-0.1481,-0.1186,-0.021,0.0634,0.0989,0.0985,0.0909,0.1061,0.1155,0.1179,0.1167,0.1163,0.1167,0.1075,0.1063,0.1418,0.2494,0.3652,0.4462,0.5096,0.5567,0.5684,0.5858,0.5922,0.601,0.5942,0.584,0.58,0.5766,0.5732,0.5755,0.5686,0.5679,0.5773,0.5747,0.6145,0.7702,0.9207,0.9616,0.9995,1.0085,1.02,1.0315,1.0456,1.0483,1.0417,1.0544,1.1009,1.1142,1.1156,1.1129,1.1368,1.1605,1.2189,1.2856,1.3018,1.3278,1.3884,1.4429,1.4837,1.5313,1.5764,1.6134,1.6408,1.6889,1.7292,1.7362,1.7396,1.7627,-0.8568,-0.8568,-0.8568,-0.8568,-0.8568,-0.8568,-0.8568,-0.8656,-0.8744,-0.8823,-0.8823,-0.8999,-0.8911,-0.8656,-0.8568,-0.856,-0.8552,-0.8536,-0.8471,-0.8414,-0.8357,-0.826,-0.7735,-0.6916,-0.6062,-0.5716,-0.4782,-0.4026,-0.4018,-0.403,-0.4018,-0.4064,-0.4001,-0.4094,-0.4038,-0.4169,-0.4155,-0.4055,-0.3943,-0.3819,-0.3654,-0.3618,-0.356,-0.3548,-0.3536,-0.2702,-0.1665,-0.1074,-0.0287,0.0654,0.1175,0.1104,0.1171,0.1172,0.1191,0.1198,0.1194,0.1254,0.1262,0.1247,0.1168,0.1378,0.226,0.2931,0.3601,0.4748,0.5708,0.5956,0.6132,0.6261,0.6254,0.6118,0.6044,0.601,0.5981,0.6013,0.5985,0.5922,0.5916,0.5916,0.5844,0.5899,0.7338,0.9038,0.9959,1.0367,1.0612,1.0718,1.085,1.0903,1.0836,1.073,1.0661,1.1209,1.1744,1.169,1.161,1.1451,1.1655,1.1901,1.2366,1.2667,1.3074,1.3685,1.4114,1.4394,1.4832,1.53,1.598,1.6674,1.7139,1.757,1.7883,1.7941,1.8157,-0.8568,-0.8568,-0.8568,-0.8568,-0.8568,-0.8568,-0.8568,-0.8568,-0.8656,-0.8656,-0.8656,-0.8656,-0.8656,-0.8568,-0.8568,-0.8568,-0.8568,-0.8568,-0.8544,-0.8528,-0.8503,-0.8422,-0.7912,-0.7069,-0.619,-0.5733,-0.4821,-0.4079,-0.405,-0.4079,-0.4067,-0.403,-0.3981,-0.3948,-0.3891,-0.3889,-0.3847,-0.3847,-0.3851,-0.3851,-0.3756,-0.3744,-0.3699,-0.3642,-0.34,-0.2622,-0.1555,-0.1031,-0.0221,0.0891,0.1221,0.1221,0.1202,0.1174,0.1193,0.1241,0.1216,0.1217,0.1243,0.1272,0.1183,0.1328,0.2084,0.2604,0.3067,0.4313,0.5862,0.5974,0.6234,0.6261,0.6254,0.6325,0.629,0.6242,0.6282,0.6307,0.6286,0.6264,0.6259,0.6223,0.6078,0.6244,0.7484,0.8806,0.9974,1.0655,1.1063,1.1246,1.1235,1.1236,1.1142,1.1116,1.0982,1.1303,1.1837,1.2104,1.2078,1.1824,1.1844,1.2109,1.2361,1.2684,1.3055,1.3561,1.3874,1.4128,1.4465,1.4838,1.5513,1.6237,1.7196,1.7775,1.8113,1.8355,1.8442,-0.8568,-0.8568,-0.8568,-0.8568,-0.8568,-0.8568,-0.8568,-0.8568,-0.8568,-0.8568,-0.8568,-0.8568,-0.8568,-0.8568,-0.8568,-0.8568,-0.8568,-0.8568,-0.8568,-0.8568,-0.8568,-0.8536,-0.8123,-0.7128,-0.6325,-0.5872,-0.499,-0.4165,-0.4132,-0.4161,-0.4116,-0.4063,-0.4022,-0.3965,-0.3977,-0.3952,-0.3948,-0.3944,-0.394,-0.392,-0.3863,-0.385,-0.3814,-0.3728,-0.326,-0.2394,-0.1301,-0.084,0.0076,0.107,0.1257,0.125,0.1236,0.1211,0.1227,0.1334,0.1238,0.1321,0.126,0.1246,0.1247,0.1465,0.184,0.2534,0.3392,0.3917,0.5024,0.5989,0.6268,0.6268,0.6254,0.6338,0.6318,0.6465,0.6485,0.6554,0.6616,0.6677,0.6648,0.6655,0.6579,0.7143,0.8183,0.8313,0.9214,1.0115,1.0527,1.114,1.1325,1.1354,1.1369,1.1436,1.1436,1.161,1.1864,1.2144,1.2291,1.215,1.2182,1.248,1.2666,1.2841,1.3143,1.3564,1.371,1.3912,1.4237,1.4548,1.5057,1.5816,1.6705,1.7562,1.8076,1.8281,1.8418,-0.8625,-0.8576,-0.8633,-0.8617,-0.8576,-0.8568,-0.8568,-0.8568,-0.8568,-0.8568,-0.8568,-0.8568,-0.8568,-0.8568,-0.8568,-0.8568,-0.8568,-0.8568,-0.8568,-0.8568,-0.8568,-0.856,-0.8113,-0.7231,-0.6492,-0.5985,-0.5092,-0.4263,-0.4218,-0.4271,-0.4234,-0.4148,-0.4063,-0.4104,-0.4099,-0.4055,-0.3965,-0.3969,-0.3973,-0.3993,-0.3957,-0.394,-0.392,-0.3637,-0.3057,-0.2169,-0.1283,-0.048,0.0398,0.1035,0.1275,0.1348,0.1344,0.1337,0.1341,0.1347,0.1284,0.1287,0.1296,0.1303,0.1301,0.1372,0.1852,0.2489,0.327,0.3702,0.4673,0.5562,0.6087,0.6356,0.6462,0.6462,0.6627,0.6777,0.6783,0.6939,0.6934,0.6988,0.6988,0.7019,0.7019,0.7787,0.8322,0.8237,0.8344,0.916,0.9941,1.0611,1.1282,1.1467,1.1537,1.1589,1.1726,1.1931,1.2051,1.2211,1.2378,1.2378,1.2539,1.2728,1.2879,1.3041,1.3302,1.3564,1.377,1.3978,1.4067,1.4351,1.4875,1.5428,1.6003,1.6937,1.7858,1.81,1.8112,-0.8723,-0.8609,-0.8755,-0.8723,-0.8601,-0.8617,-0.8609,-0.8576,-0.8568,-0.8568,-0.8568,-0.8568,-0.8568,-0.8568,-0.8568,-0.8568,-0.8568,-0.8568,-0.8568,-0.8568,-0.8472,-0.848,-0.812,-0.7143,-0.6517,-0.5985,-0.5181,-0.4465,-0.4376,-0.4242,-0.4238,-0.4259,-0.4189,-0.4189,-0.4132,-0.4071,-0.3981,-0.4006,-0.4034,-0.4042,-0.4014,-0.403,-0.4018,-0.3662,-0.2905,-0.2074,-0.1158,-0.033,0.0573,0.1062,0.131,0.1292,0.1276,0.1338,0.1277,0.1306,0.1337,0.1335,0.1337,0.134,0.1347,0.1424,0.1427,0.1932,0.2734,0.3637,0.4613,0.5549,0.6209,0.6498,0.6695,0.6948,0.7208,0.72,0.7168,0.7163,0.7204,0.7249,0.7326,0.7257,0.718,0.7565,0.7735,0.7735,0.8069,0.8702,0.957,1.022,1.092,1.1655,1.1728,1.1801,1.1939,1.2225,1.2305,1.2331,1.2472,1.2587,1.2722,1.2885,1.3124,1.3343,1.3679,1.396,1.3989,1.4124,1.4197,1.4392,1.4757,1.5219,1.5663,1.638,1.7351,1.7604,1.7728,-0.8796,-0.8755,-0.8804,-0.8787,-0.8771,-0.8885,-0.8812,-0.8584,-0.8568,-0.8568,-0.8568,-0.8568,-0.8593,-0.8568,-0.8568,-0.8568,-0.8568,-0.8568,-0.8568,-0.848,-0.8208,-0.8296,-0.7937,-0.7231,-0.6605,-0.6074,-0.5536,-0.4718,-0.4297,-0.4169,-0.4177,-0.4189,-0.4185,-0.4157,-0.4136,-0.4099,-0.4083,-0.4087,-0.4112,-0.4099,-0.4087,-0.4108,-0.4095,-0.3733,-0.2537,-0.169,-0.118,0.0168,0.1004,0.1253,0.1337,0.1328,0.1325,0.1288,0.1284,0.1381,0.1376,0.1347,0.1351,0.1366,0.1461,0.1632,0.163,0.2212,0.2944,0.3748,0.4554,0.5581,0.6518,0.7007,0.7253,0.7414,0.7514,0.7461,0.7442,0.7437,0.7485,0.7508,0.75,0.7467,0.7382,0.7366,0.7537,0.7724,0.8125,0.862,0.9154,0.9823,1.0595,1.127,1.1715,1.1865,1.2188,1.2452,1.2385,1.2385,1.2641,1.2873,1.3051,1.3299,1.3653,1.3968,1.4146,1.4296,1.437,1.4384,1.4399,1.4687,1.485,1.4989,1.5385,1.6089,1.6699,1.7021,1.7355,-0.882,-0.8828,-0.8901,-0.8934,-0.895,-0.9047,-0.8966,-0.8796,-0.8771,-0.8779,-0.8771,-0.8706,-0.8666,-0.8658,-0.8609,-0.8568,-0.8568,-0.8568,-0.8568,-0.848,-0.8128,-0.8025,-0.776,-0.7319,-0.6605,-0.6074,-0.5542,-0.4905,-0.4389,-0.4185,-0.4189,-0.4222,-0.4157,-0.4144,-0.4153,-0.4165,-0.4161,-0.4173,-0.4189,-0.4181,-0.4181,-0.4185,-0.4169,-0.38,-0.2323,-0.1547,-0.1118,0.0431,0.1204,0.1367,0.1365,0.1356,0.1354,0.1406,0.1668,0.1769,0.176,0.1738,0.1736,0.1731,0.1825,0.1821,0.1899,0.2313,0.2752,0.3432,0.461,0.5808,0.6893,0.7709,0.7831,0.7857,0.7774,0.7612,0.7706,0.7724,0.7725,0.7724,0.7675,0.7626,0.7602,0.7577,0.7675,0.7902,0.8082,0.8316,0.8524,0.8801,0.9757,1.0864,1.1432,1.1731,1.2247,1.2639,1.2572,1.2599,1.3015,1.3292,1.3523,1.3867,1.4223,1.4408,1.4472,1.4618,1.4794,1.4809,1.4823,1.4867,1.5065,1.5124,1.5331,1.5981,1.6492,1.6795,1.7037,-0.8844,-0.8869,-0.9039,-0.9112,-0.912,-0.9153,-0.9153,-0.9137,-0.9137,-0.9112,-0.9056,-0.8909,-0.8844,-0.882,-0.8747,-0.8682,-0.8698,-0.8698,-0.8674,-0.8601,-0.8351,-0.8078,-0.7672,-0.7312,-0.6428,-0.5725,-0.528,-0.5003,-0.4474,-0.4267,-0.4259,-0.43,-0.4283,-0.4263,-0.4251,-0.4218,-0.4218,-0.4255,-0.4275,-0.4283,-0.4267,-0.4279,-0.43,-0.3931,-0.2672,-0.1337,-0.0892,0.0178,0.1423,0.149,0.1477,0.1467,0.1547,0.1635,0.2024,0.213,0.2138,0.2047,0.2036,0.1938,0.2004,0.2075,0.2048,0.2313,0.2766,0.2852,0.3945,0.5815,0.6987,0.7921,0.8154,0.8218,0.8185,0.8042,0.7963,0.795,0.7927,0.7854,0.7805,0.7732,0.7602,0.7634,0.7975,0.8195,0.8178,0.8172,0.8263,0.8371,0.9009,1.0274,1.0836,1.1387,1.2189,1.257,1.2531,1.2661,1.341,1.3822,1.403,1.4367,1.4714,1.4765,1.4677,1.4882,1.5087,1.5233,1.5292,1.5248,1.5286,1.5524,1.5749,1.5974,1.6319,1.6617,1.6926,-0.9031,-0.9047,-0.9218,-0.9291,-0.9315,-0.9445,-0.9494,-0.9502,-0.9502,-0.934,-0.9129,-0.9056,-0.9031,-0.9015,-0.8958,-0.8926,-0.8934,-0.8885,-0.8869,-0.8623,-0.8403,-0.7983,-0.7429,-0.7081,-0.6269,-0.5725,-0.5285,-0.4924,-0.4478,-0.43,-0.43,-0.43,-0.43,-0.421,-0.421,-0.417,-0.4101,-0.4152,-0.4164,-0.4137,-0.4078,-0.419,-0.421,-0.3674,-0.2601,-0.1347,-0.0629,0.0628,0.1522,0.1958,0.196,0.1955,0.177,0.1955,0.2142,0.2332,0.2334,0.2244,0.2149,0.2221,0.2288,0.2261,0.233,0.2509,0.2596,0.2318,0.3188,0.5257,0.675,0.7658,0.8472,0.8544,0.8519,0.8398,0.8215,0.8178,0.8057,0.8008,0.7959,0.7829,0.7675,0.7878,0.8235,0.8349,0.8341,0.8365,0.85,0.8611,0.9009,0.98,0.9942,1.0563,1.1944,1.237,1.2333,1.2827,1.3561,1.4195,1.4408,1.4779,1.5116,1.5087,1.5043,1.5204,1.5379,1.5423,1.5506,1.556,1.5628,1.5839,1.605,1.6246,1.6459,1.6775,1.7032,-0.9145,-0.9218,-0.9315,-0.9405,-0.9486,-0.9583,-0.9624,-0.9624,-0.9624,-0.9518,-0.9332,-0.9259,-0.921,-0.9185,-0.9137,-0.9112,-0.9112,-0.9088,-0.9023,-0.8774,-0.8475,-0.7879,-0.7437,-0.6995,-0.5992,-0.535,-0.5027,-0.4656,-0.4312,-0.43,-0.43,-0.4218,-0.4129,-0.395,-0.395,-0.386,-0.3716,-0.3687,-0.386,-0.3807,-0.3739,-0.3965,-0.4021,-0.3386,-0.2281,-0.1184,0.0,0.1098,0.182,0.2173,0.2165,0.2242,0.2147,0.2238,0.2422,0.2513,0.2603,0.2513,0.2419,0.2403,0.2478,0.2544,0.2519,0.2701,0.2719,0.2611,0.3159,0.4942,0.5323,0.6068,0.8032,0.856,0.8544,0.8471,0.8446,0.8381,0.8333,0.8308,0.8284,0.8251,0.8154,0.8203,0.8455,0.8479,0.8471,0.8549,0.864,0.8727,0.9078,0.9428,0.9438,0.9846,1.1255,1.2111,1.2278,1.2858,1.3761,1.4282,1.476,1.4957,1.5238,1.5282,1.5423,1.5496,1.5496,1.5492,1.5575,1.5747,1.5922,1.6072,1.6314,1.6573,1.6786,1.6933,1.7159,-0.9234,-0.938,-0.9388,-0.9478,-0.9616,-0.9624,-0.9624,-0.9624,-0.9624,-0.9624,-0.9583,-0.9445,-0.9397,-0.9332,-0.925,-0.9194,-0.9194,-0.9259,-0.9202,-0.9043,-0.9129,-0.8023,-0.7409,-0.7079,-0.6029,-0.5165,-0.4576,-0.4373,-0.4188,-0.4184,-0.4093,-0.407,-0.3796,-0.3529,-0.3432,-0.3171,-0.3026,-0.3144,-0.3236,-0.3124,-0.3402,-0.3687,-0.3608,-0.2785,-0.1675,-0.0465,0.0467,0.1398,0.212,0.2289,0.2352,0.2431,0.2513,0.2513,0.2606,0.2785,0.2785,0.2785,0.2777,0.2751,0.2845,0.2842,0.2815,0.282,0.2845,0.3105,0.357,0.3849,0.4206,0.5181,0.7143,0.8568,0.856,0.8552,0.8552,0.8552,0.8544,0.8536,0.8544,0.8544,0.8536,0.8536,0.8544,0.8568,0.8673,0.8664,0.8752,0.892,0.9087,0.9349,0.9529,0.9742,1.059,1.1315,1.1594,1.2602,1.3432,1.442,1.4851,1.5118,1.5317,1.5276,1.5419,1.5672,1.5657,1.5757,1.5926,1.607,1.6217,1.6443,1.6813,1.7022,1.6771,1.6949,1.7239,-0.9123,-0.928,-0.9477,-0.96,-0.9624,-0.9624,-0.9624,-0.9624,-0.9624,-0.9624,-0.9517,-0.9608,-0.9575,-0.9567,-0.9551,-0.9405,-0.9243,-0.9364,-0.9204,-0.9036,-0.9116,-0.8072,-0.6957,-0.6361,-0.5863,-0.4984,-0.4317,-0.4235,-0.391,-0.3831,-0.3665,-0.3377,-0.3287,-0.3102,-0.3102,-0.2914,-0.2815,-0.2828,-0.2828,-0.2914,-0.2986,-0.3242,-0.3168,-0.244,-0.1355,-0.0542,0.0361,0.1627,0.2347,0.2706,0.2703,0.2698,0.2785,0.2785,0.2785,0.2875,0.2875,0.2875,0.2861,0.2853,0.2867,0.2869,0.2864,0.2905,0.2937,0.2984,0.3322,0.3319,0.38,0.4589,0.6346,0.8032,0.856,0.8568,0.856,0.8576,0.8584,0.8584,0.8593,0.8576,0.856,0.856,0.856,0.8681,0.8907,0.8899,0.8996,0.9173,0.9456,0.9499,0.9551,0.992,1.028,0.9864,0.9932,1.1735,1.276,1.3952,1.4866,1.4833,1.4998,1.5177,1.5367,1.5836,1.6154,1.6314,1.6473,1.6597,1.6722,1.6931,1.7321,1.754,1.7207,1.7111,1.7382]},{"header":{"parameterUnit":"m.s-1","parameterCategory":1,"la1":31.0,"la2":29.5877,"lo1":-88.7671,"lo2":-86.6584,"dy":0.0162,"dx":0.0185,"nx":115,"ny":88,"refTime":"2026-04-08T12:00:00:Z","depth":0,"parameterNumber":3,"parameterNumberName":"V-component_of_WINDS"},"data":[0.0,0.0,0.0,0.0,0.0,0.0,0.0,0.0,0.0,0.0,0.0,0.0,0.0,0.0,0.0,0.0,0.0,0.0,0.0,0.0,0.0,0.0,0.0,0.0,0.0,0.0,0.0,0.0,0.0,0.0,0.0,0.0,0.0,0.0,0.0,0.0,0.0,0.0,0.0,0.0,0.0,0.0,0.0,0.0,0.0,0.0,0.0,0.0,0.0,0.0,0.0,0.0,0.0,0.0,0.0,0.0,0.0,0.0,0.0,0.0,0.0,0.0,0.0,0.0,0.0,0.0,0.0,0.0,0.0,0.0,0.0,0.0,0.0,0.0,0.0,0.0,0.0,0.0,0.0,0.0,0.0,0.0,0.0,0.0,0.0,0.0,0.0,0.0,0.0,0.0,0.0,0.0,0.0,0.0,0.0,0.0,0.0,0.0,0.0,0.0,0.0,0.0,0.0,0.0,0.0,0.0,0.0,0.0,0.0,0.0,0.0,0.0,0.0,0.0,0.0,0.0,0.0,0.0,0.0,0.0,0.0,0.0,0.0,0.0,0.0,0.0,0.0,0.0,0.0,0.0,0.0,0.0,0.0,0.0,0.0,0.0,0.0,0.0,0.0,0.0,0.0,0.0,0.0,0.0,0.0,0.0,0.0,0.0,0.0,0.0,0.0,0.0,0.0,0.0,0.0,0.0,0.0,0.0,0.0,0.0,0.0,0.0,0.0,0.0,0.0,0.0,0.0,0.0,0.0,0.0,0.0,0.0,0.0,0.0,0.0,0.0,0.0,0.0,0.0,0.0,0.0,0.0,0.0,0.0,0.0,0.0,0.0,0.0,0.0,0.0,0.0,0.0,0.0,0.0,0.0,0.0,0.0,0.0,0.0,0.0,0.0,0.0,0.0,0.0,0.0,0.0,0.0,0.0,0.0,0.0,0.0,0.0,0.0,0.0,0.0,0.0,0.0,0.0,0.0,0.0,0.0,0.0,0.0,0.0,0.0,0.0,0.0,0.0,0.0,0.0,0.0,0.0,0.0,0.0,0.0,0.0,0.0,0.0,0.0,0.0,0.0,0.0,0.0,0.0,0.0,0.0,0.0,0.0,0.0,0.0,0.0,0.0,0.0,0.0,0.0,0.0,0.0,0.0,0.0,0.0,0.0,0.0,0.0,0.0,0.0,0.0,0.0,0.0,0.0,0.0,0.0,0.0,0.0,0.0,0.0,0.0,0.0,0.0,0.0,0.0,0.0,0.0,0.0,0.0,0.0,0.0,0.0,0.0,0.0,0.0,0.0,0.0,0.0,0.0,0.0,0.0,0.0,0.0,0.0,0.0,0.0,0.0,0.0,0.0,0.0,0.0,0.0,0.0,0.0,0.0,0.0,0.0,0.0,0.0,0.0,0.0,0.0,0.0,0.0,0.0,0.0,0.0,0.0,0.0,0.0,0.0,0.0,0.0,0.0,0.0,0.0,0.0,0.0,0.0,0.0,0.0,0.0,0.0,0.0,0.0,0.0,0.0,0.0,0.0,0.0,0.0,0.0,0.0,0.0,0.0,0.0,0.0,0.0,0.0,0.0,0.0,0.0,0.0,0.0,0.0,0.0,0.0,0.0,0.0,0.0,0.0,0.0,0.0,0.0,0.0,0.0,0.0,0.0,0.0,0.0,0.0,0.0,0.0,0.0,0.0,0.0,0.0,0.0,0.0,0.0,0.0,0.0,0.0,0.0,0.0,0.0,0.0,0.0,0.0,0.0,0.0,0.0,0.0,0.0,0.0,0.0,0.0,0.0,0.0,0.0,0.0,0.0,0.0,0.0,0.0,0.0,0.0,0.0,0.0,0.0,0.0,0.0,0.0,0.0,0.0,0.0,0.0,0.0,0.0,0.0,0.0,0.0,0.0,0.0,0.0,0.0,0.0,0.0,0.0,0.0,0.0,0.0,0.0,0.0,0.0,0.0,0.0,0.0,0.0,0.0,0.0,0.0,0.0,0.0,0.0,0.0,0.0,0.0,0.0,0.0,0.0,0.0,0.0,0.0,0.0,0.0,0.0,0.0,0.0,0.0,0.0,0.0,0.0,0.0,0.0,0.0,0.0,0.0,0.0,0.0,0.0,0.0,0.0,0.0,0.0,0.0,0.0,0.0,0.0,0.0,0.0,0.0,0.0,0.0,0.0,0.0,0.0,0.0,0.0,0.0,0.0,0.0,0.0,0.0,0.0,0.0,0.0,0.0,0.0,0.0,0.0,0.0,0.0,0.0,0.0,0.0,0.0,0.0,0.0,0.0,0.0,0.0,0.0,0.0,0.0,0.0,0.0,0.0,0.0,0.0,0.0,0.0,0.0,0.0,0.0,0.0,0.0,0.0,0.0,0.0,0.0,0.0,0.0,0.0,0.0,0.0,0.0,0.0,0.0,0.0,0.0,0.0,0.0,0.0,0.0,0.0,0.0,0.0,0.0,0.0,0.0,0.0,0.0,0.0,0.0,0.0,0.0,0.0,0.0,0.0,0.0,0.0,0.0,0.0,0.0,0.0,0.0,0.0,0.0,0.0,0.0,0.0,0.0,0.0,0.0,0.0,0.0,0.0,0.0,0.0,0.0,0.0,0.0,0.0,0.0,0.0,0.0,0.0,0.0,0.0,0.0,0.0,0.0,0.0,0.0,0.0,0.0,0.0,0.0,0.0,0.0,0.0,0.0,0.0,0.0,0.0,0.0,0.0,0.0,0.0,0.0,0.0,0.0,0.0,0.0,0.0,0.0,0.0,0.0,0.0,0.0,0.0,0.0,0.0,0.0,0.0,0.0,0.0,0.0,0.0,0.0,0.0,0.0,0.0,0.0,0.0,0.0,0.0,0.0,0.0,0.0,0.0,0.0,0.0,0.0,0.0,0.0,0.0,0.0,0.0,0.0,0.0,0.0,0.0,0.0,0.0,0.0,0.0,0.0,0.0,0.0,0.0,0.0,0.0,0.0,0.0,0.0,0.0,0.0,0.0,0.0,0.0,0.0,0.0,0.0,0.0,0.0,0.0,0.0,0.0,0.0,0.0,0.0,0.0,0.0,0.0,0.0,0.0,0.0,0.0,0.0,0.0,0.0,0.0,0.0,0.0,0.0,0.0,0.0,0.0,0.0,0.0,0.0,0.0,0.0,0.0,0.0,0.0,0.0,0.0,0.0,0.0,0.0,0.0,0.0,0.0,0.0,0.0,0.0,0.0,0.0,0.0,0.0,0.0,0.0,0.0,0.0,0.0,0.0,0.0,0.0,0.0,0.0,0.0,0.0,0.0,0.0,0.0,0.0,0.0,0.0,0.0,0.0,0.0,0.0,0.0,0.0,0.0,0.0,0.0,0.0,0.0,0.0,0.0,0.0,0.0,0.0,0.0,0.0,0.0,0.0,0.0,0.0,0.0,0.0,0.0,0.0,0.0,0.0,0.0,0.0,0.0,0.0,0.0,0.0,0.0,0.0,0.0,0.0,0.0,0.0,0.0,0.0,0.0,0.0,0.0,0.0,0.0,0.0,0.0,0.0,0.0,0.0,0.0,0.0,0.0,0.0,0.0,0.0,0.0,0.0,0.0,0.0,0.0,0.0,0.0,0.0,0.0,0.0,0.0,0.0,0.0,0.0,0.0,0.0,0.0,0.0,0.0,0.0,0.0,0.0,0.0,0.0,0.0,0.0,0.0,0.0,0.0,0.0,0.0,0.0,0.0,0.0,0.0,0.0,0.0,0.0,0.0,0.0,0.0,0.0,0.0,0.0,0.0,0.0,0.0,0.0,0.0,0.0,0.0,0.0,0.0,0.0,0.0,0.0,0.0,0.0,0.0,0.0,0.0,0.0,0.0,0.0,0.0,0.0,0.0,0.0,0.0,0.0,0.0,0.0,0.0,0.0,0.0,0.0,0.0,0.0,0.0,0.0,0.0,0.0,0.0,0.0,0.0,0.0,0.0,0.0,0.0,0.0,0.0,0.0,0.0,0.0,0.0,0.0,0.0,0.0,0.0,0.0,0.0,0.0,0.0,0.0,0.0,0.0,0.0,0.0,0.0,0.0,0.0,0.0,0.0,0.0,0.0,0.0,0.0,0.0,0.0,0.0,0.0,0.0,0.0,0.0,0.0,0.0,0.0,0.0,0.0,0.0,0.0,0.0,0.0,0.0,0.0,0.0,0.0,0.0,0.0,0.0,0.0,0.0,0.0,0.0,0.0,0.0,0.0,0.0,0.0,0.0,0.0,0.0,0.0,0.0,0.0,0.0,0.0,0.0,0.0,0.0,0.0,0.0,0.5111,0.0,0.0,0.0,0.0,0.0,0.0,0.0,0.0,0.0,0.0,0.0,0.0,0.0,0.0,0.0,0.0,0.0,0.0,0.0,0.0,0.0,0.0,0.0,0.0,0.0,0.0,0.0,0.0,0.0,0.0,0.0,0.0,0.0,0.0,0.0,0.0,0.0,0.0,0.0,0.0,0.0,0.0,0.0,0.0,0.0,0.0,0.0,0.0,0.0,0.0,0.0,0.0,0.0,0.0,0.0,0.0,0.0,0.0,0.0,0.0,0.0,0.0,0.0,0.0,0.0,0.0,0.0,0.0,0.0,0.0,0.0,0.0,0.0,0.0,0.0,0.0,0.0,0.0,0.0,0.0,0.0,0.0,0.0,0.0,0.0,0.0,0.0,0.0,0.0,0.0,0.0,0.0,0.0,0.0,0.0,0.0,0.0,0.0,0.0,0.0,0.0,0.0,0.0,0.0,0.0,0.0,0.0,0.0,0.0,0.0,0.5066,0.508,0.5111,0.5104,0.51,0.0,0.0,0.0,0.0,0.0,0.0,0.0,0.0,0.0,0.0,0.0,0.0,0.0,0.0,0.0,0.0,0.0,0.0,0.0,0.0,0.0,0.0,0.0,0.0,0.0,0.0,0.0,0.0,0.0,0.0,0.0,0.0,0.0,0.0,0.0,0.0,0.0,0.0,0.0,0.0,0.0,0.0,0.0,0.0,0.0,0.0,0.0,0.0,0.0,0.0,0.0,0.0,0.0,0.0,0.0,0.0,0.0,0.0,0.0,0.0,0.0,0.0,0.0,0.0,0.0,0.0,0.0,0.0,0.0,0.0,0.0,0.0,0.0,0.0,0.0,0.0,0.0,0.0,0.0,0.0,0.0,0.0,0.0,0.0,0.0,0.0,0.0,0.0,0.0,0.0,0.0,0.0,0.0,0.0,0.0,0.0,0.0,0.0,0.0,0.0,0.0,0.0,0.0,0.0,0.0,0.0,0.0,0.0,0.0,0.0,0.0,0.0,0.5109,0.51,0.5098,0.0,0.0,0.0,0.0,0.0,0.0,0.0,0.0,0.0,0.0,0.0,0.0,0.0,0.0,0.0,0.0,0.0,0.0,0.0,0.0,0.0,0.0,0.0,0.0,0.0,0.0,0.0,0.0,0.0,0.0,0.0,0.0,0.0,0.0,0.0,0.0,0.0,0.0,0.0,0.0,0.0,0.0,0.0,0.0,0.0,0.0,0.0,0.0,0.0,0.0,0.0,0.0,0.0,0.0,0.0,0.0,0.0,0.0,0.0,0.0,0.0,0.0,0.0,0.0,0.0,0.0,0.0,0.0,0.0,0.0,0.0,0.0,0.0,0.0,0.0,0.0,0.0,0.0,0.0,0.0,0.0,0.0,0.0,0.0,0.0,0.0,0.0,0.0,0.0,0.0,0.0,0.0,0.0,0.0,0.0,0.0,0.0,0.0,0.0,0.0,0.0,0.0,0.0,0.0,0.0,0.0,0.0,0.0,0.0,0.0,0.5093,0.5082,0.508,0.0,0.5106,0.0,0.0,0.0,0.0,0.0,0.0,0.0,0.0,0.0,0.0,0.0,0.0,0.0,0.0,0.0,0.0,0.0,0.0,0.0,0.0,0.0,0.0,0.0,0.0,0.0,0.0,0.0,0.0,0.0,0.0,0.0,0.0,0.0,0.0,0.0,0.0,0.0,0.0,0.0,0.0,0.0,0.0,0.0,0.0,0.0,0.0,0.0,0.0,0.0,0.0,0.0,0.0,0.0,0.0,0.0,0.0,0.0,0.0,0.0,0.0,0.0,0.0,0.0,0.0,0.0,0.0,0.0,0.0,0.0,0.0,0.0,0.0,0.0,0.0,0.0,0.0,0.0,0.0,0.0,0.0,0.0,0.0,0.0,0.0,0.0,0.0,0.0,0.0,0.0,0.0,0.0,0.0,0.0,0.0,0.0,0.0,0.0,0.0,0.0,0.0,0.0,0.0,0.0,0.0,0.0,0.0,0.0,0.0,0.0,0.0,0.5096,0.5082,0.508,0.5078,0.0,0.0,0.0,0.0,0.0,0.0,0.0,0.0,0.0,0.0,0.0,0.0,0.0,0.0,0.0,0.0,0.0,0.0,0.0,0.0,0.0,0.0,0.0,0.0,0.0,0.0,0.0,0.0,0.0,0.0,0.0,0.0,0.0,0.0,0.0,0.0,0.0,0.0,0.0,0.0,0.0,0.0,0.0,0.0,0.0,0.0,0.0,0.0,0.0,0.0,0.0,0.0,0.0,0.0,0.0,0.0,0.0,0.0,0.0,0.0,0.0,0.0,0.0,0.0,0.0,0.0,0.0,0.0,0.0,0.0,0.0,0.0,0.0,0.0,0.0,0.0,0.0,0.0,0.0,0.0,0.0,0.0,0.0,0.0,0.0,0.0,0.0,0.0,0.0,0.0,0.0,0.0,0.0,0.0,0.0,0.0,0.0,0.0,0.0,0.0,0.0,0.0,0.0,0.0,0.0,0.0,0.0,0.0,0.0,0.0,0.5105,0.5102,0.5094,0.5091,0.5087,0.5082,0.0,0.0,0.0,0.0,0.0,0.0,0.0,0.0,0.0,0.0,0.0,0.0,0.0,0.0,0.0,0.0,0.0,0.0,0.0,0.0,0.0,0.0,0.0,0.0,0.0,0.0,0.0,0.0,0.0,0.0,0.0,0.0,0.0,0.0,0.0,0.0,0.0,0.0,0.0,0.0,0.0,0.0,0.0,0.0,0.0,0.0,0.0,0.0,0.0,0.0,0.0,0.0,0.0,0.0,0.0,0.0,0.0,0.0,0.0,0.0,0.0,0.0,0.0,0.0,0.0,0.0,0.0,0.0,0.0,0.0,0.0,0.0,0.0,0.0,0.0,0.0,0.0,0.0,0.0,0.0,0.0,0.0,0.0,0.0,0.0,0.0,0.0,0.0,0.0,0.0,0.0,0.0,0.0,0.0,0.0,0.0,0.0,0.0,0.0,0.0,0.0,0.0,0.0,0.0,0.0,0.0,0.0,0.0,0.0,0.5113,0.5112,0.5112,0.5106,0.5102,0.0,0.0,0.0,0.0,0.0,0.0,0.0,0.0,0.0,0.0,0.0,0.0,0.0,0.0,0.0,0.0,0.0,0.0,0.0,0.0,0.0,0.0,0.0,0.0,0.0,0.0,0.0,0.0,0.0,0.0,0.0,0.0,0.0,0.0,0.0,0.0,0.0,0.0,0.0,0.0,0.0,0.0,0.0,0.0,0.0,0.0,0.0,0.0,0.0,0.0,0.0,0.0,0.0,0.0,0.0,0.0,0.0,0.0,0.0,0.0,0.0,0.0,0.0,0.0,0.0,0.0,0.0,0.0,0.0,0.0,0.0,0.0,0.0,0.0,0.0,0.0,0.0,0.0,0.0,0.0,0.0,0.0,0.0,0.0,0.0,0.0,0.0,0.0,0.0,0.0,0.0,0.0,0.0,0.0,0.0,0.0,0.0,0.0,0.0,0.0,0.0,0.0,0.0,0.0,0.0,0.0,0.0,0.0,0.0,0.5078,0.5115,0.5114,0.5077,0.5113,0.511,0.0,0.0,0.0,0.0,0.0,0.0,0.0,0.0,0.0,0.0,0.0,0.0,0.0,0.0,0.0,0.0,0.0,0.0,0.0,0.0,0.0,0.0,0.0,0.0,0.0,0.0,0.0,0.0,0.0,0.0,0.0,0.0,0.0,0.0,0.0,0.0,0.0,0.0,0.0,0.0,0.0,0.0,0.0,0.0,0.0,0.0,0.0,0.0,0.0,0.0,0.0,0.0,0.0,0.0,0.0,0.0,0.0,0.0,0.0,0.0,0.0,0.0,0.0,0.0,0.0,0.0,0.0,0.0,0.0,0.0,0.0,0.0,0.0,0.0,0.0,0.0,0.0,0.0,0.0,0.0,0.0,0.0,0.0,0.0,0.0,0.0,0.0,0.0,0.0,0.0,0.0,0.0,0.0,0.0,0.0,0.0,0.0,0.0,0.0,0.0,0.0,0.0,0.0,0.0,0.0,0.0,0.0,0.0,0.0,0.5078,0.0,0.5116,0.0,0.5115,0.5113,0.0,0.0,0.0,0.0,0.0,0.0,0.0,0.0,0.0,0.0,0.0,0.0,0.0,0.0,0.0,0.0,0.0,0.0,0.0,0.0,0.0,0.0,0.0,0.0,0.0,0.0,0.0,0.0,0.0,0.0,0.0,0.0,0.0,0.0,0.0,0.0,0.0,0.0,0.0,0.0,0.0,0.0,0.0,0.0,0.0,0.0,0.0,0.0,0.0,0.0,0.0,0.0,0.0,0.0,0.0,0.0,0.0,0.0,0.0,0.0,0.0,0.0,0.0,0.0,0.0,0.0,0.0,0.0,0.0,0.0,0.0,0.0,0.0,0.0,0.0,0.0,0.0,0.0,0.0,0.0,0.0,0.0,0.0,0.0,0.0,0.0,0.0,0.0,0.0,0.0,0.0,0.0,0.0,0.0,0.0,0.0,0.0,0.0,0.0,0.0,0.0,0.0,0.0,0.0,0.0,0.0,0.0,0.0,0.5077,0.5078,0.5156,0.5195,0.5114,0.5153,0.5113,0.0,0.0,0.0,0.0,0.0,0.0,0.0,0.0,0.0,0.0,0.0,0.0,0.0,0.0,0.0,0.0,0.0,0.0,0.0,0.0,0.0,0.0,0.0,0.0,0.0,0.0,0.0,0.0,0.0,0.0,0.0,0.0,0.0,0.0,0.0,0.0,0.0,0.0,0.0,0.0,0.0,0.0,0.0,0.0,0.0,0.0,0.0,0.0,0.0,0.0,0.0,0.0,0.0,0.0,0.0,0.0,0.0,0.0,0.0,0.0,0.0,0.0,0.0,0.0,0.0,0.0,0.0,0.0,0.0,0.0,0.0,0.0,0.0,0.0,0.0,0.0,0.0,0.0,0.0,0.0,0.0,0.0,0.0,0.0,0.0,0.0,0.0,0.0,0.0,0.0,0.0,0.0,0.0,0.0,0.0,0.0,0.0,0.0,0.0,0.0,0.0,0.0,0.0,0.0,0.0,0.0,0.0,0.0,0.0,0.5113,0.6286,0.66,0.6015,0.6016,0.6015,0.0,0.0,0.0,0.0,0.0,0.0,0.0,0.0,0.0,0.0,0.0,0.0,0.0,0.0,0.0,0.0,0.0,0.0,0.0,0.0,0.0,0.0,0.0,0.0,0.0,0.0,0.0,0.0,0.0,0.0,0.0,0.0,0.0,0.0,0.0,0.0,0.0,0.0,0.0,0.0,0.0,0.0,0.0,0.0,0.0,0.0,0.0,0.0,0.0,0.0,0.0,0.0,0.0,0.0,0.0,0.0,0.0,0.0,0.0,0.0,0.0,0.0,0.0,0.0,0.0,0.0,0.0,0.0,0.0,0.0,0.0,0.0,0.0,0.0,0.0,0.0,0.0,0.0,0.0,0.0,0.0,0.0,0.0,0.0,0.0,0.0,0.0,0.0,0.0,0.0,0.0,0.0,0.0,0.0,0.0,0.0,0.0,0.0,0.0,0.0,0.0,0.0,0.0,0.0,0.0,0.0,0.0,0.0,0.0,0.561,0.632,0.648,0.5935,0.5937,0.5898,0.5898,0.0,0.0,0.0,0.0,0.0,0.0,0.0,0.0,0.0,0.0,0.0,0.0,0.0,0.0,0.0,0.0,0.0,0.0,0.0,0.0,0.0,0.0,0.0,0.0,0.0,0.0,0.0,0.0,0.0,0.0,0.0,0.0,0.0,0.0,0.0,0.0,0.0,0.0,0.0,0.0,0.0,0.0,0.0,0.0,0.0,0.0,0.0,0.0,0.0,0.0,0.0,0.0,0.0,0.0,0.0,0.0,0.0,0.0,0.0,0.0,0.0,0.0,0.0,0.0,0.0,0.0,0.0,0.0,0.0,0.0,0.0,0.0,0.0,0.0,0.0,0.0,0.0,0.0,0.0,0.0,0.0,0.0,0.0,0.0,0.0,0.0,0.0,0.0,0.0,0.0,0.0,0.0,0.0,0.0,0.0,0.0,0.0,0.0,0.0,0.0,0.0,0.0,0.0,0.0,0.0,0.0,0.0,0.0,0.6495,0.5652,0.5308,0.5311,0.5312,0.5234,0.0,0.0,0.0,0.0,0.0,0.0,0.0,0.0,0.0,0.0,0.0,0.0,0.0,0.0,0.0,0.0,0.0,0.0,0.0,0.0,0.0,0.0,0.0,0.0,0.0,0.0,0.0,0.0,0.0,0.0,0.0,0.0,0.0,0.0,0.0,0.0,0.0,0.0,0.0,0.0,0.0,0.0,0.0,0.0,0.0,0.0,0.0,0.0,0.0,0.0,0.0,0.0,0.0,0.0,0.0,0.0,0.0,0.0,0.0,0.0,0.0,0.0,0.0,0.0,0.0,0.0,0.0,0.0,0.0,0.0,0.0,0.0,0.0,0.0,0.0,0.0,0.0,0.0,0.0,0.0,0.0,0.0,0.0,0.0,0.0,0.0,0.0,0.0,0.0,0.0,0.0,0.0,0.0,0.0,0.0,0.0,0.0,0.0,0.0,0.0,0.0,0.0,0.0,0.0,0.0,0.0,0.0,0.0,0.0,0.7307,0.7156,0.7008,0.702,0.7028,0.6719,0.0,0.0,0.0,0.0,0.0,0.0,0.0,0.0,0.0,0.0,0.0,0.0,0.0,0.0,0.0,0.0,0.0,0.0,0.0,0.0,0.0,0.0,0.0,0.0,0.0,0.0,0.0,0.0,0.0,0.0,0.0,0.0,0.0,0.0,0.0,0.0,0.0,0.0,0.0,0.0,0.0,0.0,0.0,0.0,0.0,0.0,0.0,0.0,0.0,0.0,0.0,0.0,0.0,0.0,0.0,0.0,0.0,0.0,0.0,0.0,0.0,0.0,0.0,0.0,0.0,0.0,0.0,0.0,0.0,0.0,0.0,0.0,0.0,0.0,0.0,0.0,0.0,0.0,0.0,0.0,0.0,0.0,0.0,0.0,0.0,0.0,0.0,0.0,0.0,0.0,0.0,0.0,0.0,0.0,0.0,0.0,0.0,0.0,0.0,0.0,0.0,0.0,0.0,0.0,0.0,0.0,0.0,0.0,0.7383,0.8243,0.7893,0.7705,0.7682,0.7692,0.7109,0.0,0.0,0.0,0.0,0.0,0.0,0.0,0.0,0.0,0.0,0.0,0.0,0.0,0.0,0.0,0.0,0.0,0.0,0.0,0.0,0.0,0.0,0.0,0.0,0.0,0.0,0.0,0.0,0.0,0.0,0.0,0.0,0.0,0.0,0.0,0.0,0.0,0.0,0.0,0.0,0.0,0.0,0.0,0.0,0.0,0.0,0.0,0.0,0.0,0.0,0.0,0.0,0.0,0.0,0.0,0.0,0.0,0.0,0.0,0.0,0.0,0.0,0.0,0.0,0.0,0.0,0.0,0.0,0.0,0.0,0.0,0.0,0.0,0.0,0.0,0.0,0.0,0.0,0.0,0.0,0.0,0.0,0.0,0.0,0.0,0.0,0.0,0.0,0.0,0.0,0.0,0.0,0.0,0.0,0.0,0.0,0.0,0.0,0.0,0.0,0.0,0.0,0.0,0.0,0.0,0.0,0.0,0.0,0.8089,0.8833,0.8289,0.7905,0.7724,0.7693,0.6953,0.0,0.0,0.0,0.0,0.0,0.0,0.0,0.0,0.0,0.0,0.0,0.0,0.0,0.0,0.0,0.0,0.0,0.0,0.0,0.0,0.0,0.0,0.0,0.0,0.0,0.0,0.0,0.0,0.0,0.0,0.0,0.0,0.0,0.0,0.0,0.0,0.0,0.0,0.0,0.0,0.0,0.0,0.0,0.0,0.0,0.0,0.0,0.0,0.0,0.0,0.0,0.0,0.0,0.0,0.0,0.0,0.0,0.0,0.0,0.0,0.0,0.0,0.0,0.0,0.0,0.0,0.0,0.0,0.0,0.0,0.0,0.0,0.0,0.0,0.0,0.0,0.0,0.0,0.0,0.0,0.0,0.0,0.0,0.0,0.0,0.0,0.0,0.0,0.0,0.0,0.0,0.0,0.0,0.0,0.0,0.0,0.0,0.0,0.0,0.0,0.0,0.0,0.0,0.0,0.0,0.0,0.0,0.0,0.7788,0.7988,0.9156,0.9082,0.7724,0.7694,0.7226,0.0,0.0,0.0,0.0,0.0,0.0,0.0,0.0,0.0,0.0,0.0,0.0,0.0,0.0,0.0,0.0,0.0,0.0,0.0,0.0,0.0,0.0,0.0,0.0,0.0,0.0,0.0,0.0,0.0,0.0,0.0,0.0,0.0,0.0,0.0,0.0,0.0,0.0,0.0,0.0,0.0,0.0,0.0,0.0,0.0,0.0,0.0,0.0,0.4016,0.0,0.0,0.0,0.0,0.0,0.0,0.0,0.0,0.0,0.0,0.0,0.0,0.0,0.0,0.0,0.0,0.0,0.0,0.0,0.0,0.0,0.0,0.0,0.0,0.0,0.0,0.0,0.0,0.0,0.0,0.0,0.0,0.0,0.0,0.0,0.0,0.0,0.0,0.0,0.0,0.0,0.0,0.0,0.0,0.0,0.0,0.0,0.0,0.0,0.0,0.0,0.0,0.0,0.0,0.0,0.0,0.0,0.0,0.0,0.8495,0.8932,0.9828,0.9638,0.8356,0.793,0.7108,0.0,0.0,0.0,0.0,0.0,0.0,0.0,0.0,0.0,0.0,0.0,0.0,0.0,0.0,0.0,0.0,0.0,0.0,0.0,0.0,0.0,0.0,0.0,0.0,0.0,0.0,0.0,0.0,0.0,0.0,0.0,0.0,0.0,0.0,0.0,0.0,0.0,0.0,0.0,0.0,0.0,0.0,0.0,0.0,0.0,0.0,0.0,0.0,0.0,0.0,0.0,0.0,0.0,0.0,0.0,0.0,0.0,0.0,0.0,0.0,0.0,0.0,0.0,0.0,0.0,0.0,0.0,0.0,0.0,0.0,0.0,0.0,0.0,0.0,0.0,0.0,0.0,0.0,0.0,0.0,0.0,0.0,0.0,0.0,0.0,0.0,0.0,0.0,0.0,0.0,0.0,0.0,0.0,0.0,0.0,0.0,0.0,0.0,0.0,0.0,0.0,0.0,0.0,0.0,0.0,0.0,0.0,0.8339,0.9238,1.0066,1.0226,0.9879,0.9023,0.8163,0.7029,0.5583,0.0,0.0,0.0,0.0,0.0,0.0,0.0,0.0,0.0,0.0,0.0,0.0,0.0,0.0,0.0,0.0,0.0,0.0,0.0,0.0,0.0,0.0,0.0,0.0,0.0,0.0,0.0,0.0,0.0,0.0,0.0,0.0,0.0,0.0,0.0,0.0,0.0,0.0,0.3761,0.4655,0.0,0.0,0.0,0.0,0.0,0.0,0.0,0.0,0.4667,0.0,0.0,0.0,0.0,0.0,0.0,0.0,0.0,0.0,0.0,0.0,0.0,0.0,0.0,0.0,0.0,0.0,0.0,0.0,0.0,0.0,0.0,0.0,0.0,0.0,0.0,0.0,0.0,0.0,0.0,0.0,0.0,0.0,0.0,0.0,0.0,0.0,0.0,0.0,0.0,0.0,0.0,0.0,0.0,0.0,0.0,0.0,0.0,0.0,0.0,0.0,0.0,0.0,0.0,0.0,0.0,0.6632,0.7489,0.8349,0.9173,0.9954,0.9877,0.902,0.8164,0.7578,0.7225,0.0,0.0,0.0,0.0,0.0,0.0,0.0,0.0,0.0,0.0,0.0,0.0,0.0,0.0,0.0,0.0,0.0,0.0,0.0,0.0,0.0,0.0,0.0,0.0,0.0,0.0,0.0,0.0,0.0,0.0,0.0,0.0,0.0,0.0,0.0,0.0,0.0,0.0,0.0,0.5555,0.6341,0.0,0.0,0.0,0.0,0.0,0.0,0.0,0.0,0.4114,0.0,0.0,0.0,0.0,0.0,0.0,0.0,0.0,0.0,0.0,0.0,0.0,0.0,0.0,0.0,0.0,0.0,0.0,0.0,0.0,0.0,0.0,0.0,0.0,0.0,0.0,0.0,0.0,0.0,0.0,0.0,0.0,0.0,0.0,0.0,0.0,0.0,0.0,0.0,0.0,0.0,0.0,0.0,0.0,0.0,0.0,0.0,0.0,0.0,0.0,0.0,0.0,0.0,0.0,0.0,0.7025,0.7492,0.8352,0.9642,1.0074,1.0115,0.9648,0.8398,0.7691,0.0,0.0,0.0,0.0,0.0,0.0,0.0,0.0,0.0,0.0,0.0,0.0,0.0,0.0,0.0,0.0,0.0,0.0,0.0,0.0,0.0,0.0,0.0,0.0,0.0,0.0,0.0,0.0,0.0,0.0,0.0,0.0,0.0,0.0,0.0,0.0,0.0,0.0,0.0,0.0,0.5909,0.663,0.5736,0.0,0.0,0.0,0.0,0.0,0.0,0.4639,0.503,0.0,0.0,0.0,0.0,0.0,0.0,0.0,0.0,0.0,0.0,0.0,0.0,0.0,0.0,0.0,0.0,0.0,0.0,0.0,0.0,0.0,0.0,0.0,0.0,0.0,0.0,0.0,0.0,0.0,0.0,0.0,0.0,0.0,0.0,0.0,0.0,0.0,0.0,0.0,0.0,0.0,0.0,0.0,0.0,0.0,0.0,0.0,0.0,0.0,0.0,0.0,0.0,0.0,0.0,0.0,0.7611,0.7689,0.8548,1.0228,1.031,1.0312,1.0273,0.8629,0.7764,0.0,0.0,0.0,0.0,0.0,0.0,0.0,0.0,0.0,0.0,0.0,0.0,0.0,0.0,0.0,0.0,0.0,0.0,0.0,0.0,0.0,0.0,0.0,0.0,0.0,0.0,0.0,0.0,0.0,0.0,0.0,0.0,0.0,0.0,0.0,0.0,0.0,0.0,0.0,0.0,0.0,0.6847,0.6381,0.666,0.0,0.0,0.0,0.0,0.5079,0.5818,0.0,0.0,0.0,0.0,0.0,0.0,0.0,0.0,0.0,0.0,0.0,0.0,0.0,0.0,0.0,0.0,0.0,0.0,0.0,0.0,0.0,0.0,0.0,0.0,0.0,0.0,0.0,0.0,0.0,0.0,0.0,0.0,0.0,0.0,0.0,0.0,0.0,0.0,0.0,0.0,0.0,0.0,0.0,0.0,0.0,0.0,0.0,0.0,0.0,0.0,0.0,0.0,0.0,0.0,0.0,0.0,0.7611,0.7689,0.8549,1.0191,1.0309,1.031,1.0311,0.8594,0.8085,0.0,0.0,0.0,0.0,0.0,0.0,0.0,0.0,0.0,0.0,0.0,0.0,0.0,0.0,0.0,0.0,0.0,0.0,0.0,0.0,0.0,0.0,0.0,0.0,0.0,0.0,0.0,0.0,0.0,0.0,0.0,0.0,0.0,0.0,0.0,0.0,0.0,0.0,0.0,0.0,0.0,0.7664,0.708,0.6946,0.7346,0.0,0.0,0.6999,0.7554,0.777,0.0,0.0,0.0,0.0,0.0,0.0,0.0,0.0,0.0,0.0,0.0,0.0,0.0,0.0,0.0,0.0,0.0,0.0,0.0,0.0,0.0,0.0,0.0,0.0,0.0,0.0,0.0,0.0,0.0,0.0,0.0,0.0,0.0,0.0,0.0,0.0,0.0,0.0,0.0,0.0,0.0,0.0,0.0,0.0,0.0,0.0,0.0,0.0,0.0,0.0,0.0,0.0,0.0,0.0,0.0,0.5975,0.7615,0.7693,0.8552,1.0231,1.031,1.0311,1.0312,0.8593,0.7887,0.0,0.0,0.0,0.0,0.0,0.0,0.0,0.0,0.0,0.0,0.0,0.0,0.0,0.0,0.0,0.0,0.0,0.0,0.0,0.0,0.0,0.0,0.0,0.0,0.0,0.0,0.0,0.0,0.0,0.0,0.0,0.0,0.0,0.0,0.0,0.0,0.0,0.0,0.0,0.0,0.0,0.0,0.7616,0.7935,0.0,0.0,0.0,0.8333,0.8123,0.0,0.0,0.0,0.0,0.0,0.0,0.0,0.0,0.0,0.0,0.0,0.0,0.0,0.0,0.0,0.0,0.0,0.0,0.0,0.0,0.0,0.0,0.0,0.0,0.0,0.0,0.0,0.0,0.0,0.0,0.0,0.0,0.0,0.0,0.0,0.0,0.0,0.0,0.0,0.0,0.0,0.0,0.0,0.0,0.0,0.0,0.0,0.0,0.0,0.0,0.0,0.0,0.0,0.0,0.0,0.0,0.0,0.7656,0.7695,0.8554,1.0233,1.0311,1.0312,1.0273,0.8591,0.0,0.0,0.0,0.0,0.0,0.0,0.0,0.0,0.0,0.0,0.0,0.0,0.0,0.0,0.0,0.0,0.0,0.0,0.0,0.0,0.0,0.0,0.0,0.0,0.0,0.0,0.0,0.2919,0.0,0.0,0.0,0.0,0.0,0.0,0.0,0.0,0.0,0.0,0.0,0.0,0.0,0.0,0.8032,0.8285,0.8743,0.8958,0.0,0.0,0.939,0.8879,0.8387,0.8096,0.0,0.0,0.0,0.0,0.0,0.0,0.0,0.0,0.0,0.0,0.0,0.0,0.0,0.0,0.0,0.0,0.0,0.0,0.0,0.0,0.0,0.0,0.0,0.0,0.0,0.0,0.0,0.0,0.0,0.0,0.0,0.0,0.0,0.0,0.0,0.0,0.0,0.0,0.0,0.0,0.0,0.0,0.0,0.0,0.0,0.0,0.0,0.0,0.0,0.0,0.0,0.0,0.0,0.0,0.0,0.7617,0.7695,0.8554,1.0234,1.0312,1.0312,1.0273,0.8631,0.7691,0.0,0.0,0.0,0.0,0.0,0.0,0.0,0.0,0.0,0.0,0.0,0.0,0.0,0.0,0.0,0.0,0.0,0.0,0.0,0.0,0.0,0.0,0.0,0.0,0.0,0.0,0.0,0.0,0.0,0.0,0.0,0.0,0.0,0.0,0.0,0.0,0.0,0.0,0.0,0.0,0.0,0.8285,0.9124,0.905,0.9216,0.0,0.0,0.976,1.0585,0.922,0.8079,0.8096,0.0,0.0,0.0,0.0,0.0,0.0,0.0,0.0,0.0,0.0,0.0,0.0,0.0,0.0,0.0,0.0,0.0,0.0,0.0,0.0,0.0,0.0,0.0,0.0,0.0,0.0,0.0,0.0,0.0,0.0,0.0,0.0,0.0,0.0,0.0,0.0,0.0,0.0,0.0,0.0,0.0,0.0,0.0,0.0,0.0,0.0,0.0,0.0,0.0,0.0,0.0,0.0,0.0,0.5976,0.7656,0.7695,0.8555,1.0234,1.0312,1.0312,1.0312,0.8593,0.7926,0.0,0.0,0.0,0.0,0.0,0.0,0.0,0.0,0.0,0.0,0.0,0.0,0.0,0.0,0.0,0.0,0.0,0.0,0.0,0.0,0.0,0.0,0.0,0.0,0.0,0.0,0.0,0.0,0.4007,0.3993,0.403,0.0,0.0,0.0,0.0,0.0,0.0,0.0,0.0,0.0,0.0,0.8423,0.9587,0.9744,0.0,0.0,1.0856,1.1012,1.0232,0.8956,0.8079,0.8079,0.7704,0.0,0.0,0.0,0.0,0.0,0.0,0.0,0.0,0.0,0.0,0.0,0.0,0.0,0.0,0.0,0.0,0.0,0.0,0.0,0.0,0.0,0.0,0.0,0.0,0.0,0.0,0.0,0.0,0.0,0.0,0.0,0.0,0.0,0.0,0.0,0.0,0.0,0.0,0.0,0.0,0.0,0.0,0.0,0.0,0.0,0.0,0.0,0.0,0.0,0.0,0.0,0.0,0.6328,0.8047,0.8086,0.8789,1.0273,1.0312,1.0312,1.0273,0.8866,0.8238,0.0,0.0,0.0,0.0,0.0,0.0,0.0,0.0,0.0,0.0,0.0,0.0,0.0,0.0,0.0,0.0,0.0,0.0,0.0,0.0,0.0,0.0,0.0,0.0,0.0,0.0,0.0,0.0,0.4049,0.4087,0.4087,0.0,0.0,0.0,0.0,0.0,0.0,0.0,0.0,0.0,0.0,0.8544,0.9874,1.0162,1.0309,1.0544,1.1324,1.1543,1.0544,0.9793,0.9065,0.8233,0.0,0.0,0.0,0.0,0.0,0.0,0.0,0.0,0.0,0.0,0.0,0.0,0.0,0.0,0.0,0.0,0.0,0.0,0.0,0.0,0.0,0.0,0.0,0.0,0.0,0.0,0.0,0.0,0.0,0.0,0.7491,0.0,0.0,0.0,0.0,0.0,0.0,0.0,0.0,0.0,0.0,0.0,0.0,0.0,0.0,0.0,0.0,0.0,0.0,0.0,0.0,0.0,0.0,0.7227,0.8945,0.8945,0.9414,1.0273,1.0312,1.0312,1.0273,0.945,0.8586,0.7758,0.0,0.0,0.0,0.0,0.0,0.0,0.0,0.0,0.0,0.0,0.0,0.0,0.0,0.0,0.0,0.0,0.0,0.0,0.0,0.0,0.0,0.0,0.0,0.0,0.0,0.0,0.3986,0.4066,0.4087,0.0,0.0,0.0,0.0,0.0,0.0,0.0,0.0,0.0,0.0,0.8079,0.8617,1.001,1.0162,1.0391,1.1064,1.1014,1.1169,1.2022,1.2117,1.1224,0.0,0.0,0.0,0.0,0.0,0.0,0.0,0.0,0.0,0.0,0.0,0.0,0.0,0.0,0.0,0.0,0.0,0.0,0.0,0.0,0.0,0.0,0.0,0.0,0.0,0.0,0.0,0.8373,0.807,0.0,0.0,0.0,0.0,0.0,0.0,0.0,0.0,0.0,0.0,0.0,1.107,1.1104,0.0,0.0,0.0,0.0,0.0,0.0,0.0,0.0,0.0,0.0,0.0,0.0,0.7263,0.8904,0.9021,0.9412,1.0271,1.0312,1.0312,1.0272,0.9451,0.8314,0.6897,0.0,0.0,0.0,0.0,0.0,0.0,0.0,0.0,0.0,0.0,0.0,0.0,0.0,0.0,0.0,0.0,0.0,0.0,0.0,0.0,0.0,0.0,0.0,0.0,0.0,0.4111,0.0,0.0,0.0,0.0,0.0,0.0,0.0,0.0,0.0,0.0,0.0,0.7942,0.9265,0.9419,0.9758,1.0669,1.0774,1.0866,0.0,0.0,0.0,0.0,0.0,0.0,0.0,0.0,0.0,0.0,0.0,0.0,0.0,0.0,1.0519,0.9289,0.8345,0.6708,0.3423,0.0,0.0,0.0,0.0,0.0,0.0,0.0,0.0,0.0,0.0,0.0,0.0,0.0,0.0,1.0244,0.0,0.936,0.0,0.0,0.0,0.0,0.0,0.0,0.0,0.0,1.1393,1.1983,1.2771,1.2805,1.2619,0.0,1.1854,1.0732,0.0,0.0,0.0,0.0,0.0,0.0,0.0,0.0,0.8002,0.9372,0.945,0.9724,1.0273,1.0312,1.031,1.031,0.9449,0.8468,0.7367,0.7549,0.7027,0.0,0.0,0.0,0.0,0.0,0.0,0.0,0.0,0.0,0.0,0.0,0.0,0.0,0.0,0.0,0.0,0.0,0.0,0.0,0.0,0.0,0.0,0.0,0.4217,0.0,0.0,0.0,0.0,0.0,0.0,0.0,0.0,0.0,0.5467,0.6999,0.8847,1.0802,1.0492,1.036,1.1095,0.0,0.0,0.0,0.0,0.0,0.0,0.0,1.1891,1.1075,1.0878,1.0761,1.0599,1.1113,1.1536,1.1362,0.0,0.0,1.1107,1.0213,0.8832,0.6427,0.3713,0.0844,-0.1956,-0.2689,-0.2879,0.0,0.0,0.0,0.0,0.0,0.0,0.0,0.0,1.2367,1.2633,0.0,1.1745,0.0,0.0,0.0,0.0,0.0,0.0,0.0,0.0,1.3636,1.3675,1.2939,1.2903,1.2448,1.1766,1.329,1.318,1.1511,0.9094,0.0,0.0,0.0,0.0,0.0,0.0,0.9486,1.035,1.0428,1.039,1.0428,1.035,1.0349,1.0308,0.9483,0.9049,0.897,0.8123,0.7285,0.6471,0.6327,0.0,0.0,0.0,0.0,0.0,0.0,0.0,0.0,0.0,0.0,0.0,0.0,0.0,0.0,0.0,0.0,0.0,0.0,0.0,0.0,0.4279,0.0,0.0,0.0,0.0,0.0,0.0,0.0,0.0,0.0,0.0,0.8205,0.823,0.9295,1.2367,0.0,0.0,0.0,0.0,1.1389,1.2087,1.2394,1.2503,1.2549,1.2363,1.2022,1.1353,0.0,0.0,1.1323,1.1816,1.2073,1.153,1.2066,1.2626,1.2646,1.1911,1.1677,1.2639,0.6087,0.0252,-0.0307,-0.2037,-0.3418,1.5197,0.0,0.0,0.0,0.0,1.4062,1.4121,1.4917,1.3358,1.3028,1.3555,1.2692,0.0,0.0,0.0,0.0,0.0,0.0,1.3291,1.3683,1.3976,1.4257,1.4571,1.4571,1.4461,1.4315,1.4162,1.3856,1.3277,1.1371,1.0134,0.9559,0.0,0.0,0.0,0.0,1.1219,1.2012,1.206,1.2065,1.2068,1.1522,1.0932,1.0344,1.007,0.9637,0.901,0.872,0.8114,0.7274,0.6634,0.0,0.0,0.0,0.0,0.0,0.0,0.0,0.0,0.0,0.0,0.0,0.0,0.0,0.0,0.0,0.0,0.0,0.0,0.0,0.4402,0.4351,0.4545,0.0,0.0,0.0,0.0,0.0,0.0,0.0,0.0,0.0,1.1409,1.0408,1.0097,0.0,0.0,1.1862,1.1951,1.2042,1.2164,1.2403,0.0,0.0,0.0,1.262,1.2473,1.211,1.2095,1.2077,1.1942,1.2097,1.2159,1.2002,1.2167,1.2372,1.2607,1.2653,1.2769,1.2856,0.8752,0.3739,0.0354,-0.2115,-0.3584,1.822,1.6328,1.6253,1.6503,1.6849,1.5849,1.6021,1.6899,1.5345,1.5168,1.5927,1.5057,1.4705,1.4705,1.4362,0.0,0.0,0.0,1.4506,1.4965,1.4674,1.4803,1.5233,1.5272,1.5125,1.4868,1.4674,1.4409,1.4111,1.3376,1.2606,1.1803,0.0,0.0,1.0797,1.1248,1.1598,1.1811,1.2137,1.2299,1.2302,1.1835,1.1321,1.0852,1.0501,1.003,0.9559,0.9461,0.8859,0.7677,0.7444,0.6609,0.0,0.0,0.0,0.0,0.0,0.0,0.0,0.0,0.0,0.0,0.0,0.4659,0.4574,0.0,0.0,0.0,0.5582,0.6108,0.564,0.5965,0.0,0.0,0.0,0.0,0.0,0.0,0.0,0.7753,0.8072,0.9513,1.2807,1.2042,1.153,1.2536,1.262,1.2581,1.2562,0.0,1.2463,1.2443,1.2495,1.2503,1.251,1.2697,1.2646,1.222,1.2271,1.2291,1.2302,1.2383,1.2412,1.2412,1.2412,1.2431,1.2431,1.2735,1.3067,1.3295,1.1385,0.7842,0.2527,-0.0433,-0.2298,2.154,2.0098,1.8666,1.8028,1.7888,1.7856,1.7818,1.7818,1.7734,1.8126,1.8819,1.8042,1.7748,1.7729,1.6976,0.0,0.0,1.6601,1.6563,1.6563,1.5747,1.5361,1.5317,1.5317,1.4874,1.4123,1.4906,1.4927,1.4251,1.4875,1.4918,1.4257,1.2637,1.1752,1.1713,1.1706,1.1326,1.0644,1.1358,1.1716,1.168,1.1677,1.1673,1.1594,1.0813,1.0383,1.0305,1.0238,0.9481,0.8011,0.8411,0.7714,0.5687,0.0,0.0,0.0,0.0,0.0,0.0,0.0,0.0,0.0,0.0,0.0,0.0,0.0,0.0,0.0,0.7327,0.0,0.7427,0.8173,0.0,0.0,0.0,0.7146,0.5979,0.699,0.7499,0.6772,0.0,0.0,0.0,0.0,1.3156,1.3362,1.298,1.2778,1.3013,1.2754,1.2503,1.2483,1.2514,1.2522,1.2478,1.2684,1.2626,1.2045,1.2312,1.2562,1.2403,1.251,1.2703,1.2626,1.2716,1.2639,1.2272,1.2503,1.2885,1.3243,1.3278,1.1498,0.5866,0.2237,-0.0501,2.2085,2.1794,2.1438,2.0642,1.9619,1.8972,1.8665,1.8626,1.801,1.7818,1.801,1.7818,1.7689,1.772,1.7497,1.7413,1.7406,1.7401,1.742,1.7382,1.7258,1.6844,1.6221,1.6182,1.5752,1.4985,1.5168,1.5225,1.5,1.4597,1.4957,1.5893,1.4921,1.4108,1.3483,1.3483,1.3373,1.3194,1.337,1.3156,1.2538,1.2574,1.2298,1.1634,1.1399,1.0969,1.0344,1.0208,1.003,0.9589,0.8505,0.8191,0.8846,0.6674,0.0,0.0,0.0,0.0,0.0,0.0,0.0,0.0,0.0,0.6405,0.5908,0.0,0.5393,0.0,0.7303,0.8375,0.6572,0.6943,0.0,0.0,0.7539,0.8036,0.8703,0.9077,0.8965,0.8259,0.9806,1.1462,1.2919,1.31,1.3154,1.3226,1.3031,1.2815,1.2741,1.2848,1.2885,1.2899,1.288,1.2848,1.2767,1.2904,1.2848,1.2343,1.2323,1.2302,1.2179,1.2179,1.219,1.2282,1.2241,1.2179,1.2231,1.2282,1.2463,1.2792,1.3138,1.2245,0.8243,0.3688,0.0115,2.3086,2.2862,2.2862,2.2186,2.1196,2.0794,2.0425,2.0042,1.9581,1.9196,1.885,1.885,1.8842,1.8866,1.8866,1.8866,1.882,1.8458,1.8273,1.8273,1.7908,1.7491,1.7061,1.7023,1.6605,1.5769,1.5829,1.5632,1.528,1.4872,1.5122,1.6029,1.5209,1.474,1.4698,1.5041,1.4843,1.4111,1.3712,1.3465,1.3359,1.3045,1.2614,1.2146,1.2142,1.1554,1.0344,1.0601,1.0427,0.9673,0.9052,0.8425,0.7875,0.6982,0.6404,0.0,0.0,0.0,0.0,0.0,0.0,0.0,0.0,0.0,0.0,0.0,0.6854,0.0,0.6903,0.0,0.7372,0.7718,0.8013,0.8306,0.8964,0.9519,0.9908,1.0258,1.0286,0.9739,1.0402,1.1462,1.2886,1.3681,1.3999,1.3785,1.3894,1.3818,1.3497,1.37,1.393,1.389,1.3596,1.3404,1.3346,1.3023,1.2845,1.2895,1.2695,1.2451,1.2431,1.251,1.2588,1.262,1.2542,1.2443,1.2403,1.2262,1.2313,1.2542,1.2773,1.18,0.9121,0.6074,0.3469,2.4269,2.3693,2.3581,2.322,2.2716,2.2802,2.2401,2.1633,2.1641,2.1257,2.0619,2.0619,2.0619,2.0619,2.0504,2.0465,2.0389,1.9565,1.9173,1.9135,1.839,1.7999,1.7876,1.7876,1.7437,1.6663,1.6676,1.6221,1.5486,1.5451,1.5472,1.5502,1.4798,1.4873,1.5727,1.6412,1.59,1.4144,1.3247,1.3152,1.3903,1.3281,1.2967,1.2969,1.2846,1.2058,1.0577,1.1109,1.0824,0.9454,0.9828,0.8778,0.5884,0.7329,0.81,0.0,0.7997,0.0,0.0,0.0,0.0,0.0,0.0,0.0,0.0,0.7573,0.8465,0.9125,0.667,0.6159,0.8799,0.9279,0.9439,0.9361,1.0505,1.1054,1.0492,1.102,1.1383,1.1239,1.1257,1.1741,1.2953,1.4397,1.5093,1.4808,1.5073,1.5093,1.4608,1.4787,1.5014,1.5048,1.4498,1.4217,1.4405,1.3785,1.3273,1.3565,1.327,1.2894,1.2759,1.2962,1.3156,1.31,1.294,1.2829,1.2678,1.2403,1.2282,1.2435,1.2383,1.1668,0.9779,0.8611,0.6896,2.541,2.5204,2.4571,2.4297,2.4287,2.4279,2.3562,2.2401,2.2401,2.2384,2.235,2.2312,2.2321,2.2274,2.1581,2.1273,2.1235,2.0419,2.0035,2.0073,1.9881,1.945,1.8782,1.8743,1.8321,1.7507,1.7472,1.7074,1.6281,1.6275,1.6323,1.6366,1.6211,1.6574,1.7371,0.0,0.0,0.0,1.3251,1.2878,1.3044,1.3554,1.3864,1.3827,1.3155,0.0,1.1434,1.1463,1.1371,1.1045,1.0471,0.0,0.0,0.0,0.0,0.0,0.0,0.0,0.0,0.0,0.0,0.0,0.8144,0.8069,0.8106,0.8876,0.9078,0.8409,0.8249,0.846,0.9047,0.9897,1.0545,1.0826,1.1136,1.1466,1.1807,1.2075,1.2368,1.2953,1.3021,1.3008,1.3172,1.4397,1.5392,1.5603,1.5967,1.5889,1.5201,1.5213,1.5259,1.5205,1.5131,1.5572,1.6675,1.6112,1.501,1.4283,1.3787,1.3387,1.2761,1.2626,1.2703,1.2722,1.2646,1.2581,1.2423,1.2403,1.2403,1.2262,1.2159,1.2014,1.1729,0.9996,0.8181,2.6284,0.0,2.5429,2.5147,0.0,2.4767,2.4219,2.3638,2.3246,2.292,2.27,2.2756,2.2812,2.2774,2.235,2.2158,2.212,2.1273,2.0889,2.0889,2.0504,2.0073,1.9642,1.9642,1.9181,1.8367,1.8357,1.7915,1.7169,1.7153,1.6963,1.6588,1.6599,1.6616,1.6628,1.6634,1.6011,1.4762,1.3874,1.3222,1.284,1.3242,1.3475,1.3437,0.0,0.0,0.0,0.0,0.0,0.0,0.0,0.0,0.0,0.0,0.0,1.0006,1.0035,0.982,0.9372,0.9287,0.9231,0.9196,0.9515,0.9499,0.9103,0.875,0.876,0.9314,0.9224,0.9435,1.0267,1.1403,1.2065,1.1934,1.1927,1.2238,1.2835,1.3022,1.3221,1.3628,1.3748,1.3671,1.3546,1.553,1.6285,1.5583,1.5987,1.6153,1.5554,1.5633,1.5811,1.5712,1.6165,1.6232,1.5866,1.5961,1.5531,1.4205,1.3589,1.3252,1.2862,1.2848,1.2848,1.2834,1.2848,1.2811,1.2716,1.26,1.2503,1.2503,1.2403,1.2363,1.2491,1.1475,1.0093,2.7102,2.7065,2.6247,2.5912,2.5838,2.5206,2.4903,2.4826,0.0,0.0,0.0,2.3122,2.3217,2.3208,2.3081,2.3013,2.2975,2.212,2.162,2.1466,2.0804,2.0427,2.0312,2.0312,1.9927,1.9242,1.9242,1.8801,1.8036,1.8036,1.76,1.6879,1.6836,1.6389,1.5579,1.5433,1.5397,1.536,1.4697,1.3921,1.3065,1.3162,1.3203,1.3047,1.3583,1.3451,1.2633,1.3097,1.282,1.1607,1.1771,1.1422,1.0445,1.0818,1.1162,1.1391,1.1883,1.1822,1.1091,1.1111,1.0942,1.0289,1.0793,1.0772,0.9955,0.8566,0.8605,1.0739,1.039,1.0566,1.173,1.2949,1.3454,1.2829,1.2927,1.3275,1.3852,1.4045,1.4162,1.4194,1.4379,1.4506,1.4806,1.6517,1.7333,1.5605,1.5711,1.6017,1.5441,1.5645,1.5934,1.5702,1.6166,1.6275,1.4767,1.443,1.4574,1.3966,1.3394,1.3048,1.3046,1.3118,1.3118,1.3013,1.3118,1.3082,1.2977,1.2773,1.2639,1.2805,1.2659,1.2562,1.2588,1.2664,1.1982,2.7937,2.7863,2.7065,2.673,2.673,2.6619,2.6191,2.5519,2.4964,2.4688,2.4587,2.4698,2.4755,2.4755,2.4169,2.3937,2.386,2.3013,2.2235,0.0,2.1389,2.0966,2.0312,2.0312,2.0235,2.0119,2.0119,1.9665,1.8903,1.8819,1.8429,1.7716,1.7694,1.7281,1.6506,1.5769,1.5419,1.538,1.5256,1.4786,1.3935,1.4647,1.4687,1.3945,1.3315,1.2603,1.1815,1.2083,1.2004,1.1534,1.182,1.176,1.1321,1.0637,1.0281,1.0319,1.0412,1.0398,1.0312,1.0831,1.1459,1.1963,1.202,1.1632,1.0792,0.9911,1.0033,1.1594,1.2815,1.3436,1.292,1.3556,1.4062,1.3906,1.432,1.4714,1.4816,1.5243,1.5436,1.5088,1.5621,1.6343,1.7136,1.682,1.632,1.5884,1.5634,1.5167,1.4589,1.492,1.5172,1.4833,1.5184,1.5143,1.432,1.357,1.3563,1.3936,1.3818,1.3478,1.3024,1.2944,1.2977,1.2926,1.2959,1.2871,1.2741,1.2815,1.2754,1.2581,1.2455,1.2466,1.2664,1.2977,1.2937,2.8812,2.87,2.792,2.7529,2.7548,2.7102,2.6693,2.6321,2.6109,2.5528,2.4827,2.4942,2.5043,2.5077,2.4788,2.4686,2.4736,2.3889,2.3274,2.2898,2.2427,2.1735,2.1004,2.0966,2.0735,2.0312,2.0312,2.0081,1.9735,1.9688,1.9288,1.8474,1.8101,1.7702,1.7314,1.6508,1.6123,1.6084,1.5652,1.4988,1.4132,1.4489,1.4492,1.4101,1.3707,1.3581,1.3655,1.2861,1.2349,1.2197,1.1465,1.0981,1.0792,1.093,1.1147,1.1446,1.1757,1.1959,1.208,1.1989,1.2059,1.2449,1.2783,1.2767,1.228,1.1497,1.1407,1.2393,1.3706,1.4306,1.3884,1.4875,1.5402,1.4802,1.5278,1.564,1.5675,1.5784,1.5955,1.5971,1.5766,1.6305,1.7969,1.6663,1.5678,1.5851,1.5371,1.4622,1.3719,1.3974,1.4107,1.3705,1.3818,1.3831,1.3576,1.3179,1.3048,1.3347,1.3399,1.3268,1.294,1.2908,1.2908,1.2889,1.2871,1.2815,1.2735,1.2716,1.2659,1.26,1.2821,1.2999,1.3166,1.3514,1.3352,2.9407,2.9332,2.87,2.8403,2.8309,2.7734,2.7362,2.7176,2.7195,2.645,2.5314,2.5167,2.5181,2.5285,2.5156,2.516,2.5157,2.4649,2.4245,2.4052,2.3389,2.262,2.1812,2.162,2.1196,2.0581,2.0389,2.0312,2.0312,2.0312,1.9973,1.927,1.8545,1.8189,1.8195,1.7396,1.6899,1.6668,1.6045,1.5264,1.4444,1.441,1.4334,1.4101,1.4099,1.4325,1.4711,1.3643,1.2931,1.2779,1.1667,1.0992,1.0841,1.1415,1.2072,1.2594,1.3097,1.352,1.3723,1.3189,1.2896,1.3086,1.3577,1.3844,1.3681,1.3094,1.28,1.3288,1.4022,1.4561,1.4964,1.6015,1.6534,1.5793,1.6185,1.6566,1.6568,1.6536,1.6688,1.7001,1.637,1.6398,1.7073,1.6317,1.5609,1.5672,1.5274,1.4517,1.3665,1.3548,1.3444,1.3085,1.2926,1.2973,1.2908,1.2811,1.2773,1.2815,1.2848,1.2862,1.2778,1.2829,1.2797,1.2792,1.2915,1.2974,1.2974,1.3047,1.3082,1.3145,1.342,1.37,1.3897,1.4155,1.3905,2.939,2.937,2.9295,2.9295,2.9221,2.9147,2.8721,2.8108,2.809,2.7606,2.6785,2.6085,2.585,2.5747,2.5336,2.5153,2.5176,2.5147,2.4812,2.4206,2.4014,2.3505,2.2667,2.1889,2.1466,2.1273,2.0688,2.0342,2.0312,2.0312,2.0265,2.0096,1.9374,1.9003,1.8965,1.8198,1.7431,1.6746,1.663,1.6162,1.5343,1.5266,1.4878,1.4139,1.4101,1.3746,1.331,1.3416,1.3368,1.2896,1.3165,1.3123,1.2574,1.2121,1.2174,1.2752,1.3179,1.352,1.3762,1.3723,1.4016,1.4735,1.4783,1.4774,1.4749,1.4435,1.4279,1.4437,1.4462,1.4891,1.5845,1.6578,1.6968,1.6817,1.7276,1.7632,1.7671,1.8198,1.8574,1.8574,1.7934,1.7501,1.657,1.6141,1.5897,1.5769,1.5716,1.5318,1.4442,1.4255,1.4019,1.3409,1.3034,1.2944,1.2977,1.2716,1.2678,1.2665,1.2671,1.2716,1.2748,1.276,1.2645,1.3027,1.3104,1.3452,1.3557,1.3851,1.4176,1.3973,1.4078,1.4276,1.4653,1.4818,1.4414,2.9861,2.9411,2.9431,2.9431,2.9411,2.939,2.9204,2.8907,2.8927,2.8723,2.8351,2.7661,2.7079,2.6568,2.5884,2.5663,2.5779,2.5378,2.507,2.4879,2.4879,2.4378,2.357,2.3223,2.2521,2.1543,2.1158,2.0773,2.0381,2.0312,2.0289,2.028,1.9967,1.9823,1.9794,1.9068,1.8512,1.8172,1.7717,1.706,1.624,1.5656,1.5227,1.4918,1.4882,1.4726,1.4409,1.4595,1.435,1.368,1.4303,1.4106,1.2857,1.2885,1.3142,1.351,1.4111,1.45,1.4609,1.4577,1.471,1.5092,1.5529,1.5757,1.567,1.5186,1.5179,1.5892,1.5154,1.5148,1.6835,1.7803,1.8133,1.7811,1.8151,1.8475,1.8527,1.868,1.8789,1.8735,1.8,1.7526,1.7319,1.7259,1.6826,1.6203,1.615,1.613,1.539,1.5235,1.4876,1.4211,1.365,1.3278,1.3103,1.3064,1.2936,1.2838,1.305,1.3267,1.3291,1.3558,1.3715,1.3596,1.3803,1.3922,1.3876,1.4008,1.4263,1.4331,1.4627,1.481,1.5314,1.5407,1.5123,3.0706,3.0143,2.9939,2.9678,2.9414,2.9414,2.9431,2.9468,2.9451,2.9471,2.9397,2.8876,2.8334,2.7696,2.6735,2.6291,2.6135,2.5615,2.534,2.5351,2.5322,2.4985,2.4464,2.4204,2.3463,2.2376,2.1982,2.1443,2.0743,2.0619,2.0504,2.0358,2.0287,2.0283,2.0237,1.9739,1.9432,1.9169,1.8611,1.7958,1.7099,1.6435,1.589,1.5461,1.5428,1.543,1.5428,1.542,1.5137,1.4504,1.5085,1.4849,1.3639,1.3948,1.4206,1.4406,1.5125,1.5565,1.5529,1.5721,1.5802,1.5826,1.6392,1.6674,1.6519,1.6101,1.6328,1.7233,1.6619,1.6853,1.7876,1.8831,1.9014,1.8559,1.8838,1.9064,1.9064,1.8983,1.8931,1.8859,1.8321,1.779,1.8193,1.8252,1.778,1.6959,1.7043,1.7073,1.636,1.6115,1.5856,1.5103,1.4418,1.3769,1.3342,1.3743,1.3674,1.3573,1.3831,1.4099,1.4068,1.4374,1.4413,1.4007,1.431,1.4492,1.4479,1.446,1.4587,1.4606,1.4856,1.5254,1.5533,1.5623,1.5419,3.1965,3.1773,3.1042,3.0295,2.9511,2.9511,2.9531,2.9587,2.9569,2.9569,2.9569,2.9532,2.9475,2.9213,2.7879,2.6811,2.614,2.6167,2.5895,2.5395,2.522,2.5224,2.5283,2.4491,2.4036,2.3719,2.3102,2.2369,2.1575,2.1435,2.1043,2.0389,2.0319,2.0311,2.0302,2.0293,1.9955,1.9361,1.9273,1.8817,1.8076,1.788,1.7061,1.5735,1.5428,1.5468,1.543,1.5423,1.5374,1.5334,1.5362,1.5314,1.5234,1.5273,1.5296,1.533,1.6051,1.6479,1.6445,1.6997,1.7423,1.7447,1.7439,1.7546,1.753,1.75,1.7716,1.8142,1.8954,1.9416,1.916,1.9191,1.9308,1.9204,1.9209,1.9266,1.9266,1.9202,1.9198,1.9246,1.9084,1.885,1.8624,1.8584,1.8436,1.8143,1.8168,1.7884,1.717,1.6884,1.6521,1.5887,1.5272,1.4569,1.375,1.439,1.4978,1.5008,1.499,1.4951,1.4754,1.4615,1.4515,1.4528,1.4937,1.517,1.511,1.53,1.5601,1.5639,1.5411,1.5594,1.5566,1.5418,1.5238,3.2589,3.2044,3.1761,3.1141,3.0355,3.0318,3.0036,2.955,2.9569,2.9626,2.9589,2.9664,2.9608,2.9532,2.9063,2.8412,2.7706,2.7184,2.6896,2.6787,2.6288,2.6069,2.6092,2.5301,2.4593,2.4113,2.3805,2.3226,2.2447,2.186,2.1429,2.1082,2.0566,2.0304,2.0301,2.0365,2.0226,2.0033,2.0038,1.9669,1.8895,1.8858,1.8234,1.71,1.6517,1.5973,1.5429,1.5429,1.5427,1.5423,1.5413,1.5407,1.5444,1.5894,1.6146,1.6196,1.6909,1.7185,1.686,1.7388,1.7741,1.7662,1.8168,1.8398,1.8335,1.8769,1.9259,1.9401,1.9735,1.9969,1.9775,1.9499,1.9323,1.936,1.9314,1.9282,1.9251,1.9219,1.9235,1.9282,1.9292,1.9178,1.9034,1.8967,1.8807,1.8565,1.8506,1.8327,1.8073,1.783,1.7397,1.6861,1.6672,1.6313,1.4934,1.5479,1.6089,1.6391,1.6442,1.599,1.5713,1.5839,1.583,1.5675,1.5951,1.5905,1.5894,1.5849,1.6163,1.6024,1.5826,1.5653,1.5477,1.5388,1.5209,3.3306,3.2593,3.2514,3.2006,3.1277,3.1239,3.0882,3.0318,3.0113,3.002,2.9982,2.9795,2.9683,2.9645,2.9683,2.9489,2.9004,2.8153,2.7742,2.7708,2.7155,2.6792,2.6574,2.6099,2.5382,2.4679,2.4516,2.413,2.3358,2.2694,2.2262,2.1991,2.1166,2.0704,2.0711,2.0502,2.0399,2.0395,2.0455,2.0209,1.9749,1.9719,1.933,1.847,1.7844,1.7143,1.6287,1.6249,1.625,1.6249,1.6245,1.6237,1.6267,1.6709,1.7034,1.7093,1.781,1.8047,1.7661,1.8158,1.859,1.8489,1.902,1.9273,1.9118,1.9687,2.0003,2.004,2.003,2.0048,1.9952,1.9701,1.9513,1.9442,1.9375,1.9298,1.9214,1.9202,1.9186,1.9239,1.9235,1.9182,1.9186,1.912,1.9002,1.877,1.8715,1.8641,1.8565,1.8393,1.8168,1.7681,1.7645,1.7305,1.6563,1.672,1.6847,1.7076,1.7121,1.6786,1.6594,1.6865,1.6919,1.6825,1.6779,1.6727,1.6623,1.649,1.6355,1.6219,1.6024,1.5826,1.5624,1.5389,1.5239,3.4095,3.3456,3.3419,3.2893,3.218,3.2105,3.2105,3.1784,3.1184,3.0884,3.0809,3.0114,2.9852,2.9777,2.9739,2.9735,2.959,2.8947,2.8403,2.7994,2.7835,2.7449,2.691,2.6666,2.6141,2.5368,2.5352,2.4957,2.4223,2.3937,2.3543,2.2887,2.2038,2.1613,2.1613,2.0895,2.0466,2.0497,2.0561,2.0477,2.0521,2.0459,2.0114,1.9411,1.9216,1.8824,1.8038,1.7888,1.7772,1.7812,1.7851,1.7924,1.7704,1.7835,1.7925,1.8017,1.8702,1.8954,1.8794,1.9561,2.0019,2.0031,2.0227,2.0104,2.0016,2.0078,2.0069,2.003,2.0017,2.0012,2.0012,2.0131,1.9988,1.9559,1.9464,1.9485,1.9402,1.9239,1.914,1.914,1.912,1.9104,1.9104,1.9104,1.907,1.9019,1.8914,1.8769,1.8622,1.8526,1.8487,1.8393,1.8156,1.7697,1.7735,1.7839,1.7715,1.7614,1.758,1.7378,1.7127,1.7199,1.7126,1.7034,1.6984,1.6933,1.6857,1.6727,1.657,1.6409,1.6219,1.6024,1.5797,1.5566,1.5299,3.447,3.4245,3.4207,3.3757,3.3043,3.3006,3.2705,3.2105,3.1804,3.1729,3.1579,3.0865,3.0527,3.0377,2.9964,2.9719,2.9732,2.9553,2.9444,2.9308,2.881,2.8461,2.8145,2.7198,2.6296,2.5608,2.5484,2.5368,2.502,2.4471,2.3999,2.369,2.291,2.2516,2.2446,2.1649,2.1249,2.1214,2.0784,2.0509,2.0519,2.0579,2.0466,2.0231,2.0192,2.0035,1.976,1.863,1.8045,1.8045,1.8008,1.7963,1.8013,1.8494,1.8776,1.8814,1.9535,1.9984,1.9883,2.0127,2.0359,2.0373,2.0346,2.0287,2.0242,2.0134,2.005,1.9982,2.0007,2.0012,2.0164,2.1111,2.1029,1.98,2.0038,2.0322,2.0262,2.0237,1.9829,1.9232,1.9104,1.9104,1.9159,1.9196,1.9268,1.9232,1.9144,1.9057,1.8932,1.8893,1.8659,1.8641,1.8333,1.8163,1.8163,1.8057,1.7861,1.7772,1.7726,1.7635,1.7472,1.7377,1.7281,1.7232,1.7216,1.7141,1.7092,1.6965,1.6811,1.6649,1.649,1.6274,1.5996,1.58,1.5684,3.4583,3.4583,3.4583,3.432,3.3869,3.3832,3.3569,3.3006,3.2705,3.2593,3.2443,3.1729,3.1354,3.1203,3.049,3.0171,3.0095,2.9976,2.9931,3.0098,2.9704,2.9367,2.9052,2.7825,2.6729,2.6064,2.5956,2.5801,2.5492,2.4989,2.4679,2.4563,2.3821,2.3388,2.3311,2.2538,2.2094,2.201,2.1376,2.0947,2.089,2.0687,2.0543,2.058,2.0583,2.0584,2.0507,1.953,1.8983,1.8944,1.8984,1.894,1.8917,1.9396,1.9666,1.9685,2.0055,2.0353,2.0386,2.0359,2.0365,2.0386,2.0334,2.0314,2.028,2.0186,2.0134,2.001,1.9996,2.0229,2.096,2.1756,2.1859,2.0904,2.1073,2.1287,2.122,2.1357,2.106,2.0516,2.0572,2.0753,2.0825,2.0427,2.021,2.0065,1.9992,1.9992,1.9957,1.9848,1.9649,1.9396,1.9153,1.8913,1.8557,1.8307,1.8014,1.7883,1.7772,1.7635,1.7505,1.7458,1.741,1.7362,1.7346,1.7265,1.7191,1.7174,1.7016,1.6889,1.686,1.6705,1.6611,1.6508,1.6427,3.4583,3.4583,3.4583,3.4583,3.4545,3.4545,3.447,3.4395,3.3794,3.3456,3.3269,3.2555,3.218,3.1992,3.1354,3.0978,3.0828,3.0208,3.0061,3.0233,3.0139,2.9847,2.9187,2.8431,2.7619,2.6876,2.676,2.6373,2.5724,2.5608,2.553,2.5298,2.4641,2.4292,2.4099,2.3403,2.2977,2.2875,2.2194,2.1799,2.1765,2.1174,2.077,2.0809,2.0897,2.0937,2.0977,2.0703,2.0546,2.0544,2.0391,2.0309,2.0416,2.05,2.037,2.0288,2.0386,2.0386,2.0386,2.0386,2.0463,2.0579,2.0611,2.0521,2.0672,2.0718,2.0597,2.0403,2.0576,2.1123,2.2246,2.2754,2.2703,2.2653,2.2448,2.2299,2.2219,2.2635,2.2453,2.2155,2.2914,2.3707,2.3293,2.2603,2.2042,2.1712,2.1441,2.117,2.1131,2.0858,2.0858,2.0493,2.0,1.9763,1.942,1.8581,1.8447,1.8991,1.8687,1.8348,1.7803,1.7642,1.7458,1.7443,1.7527,1.7436,1.7429,1.7452,1.7513,1.7551,1.7476,1.7332,1.7298,1.7264,1.7181,3.4583,3.4583,3.4583,3.4583,3.4583,3.4583,3.4583,3.4583,3.4395,3.4207,3.4095,3.3419,3.3081,3.2968,3.218,3.1804,3.1616,3.096,3.0713,3.0814,3.0338,2.9879,2.9409,2.9089,2.8509,2.7774,2.7619,2.7232,2.645,2.6373,2.6102,2.5492,2.5337,2.5143,2.5027,2.4292,2.3906,2.3758,2.3042,2.2677,2.262,2.2494,2.2444,2.2408,2.2381,2.2383,2.2422,2.1875,2.125,2.0625,2.0586,2.0583,2.0531,2.0523,2.0529,2.0593,2.0466,2.0432,2.043,2.0457,2.0734,2.1282,2.1353,2.1585,2.219,2.1849,2.1673,2.1803,2.2696,2.3484,2.352,2.3888,2.422,2.4257,2.3674,2.3455,2.3836,2.4061,2.4041,2.3938,2.3953,2.3946,2.3741,2.327,2.2832,2.2841,2.233,2.1698,2.1765,2.1574,2.1482,2.1068,2.0666,2.0539,2.0178,1.923,1.9114,2.0004,1.9918,1.9469,1.8676,1.7883,1.7595,1.7362,1.7708,1.7723,1.7902,1.7987,1.8076,1.8161,1.8239,1.8162,1.815,1.8129,1.8038,3.4583,3.4583,3.4583,3.4583,3.4583,3.4583,3.4583,3.4583,3.4583,3.4583,3.447,3.4132,3.3907,3.3832,3.3043,3.2668,3.2555,3.1767,3.1506,3.1569,3.1064,3.0467,2.9989,2.9824,2.9399,2.8625,2.8548,2.8045,2.7387,2.7232,2.6962,2.6613,2.6188,2.6025,2.5948,2.5182,2.4757,2.4609,2.3941,2.3495,2.3508,2.3213,2.3052,2.3064,2.3086,2.3125,2.3086,2.2656,2.2031,2.1289,2.082,2.0585,2.054,2.0497,2.0794,2.1414,2.12,2.108,2.1402,2.1449,2.1585,2.1855,2.2049,2.2559,2.2984,2.2791,2.2474,2.291,2.4361,2.4763,2.4581,2.4793,2.5031,2.4905,2.4549,2.4433,2.487,2.4723,2.4746,2.4738,2.4526,2.4265,2.4155,2.3728,2.3731,2.3786,2.3249,2.2807,2.2544,2.2257,2.201,2.1688,2.1437,2.1325,2.109,2.0301,1.9992,2.0802,2.0903,2.046,1.9739,1.872,1.8449,1.8261,1.8168,1.8222,1.849,1.8638,1.8543,1.8655,1.8853,1.8928,1.8904,1.8874,1.8778,3.4695,3.4583,3.4583,3.4583,3.4583,3.4583,3.4583,3.4583,3.4583,3.4583,3.4583,3.4583,3.447,3.4545,3.3794,3.3531,3.3456,3.263,3.2335,3.2176,3.1843,3.1403,3.0974,3.055,3.0095,2.9515,2.9437,2.8934,2.8315,2.8122,2.8045,2.7658,2.7116,2.6884,2.6691,2.6033,2.5638,2.5453,2.4764,2.4346,2.4251,2.3884,2.3657,2.3631,2.3672,2.3672,2.3633,2.332,2.293,2.2227,2.1328,2.0937,2.0781,2.062,2.1479,2.2535,2.2266,2.2172,2.2731,2.2681,2.2675,2.2513,2.2823,2.3332,2.3804,2.3642,2.3519,2.3944,2.4911,2.5241,2.5255,2.5311,2.5466,2.5411,2.5171,2.5132,2.5091,2.505,2.5012,2.5002,2.4806,2.4804,2.4645,2.453,2.4375,2.421,2.3805,2.3446,2.3231,2.3027,2.2783,2.2511,2.2311,2.2146,2.1839,2.1411,2.1363,2.1574,2.1567,2.1301,2.0904,2.0201,1.9816,1.951,1.9074,1.9102,1.9449,1.9414,1.9219,1.9299,1.959,1.9562,1.9499,1.9527,1.9458,3.5221,3.4583,3.4583,3.4583,3.4583,3.4583,3.462,3.462,3.462,3.4583,3.4583,3.4583,3.4583,3.4583,3.4395,3.4358,3.417,3.3456,3.2919,3.2406,3.2485,3.2467,3.2081,3.1311,3.0559,3.0327,3.0327,2.9863,2.9205,2.8973,2.8664,2.8083,2.7967,2.7696,2.7619,2.6923,2.645,2.6296,2.5646,2.526,2.5205,2.504,2.4861,2.4907,2.4993,2.5078,2.5,2.4492,2.4062,2.3711,2.3008,2.207,2.125,2.1875,2.2695,2.3046,2.3038,2.2884,2.2989,2.3159,2.3159,2.3487,2.3719,2.4254,2.5027,2.495,2.4911,2.5143,2.5376,2.5459,2.5416,2.6244,2.6226,2.5944,2.5792,2.5801,2.5815,2.5725,2.5378,2.5272,2.5348,2.5421,2.4955,2.4682,2.453,2.4517,2.4284,2.3959,2.3795,2.3682,2.34,2.3092,2.3034,2.2833,2.2638,2.2309,2.2197,2.2141,2.2119,2.2106,2.1725,2.1249,2.0713,2.022,1.9781,1.9984,2.035,2.0217,2.0046,2.019,2.0289,2.0288,2.0252,2.0213,2.0395,3.6197,3.5784,3.5747,3.5747,3.5709,3.5371,3.5184,3.5108,3.4771,3.4583,3.4583,3.4583,3.4583,3.4583,3.4583,3.4583,3.4508,3.417,3.3782,3.3488,3.3346,3.3242,3.3158,3.2285,3.1553,3.1207,3.0714,3.0288,3.0017,2.9863,2.9708,2.9205,2.8818,2.8625,2.8479,2.7735,2.7348,2.7155,2.6497,2.6064,2.6049,2.5712,2.5601,2.5629,2.5664,2.5703,2.5586,2.5273,2.5039,2.4883,2.4531,2.3516,2.2187,2.2656,2.3437,2.418,2.3861,2.4003,2.4131,2.4261,2.4379,2.4542,2.4729,2.5018,2.5383,2.553,2.553,2.553,2.5484,2.5476,2.5434,2.5781,2.6082,2.5926,2.5704,2.5725,2.5952,2.5672,2.5662,2.5665,2.564,2.5201,2.4826,2.465,2.458,2.4517,2.4339,2.4058,2.4019,2.3915,2.3747,2.3559,2.353,2.3486,2.3374,2.3188,2.2917,2.2761,2.2603,2.2579,2.2434,2.197,2.1447,2.1113,2.082,2.0933,2.1197,2.1026,2.0815,2.0858,2.0895,2.0955,2.1077,2.1203,2.1481,3.7211,3.7122,3.7122,3.7122,3.7009,3.6348,3.6085,3.5972,3.5296,3.5071,3.4808,3.4808,3.4846,3.462,3.4583,3.4583,3.4583,3.4583,3.44,3.4388,3.4055,3.4006,3.3861,3.3365,3.2756,3.2135,3.1294,3.083,3.0752,3.0636,3.0366,3.0366,2.9863,2.9515,2.9321,2.8672,2.8199,2.8083,2.7348,2.6923,2.6854,2.6346,2.616,2.5952,2.6016,2.5859,2.5781,2.5625,2.5625,2.5703,2.5703,2.4883,2.3984,2.3594,2.4023,2.5586,2.4918,2.4871,2.5213,2.5428,2.5438,2.554,2.5485,2.5693,2.5878,2.577,2.5685,2.587,2.5978,2.6262,2.612,2.6766,2.6525,2.6096,2.569,2.569,2.5934,2.5454,2.5543,2.6347,2.5955,2.5307,2.4825,2.4568,2.4534,2.4462,2.4321,2.421,2.4191,2.4114,2.3935,2.3831,2.3768,2.3616,2.3539,2.3436,2.3267,2.351,2.3249,2.3241,2.3267,2.3231,2.2863,2.2275,2.2044,2.2074,2.1869,2.1591,2.145,2.1466,2.1665,2.1859,2.205,2.2207,2.2585,3.7699,3.7122,3.7122,3.7122,3.7099,3.6948,3.6911,3.6873,3.6648,3.6273,3.5709,3.5672,3.5296,3.4808,3.462,3.462,3.4642,3.4604,3.4642,3.4647,3.4546,3.4659,3.4633,3.4194,3.3877,3.3555,3.2532,3.1719,3.1449,3.0984,3.0868,3.0636,3.0482,3.0366,3.0056,2.9592,2.9089,2.8973,2.8238,2.7813,2.7713,2.751,2.7157,2.6766,2.67,2.6439,2.5937,2.5781,2.5703,2.5703,2.5703,2.5547,2.5195,2.5117,2.5391,2.5508,2.5508,2.5466,2.581,2.5763,2.5668,2.5593,2.5712,2.6384,2.6857,2.6498,2.6343,2.6936,2.745,2.7991,2.944,2.8961,2.894,2.8399,2.7484,2.7077,2.6858,2.6152,2.5416,2.6289,2.5962,2.5427,2.4906,2.4517,2.4517,2.45,2.4357,2.4284,2.4266,2.4172,2.4036,2.3955,2.3915,2.3725,2.3562,2.3483,2.3412,2.4135,2.4136,2.4095,2.4199,2.4551,2.4328,2.3487,2.2911,2.2713,2.2479,2.2152,2.2735,2.3181,2.3059,2.29,2.3128,2.3388,2.3608,3.8751,3.8399,3.8399,3.8399,3.83,3.7887,3.7699,3.7624,3.7286,3.6873,3.661,3.6498,3.6047,3.5446,3.5259,3.5093,3.4739,3.4706,3.4706,3.4668,3.4751,3.4908,3.5081,3.4749,3.4879,3.4654,3.377,3.2841,3.2483,3.2145,3.1603,3.1294,3.1217,3.1023,3.0636,3.0211,2.9979,2.9747,2.9128,2.8664,2.8595,2.8395,2.7846,2.7649,2.7579,2.7368,2.7141,2.7031,2.707,2.707,2.707,2.6562,2.6172,2.6172,2.6328,2.5937,2.5781,2.5976,2.6286,2.6402,2.6435,2.6562,2.668,2.734,2.788,2.7621,2.7447,2.8435,2.8983,2.949,3.0198,2.9979,2.9236,2.8576,2.798,2.7727,2.7395,2.6654,2.645,2.6296,2.5705,2.5227,2.474,2.45,2.45,2.4465,2.4449,2.4468,2.4524,2.4524,2.4503,2.4368,2.4344,2.4157,2.4144,2.4212,2.42,2.4746,2.4971,2.4867,2.4936,2.5178,2.4936,2.4322,2.3867,2.3736,2.3096,2.2841,2.3867,2.4757,2.4506,2.4314,2.4448,2.4613,2.474,3.9602,3.9626,3.9602,3.9626,3.9513,3.8888,3.8563,3.8413,3.7925,3.7549,3.7324,3.7286,3.6896,3.628,3.5964,3.5631,3.4994,3.496,3.4809,3.4751,3.4751,3.487,3.503,3.5216,3.5273,3.5338,3.4969,3.4195,3.3421,3.2986,3.2599,3.2261,3.2068,3.1642,3.1023,3.0868,3.083,3.0404,2.9979,2.9592,2.9378,2.8954,2.8495,2.8359,2.8407,2.8366,2.8032,2.8044,2.8086,2.8086,2.8047,2.7656,2.6641,2.6992,2.7187,2.6757,2.6328,2.6523,2.6992,2.7265,2.7379,2.7676,2.7956,2.849,2.9013,2.8977,2.8994,3.0106,3.0314,3.0237,3.0263,2.9621,2.9083,2.8648,2.831,2.7905,2.7892,2.7549,2.7153,2.665,2.5754,2.5196,2.494,2.5355,2.554,2.554,2.5523,2.5504,2.5523,2.5375,2.5301,2.5019,2.4864,2.4699,2.4823,2.5288,2.5394,2.5789,2.5695,2.5488,2.5557,2.5695,2.5419,2.535,2.5424,2.5154,2.4328,2.3721,2.4607,2.5266,2.5507,2.5645,2.5581,2.5547,2.5612,3.965,3.967,3.9698,3.9698,3.967,3.9548,3.95,3.9376,3.9226,3.8826,3.8174,3.8136,3.7769,3.7128,3.6457,3.6157,3.5874,3.5457,3.5154,3.5059,3.5021,3.504,3.5102,3.5216,3.535,3.5534,3.5488,3.5046,3.4322,3.3615,3.3151,3.2996,3.288,3.2532,3.1797,3.169,3.1294,3.0752,3.0559,3.0443,3.0414,3.0238,2.9807,2.9394,2.9219,2.9039,2.8613,2.8589,2.8554,2.8514,2.8435,2.824,2.7929,2.7538,2.8627,2.8977,2.8628,2.7461,2.8044,2.8162,2.8396,2.8697,2.8622,2.904,2.9666,3.0074,3.0034,3.0248,3.0379,3.0379,3.0379,3.0225,3.0121,2.9775,2.9252,2.901,2.8856,2.8656,2.8211,2.7943,2.7338,2.6161,2.5425,2.6079,2.6656,2.6656,2.6581,2.6488,2.634,2.6135,2.6228,2.5962,2.5829,2.5685,2.6132,2.6488,2.6493,2.6805,2.6536,2.6229,2.6338,2.6541,2.673,2.6695,2.6668,2.6293,2.53,2.5039,2.5496,2.5775,2.6082,2.6353,2.6522,2.6489,2.6353,3.9777,3.9823,3.9838,3.98,3.9785,3.98,3.9777,3.9792,3.9731,3.9496,3.9133,3.9119,3.8773,3.805,3.7318,3.6958,3.6844,3.6521,3.6122,3.5704,3.5628,3.5457,3.5234,3.5262,3.5378,3.5534,3.5626,3.5563,3.501,3.4758,3.4389,3.3867,3.379,3.3413,3.2677,3.26,3.2387,3.2,3.1652,3.1361,3.1215,3.0875,3.0458,3.011,3.0128,2.9878,2.9656,2.968,2.9726,2.9764,2.9762,2.9763,2.9725,2.9567,2.9954,3.0374,2.9993,2.9332,2.9098,2.9059,2.941,2.9873,2.9799,3.0014,3.0444,3.0472,3.0425,3.039,3.0379,3.0417,3.0456,3.0379,3.0379,3.0275,3.016,3.0006,2.9775,2.966,2.9382,2.9194,2.8883,2.7711,2.6691,2.6767,2.7491,2.7863,2.7435,2.6896,2.6765,2.6541,2.6723,2.7032,2.6901,2.6786,2.75,2.8021,2.7635,2.7698,2.7529,2.7296,2.7273,2.7457,2.7604,2.7417,2.6982,2.6539,2.6093,2.6068,2.6279,2.6453,2.6691,2.6894,2.7063,2.6759,2.6724,3.9954,3.9975,3.9933,3.9933,3.997,3.9933,3.9911,3.9889,3.9845,3.9785,3.9823,3.9769,3.9532,3.8988,3.8328,3.7909,3.7871,3.7718,3.7281,3.6825,3.6502,3.6176,3.584,3.5661,3.5649,3.5558,3.5658,3.566,3.565,3.5563,3.5204,3.4749,3.471,3.4246,3.3751,3.348,3.3316,3.2871,3.2454,3.224,3.2103,3.1676,3.125,3.1041,3.0969,3.092,3.0739,3.0689,3.0741,3.0778,3.0697,3.0619,3.066,3.058,3.0966,3.1389,3.1317,3.1085,3.0655,3.0422,3.0382,3.0609,3.0849,3.0594,3.0886,3.071,3.0379,3.0379,3.0379,3.0609,3.0891,3.1006,3.1083,3.1121,3.0929,3.0814,3.066,3.039,3.0136,2.9806,2.957,2.943,2.854,2.792,2.8177,2.8903,2.8474,2.7524,2.7298,2.7221,2.7474,2.7932,2.7889,2.7853,2.8374,2.8858,2.8662,2.8608,2.8425,2.8279,2.8229,2.8223,2.8333,2.7948,2.7594,2.7466,2.7331,2.7128,2.6994,2.7267,2.7469,2.7469,2.7435,2.7232,2.723,4.0157,4.0273,4.0096,4.0017,4.0096,4.0055,3.9954,3.9933,3.9911,3.9911,3.9911,3.9996,4.0,3.9774,3.9242,3.8878,3.884,3.8094,3.7809,3.7677,3.7542,3.7048,3.6638,3.6381,3.6279,3.5779,3.5996,3.6018,3.5825,3.6183,3.5902,3.5631,3.5514,3.5049,3.4661,3.439,3.408,3.3644,3.3266,3.3119,3.3081,3.2818,3.2499,3.1964,3.1802,3.1559,3.0788,3.0921,3.1132,3.1203,3.1237,3.1122,3.1242,3.1356,3.1936,3.26,3.2522,3.2404,3.2251,3.1589,3.0964,3.0827,3.1008,3.1367,3.1813,3.0991,3.0583,3.0763,3.1148,3.1686,3.2199,3.2391,3.2199,3.2006,3.1814,3.166,3.1429,3.1006,3.0713,3.0407,3.0147,2.9921,2.9907,2.919,2.8619,2.9212,2.9191,2.8276,2.8381,2.8375,2.8559,2.8795,2.8764,2.8851,2.9108,2.9344,2.9564,2.9501,2.9337,2.9206,2.9105,2.9118,2.9166,2.9171,2.8955,2.8798,2.8459,2.8015,2.7845,2.8113,2.8349,2.8518,2.8412,2.8241,2.8266,4.0273,4.0253,4.0234,4.0196,4.0196,4.0196,4.0157,4.0137,4.0117,4.0058,4.0096,4.0117,4.0137,4.0081,4.0043,3.9814,3.9775,3.9508,3.8973,3.8629,3.84,3.7962,3.7551,3.7371,3.7359,3.709,3.719,3.7346,3.7423,3.719,3.7346,3.7152,3.6396,3.5727,3.5339,3.5223,3.4942,3.4727,3.4262,3.3999,3.3891,3.3464,3.3114,3.2842,3.2773,3.2667,3.231,3.197,3.2109,3.2298,3.2368,3.2251,3.2057,3.2404,3.3066,3.3768,3.3417,3.33,3.3417,3.2834,3.2483,3.2469,3.26,3.2687,3.2784,3.2177,3.198,3.2237,3.2801,3.3583,3.4083,3.3699,3.3122,3.2891,3.2699,3.2506,3.2225,3.184,3.1405,3.1149,3.0637,3.0202,3.0326,3.0353,2.9816,2.9444,2.9289,2.9208,2.9333,2.9324,2.9398,2.9214,2.9168,3.0246,3.0613,3.065,3.0577,3.0405,3.0232,3.017,3.0104,3.0119,3.0177,3.029,3.0251,2.9922,2.9417,2.8733,2.8662,2.9,2.9401,2.98,2.9623,2.924,2.9192,4.031,4.031,4.031,4.031,4.031,4.031,4.031,4.0291,4.0273,4.0215,4.0215,4.0176,4.0196,4.0291,4.031,4.0272,4.0234,4.0157,3.9852,3.9584,3.9317,3.8858,3.8448,3.8247,3.8273,3.8247,3.8257,3.8305,3.8227,3.8343,3.8227,3.7868,3.7286,3.6647,3.6142,3.5891,3.5775,3.559,3.5288,3.487,3.4769,3.442,3.3876,3.3759,3.3643,3.3406,3.3161,3.2795,3.285,3.3314,3.3651,3.3732,3.3534,3.3573,3.412,3.4315,3.4198,3.3805,3.4,3.361,3.3456,3.3214,3.3361,3.3505,3.3557,3.3256,3.2788,3.3776,3.4776,3.5507,3.5468,3.4699,3.4276,3.4083,3.3493,3.325,3.3096,3.275,3.2314,3.1917,3.1533,3.1444,3.2102,3.2315,3.1347,3.0761,3.0388,3.0268,3.0221,3.016,2.9976,2.9682,2.9292,3.0797,3.2265,3.2118,3.1898,3.1249,3.1174,3.1206,3.1193,3.1156,3.1369,3.1661,3.1515,3.1044,3.075,3.052,3.0214,2.9926,3.0292,3.0586,3.0359,3.0007,2.9922,4.031,4.031,4.031,4.031,4.031,4.031,4.031,4.031,4.0291,4.0291,4.0291,4.0291,4.0291,4.031,4.031,4.031,4.031,4.031,4.0196,4.0119,4.0005,3.9623,3.9329,3.9092,3.9083,3.8363,3.8567,3.881,3.8538,3.881,3.8693,3.8343,3.7877,3.7566,3.7023,3.6237,3.5849,3.5849,3.5888,3.5888,3.5741,3.5624,3.5197,3.4653,3.452,3.4275,3.391,3.3734,3.3788,3.4012,3.4979,3.4979,3.4432,3.3612,3.4159,3.5525,3.4822,3.4861,3.5603,3.4273,3.3886,3.3802,3.4077,3.4041,3.4199,3.3906,3.3673,3.4764,3.5353,3.5507,3.5468,3.5416,3.5224,3.4955,3.4312,3.403,3.3915,3.3799,3.3363,3.3171,3.3198,3.3286,3.411,3.4358,3.3141,3.2312,3.1679,3.1323,3.1078,3.087,3.0613,3.054,3.0173,3.1054,3.2522,3.3256,3.3183,3.2485,3.2104,3.2172,3.2201,3.2201,3.2516,3.2943,3.2685,3.2107,3.2299,3.2559,3.1983,3.1358,3.1022,3.1099,3.0903,3.0851,3.0845,4.031,4.031,4.031,4.031,4.031,4.031,4.031,4.031,4.031,4.031,4.031,4.031,4.031,4.031,4.031,4.031,4.031,4.031,4.031,4.031,4.031,4.0157,3.9924,3.9915,3.9932,3.9883,3.9924,3.9625,3.9315,3.9587,3.9159,3.8654,3.8266,3.7722,3.7838,3.7605,3.7566,3.7528,3.7489,3.7294,3.6751,3.6634,3.6284,3.5469,3.5475,3.5349,3.5054,3.499,3.4961,3.5023,3.5994,3.5798,3.5408,3.4666,3.5135,3.5952,3.5447,3.56,3.6072,3.5681,3.572,3.5321,3.5108,3.5143,3.5228,3.5055,3.519,3.5316,3.5545,3.5545,3.5468,3.5493,3.5378,3.5311,3.499,3.4937,3.4846,3.4755,3.4602,3.464,3.4654,3.4343,3.4753,3.4963,3.4089,3.3343,3.2641,3.19,3.1544,3.1409,3.1237,3.1421,3.1421,3.1898,3.2596,3.3366,3.377,3.3156,3.302,3.3159,3.3214,3.3021,3.3154,3.3364,3.3304,3.3178,3.3337,3.3458,3.3232,3.2791,3.2435,3.1846,3.1467,3.1664,3.1901,4.0578,4.0348,4.0616,4.054,4.0348,4.031,4.031,4.031,4.031,4.031,4.031,4.031,4.031,4.031,4.031,4.031,4.031,4.031,4.031,4.031,4.031,4.0272,4.0325,4.0492,4.0419,4.0655,4.0738,4.0558,4.013,4.0635,4.0286,3.947,3.8654,3.9043,3.9004,3.8576,3.7722,3.7761,3.78,3.7994,3.7644,3.7489,3.7294,3.6931,3.6787,3.6772,3.6735,3.6637,3.6443,3.647,3.6501,3.6342,3.6225,3.603,3.6147,3.6303,3.6774,3.6852,3.7126,3.7321,3.7243,3.6967,3.6868,3.6752,3.6455,3.5982,3.6105,3.6137,3.5894,3.6045,3.6185,3.6185,3.6195,3.6128,3.5729,3.5699,3.5262,3.5132,3.5132,3.5285,3.5285,3.5124,3.5001,3.4981,3.4755,3.4185,3.3559,3.2901,3.2305,3.2157,3.2132,3.2279,3.2438,3.2779,3.3109,3.355,3.378,3.378,3.3762,3.3817,3.355,3.332,3.3553,3.3785,3.387,3.3954,3.4171,3.4222,3.4211,3.4051,3.3741,3.3063,3.2217,3.2485,3.3014,4.1036,4.0501,4.1189,4.1036,4.0463,4.054,4.0501,4.0348,4.031,4.031,4.031,4.031,4.031,4.031,4.031,4.031,4.031,4.031,4.031,4.031,4.0291,4.0329,4.0363,4.0508,4.0574,4.0655,4.0726,4.0772,4.0781,4.0364,4.0325,4.0519,3.9858,3.9858,3.9315,3.8732,3.7877,3.811,3.8382,3.846,3.8188,3.8343,3.8227,3.8027,3.7975,3.799,3.7912,3.7772,3.7496,3.7446,3.7516,3.7009,3.654,3.6069,3.6579,3.7399,3.8297,3.8219,3.8297,3.8375,3.857,3.8372,3.845,3.8467,3.7909,3.6931,3.69,3.7127,3.7101,3.7329,3.7493,3.7487,3.7517,3.7041,3.645,3.6013,3.5407,3.5239,3.5223,3.5277,3.5293,3.5212,3.5255,3.5255,3.5661,3.523,3.4802,3.478,3.4115,3.3375,3.3349,3.3324,3.3482,3.3587,3.3807,3.388,3.4037,3.4119,3.4027,3.4008,3.3749,3.3873,3.4286,3.4552,3.4624,3.4739,3.492,3.5178,3.5407,3.5211,3.4973,3.434,3.3509,3.3817,3.4237,4.138,4.1189,4.1418,4.1342,4.1266,4.18,4.1457,4.0387,4.031,4.031,4.031,4.031,4.0425,4.031,4.031,4.031,4.031,4.031,4.031,4.0329,4.0345,4.0327,4.036,4.0492,4.0559,4.0642,4.068,4.0625,4.0043,3.9664,3.9742,3.9858,3.982,3.9548,3.9353,3.9004,3.8848,3.8887,3.912,3.9004,3.8887,3.9082,3.8965,3.8766,3.8706,3.8713,3.8615,3.8554,3.8346,3.8261,3.8297,3.8024,3.7946,3.6891,3.6774,3.9546,3.939,3.857,3.8687,3.9117,3.9387,3.9341,3.9302,3.8961,3.8481,3.8058,3.7773,3.7912,3.8436,3.8747,3.8661,3.8591,3.8213,3.7507,3.6993,3.6556,3.5987,3.5703,3.5665,3.5512,3.549,3.5414,3.5458,3.6337,3.6649,3.6255,3.6043,3.6029,3.5768,3.4946,3.4511,3.446,3.4181,3.4211,3.4027,3.4027,3.4266,3.443,3.4447,3.4645,3.4884,3.5012,3.5235,3.5385,3.5566,3.5602,3.5639,3.5901,3.6298,3.641,3.6245,3.5509,3.501,3.5289,3.5387,4.1495,4.1533,4.1877,4.203,4.2106,4.2565,4.2183,4.138,4.1266,4.1304,4.1266,4.096,4.0769,4.0731,4.0501,4.031,4.031,4.031,4.031,4.0329,4.0401,4.0342,4.0394,4.0476,4.0559,4.0642,4.0718,4.0682,4.0073,3.982,3.9858,4.0169,3.9548,3.9431,3.9509,3.9625,3.9587,3.9703,3.9858,3.9781,3.9781,3.982,3.9664,3.9466,3.9385,3.9384,3.9398,3.949,3.9396,3.9156,3.9078,3.8843,3.8765,3.7904,3.8206,4.0508,4.0313,3.9806,3.9767,3.965,3.9802,3.9724,3.9525,3.9229,3.9357,3.9225,3.8947,3.8865,3.96,4.0125,3.9823,3.95,3.864,3.7836,3.7458,3.7135,3.6736,3.6337,3.6107,3.5878,3.5763,3.5649,3.6107,3.7177,3.7618,3.7127,3.6919,3.7015,3.6734,3.6096,3.5715,3.5577,3.5071,3.4724,3.4541,3.4614,3.5044,3.5316,3.5228,3.543,3.5877,3.5887,3.582,3.6182,3.6616,3.6653,3.6689,3.6798,3.7054,3.7199,3.7241,3.6754,3.6399,3.6432,3.6535,4.1609,4.1724,4.2526,4.287,4.2908,4.3061,4.3061,4.2985,4.2985,4.287,4.2603,4.1915,4.1609,4.1495,4.1151,4.0845,4.0922,4.0922,4.0807,4.0463,4.0595,4.0611,4.0411,4.0438,4.0588,4.0732,4.0792,4.0749,4.0849,4.0597,4.0519,4.0907,4.0752,4.0558,4.0441,4.013,4.013,4.048,4.0674,4.0752,4.0597,4.0713,4.0907,4.0827,4.0772,4.0837,4.0889,4.0859,4.0756,4.0168,3.9816,3.9543,3.9384,3.9419,4.0301,4.0647,4.0803,4.0769,4.0535,4.0344,3.9911,3.9594,3.9087,3.9229,3.9552,3.9546,3.9177,3.9496,4.0138,4.0283,4.0077,3.9945,3.9353,3.8665,3.8282,3.7806,3.7292,3.6948,3.6719,3.6375,3.5763,3.5916,3.7521,3.8553,3.8476,3.8038,3.8058,3.8155,3.7889,3.7363,3.6878,3.6671,3.6165,3.5745,3.5634,3.5754,3.6106,3.6243,3.6079,3.624,3.6649,3.6544,3.6327,3.6834,3.7341,3.7703,3.7848,3.7739,3.7597,3.7711,3.7787,3.7862,3.7757,3.7542,3.7574,4.2488,4.2565,4.3367,4.3711,4.3825,4.4437,4.4666,4.4704,4.4704,4.394,4.2947,4.2603,4.2488,4.2412,4.2144,4.1991,4.203,4.18,4.1724,4.1456,4.1302,4.1067,4.0575,4.0677,4.0731,4.0732,4.0831,4.0837,4.0888,4.0907,4.0907,4.0907,4.0907,4.0917,4.0917,4.0528,4.0731,4.1237,4.1353,4.1081,4.0498,4.0722,4.0917,4.0968,4.105,4.115,4.1167,4.1128,4.1026,4.0773,4.0812,4.0695,4.0547,4.0695,4.0881,4.1067,4.1106,4.1111,4.0998,4.0682,4.0287,3.9819,3.9502,3.9608,3.9602,3.9307,3.9402,3.9929,4.0337,4.0334,4.0291,4.0196,4.0081,3.9508,3.9067,3.8476,3.7903,3.7674,3.7445,3.6833,3.6107,3.7063,3.8744,3.9279,3.924,3.9355,3.9566,3.9662,3.9413,3.8942,3.8099,3.7769,3.7314,3.697,3.6859,3.6731,3.7008,3.6978,3.6812,3.7043,3.7413,3.7341,3.7232,3.7631,3.8065,3.8174,3.814,3.8034,3.7964,3.8003,3.8042,3.8043,3.808,3.7899,3.8255,4.3023,4.3367,4.3825,4.4246,4.4628,4.5086,4.5277,4.5277,4.5277,4.4781,4.3902,4.3558,4.3329,4.3214,4.2985,4.287,4.287,4.2756,4.245,4.2183,4.2125,4.2002,4.1646,4.1247,4.1326,4.1335,4.0942,4.0868,4.1024,4.0907,4.0907,4.0994,4.1003,4.1021,4.1021,4.103,4.1435,4.2144,4.201,4.1427,4.0688,4.1177,4.176,4.1855,4.1774,4.1741,4.1953,4.1939,4.1679,4.1466,4.131,4.1072,4.0959,4.0994,4.1061,4.1095,4.1089,4.1095,4.1022,4.0749,4.051,4.0154,3.9764,3.9869,4.0142,3.9836,3.9052,3.9536,4.0432,4.0604,4.0381,4.0272,4.0196,3.9852,3.9737,3.9431,3.9202,3.9088,3.8973,3.882,3.8362,3.8591,3.9775,3.989,3.9852,3.9795,4.0215,4.0196,4.0118,4.0038,3.9313,3.8769,3.8302,3.8122,3.8069,3.7877,3.7808,3.7698,3.7471,3.7729,3.7954,3.8062,3.8174,3.8355,3.8355,3.8104,3.807,3.8253,3.7969,3.7863,3.7972,3.8115,3.815,3.8256,3.854,4.3443,4.4131,4.4169,4.459,4.5239,4.5277,4.5277,4.5277,4.5277,4.5277,4.5086,4.4437,4.4208,4.3902,4.352,4.3252,4.3252,4.3558,4.3291,4.3005,4.2947,4.2769,4.2563,4.2302,4.2228,4.2067,4.1781,4.1607,4.1586,4.1548,4.1557,4.1323,4.131,4.1373,4.1303,4.1441,4.1961,4.2305,4.2298,4.2032,4.205,4.2144,4.2307,4.2487,4.2623,4.2615,4.2771,4.2711,4.2212,4.193,4.1418,4.1217,4.1095,4.1095,4.1128,4.1117,4.1117,4.1117,4.1,4.061,4.0682,4.0643,4.0253,4.0331,4.0682,4.0584,3.9801,3.9971,4.0878,4.0726,4.0508,4.031,4.0272,4.0234,4.0234,4.0234,4.0196,4.0157,4.0196,4.0196,4.0157,4.0157,4.0196,4.031,4.0368,4.033,4.0311,4.0234,4.0157,4.0096,3.9692,3.944,3.918,3.9139,3.9139,3.8785,3.8464,3.8314,3.819,3.838,3.8637,3.9031,3.9143,3.879,3.8753,3.8755,3.8686,3.8796,3.8438,3.8044,3.8437,3.8686,3.8114,3.8292,3.8719,4.4345,4.511,4.5069,4.5163,4.5277,4.5277,4.5277,4.5277,4.5277,4.5277,4.526,4.5201,4.5048,4.501,4.4934,4.4725,4.4439,4.4534,4.4248,4.3924,4.3827,4.3555,4.3312,4.3206,4.3079,4.2915,4.2869,4.2995,4.2555,4.2719,4.2969,4.2914,4.296,4.3013,4.3013,4.3026,4.2955,4.315,4.315,4.3026,4.2708,4.2376,4.1402,4.1373,4.1384,4.1403,4.1405,4.1413,4.134,4.1279,4.124,4.1162,4.1117,4.1117,4.1117,4.111,4.111,4.111,4.0916,4.0799,4.0994,4.1033,4.0955,4.1539,4.2007,4.2669,4.2213,4.2174,4.2369,4.1072,4.064,4.0381,4.0272,4.031,4.0272,4.0348,4.0387,4.0387,4.0425,4.0348,4.0272,4.0272,4.0272,4.0406,4.0597,4.0559,4.0577,4.0538,4.0553,4.0342,4.0169,4.016,4.011,3.9933,3.9835,3.9301,3.898,3.886,3.898,3.941,3.9849,4.0324,4.0294,3.9692,3.9732,3.9878,3.977,3.9337,3.9157,3.8939,3.9365,3.9397,3.8647,3.8433,3.904]}]]